[[{"header":{"parameterUnit":"m.s-1","parameterCategory":1,"la1":30.6,"la2":28.766,"lo1":-90.7593,"lo2":-88.6598,"dy":0.0162,"dx":0.0183,"nx":116,"ny":114,"refTime":"2024-04-08T18:00:00:Z","depth":0,"parameterNumber":2,"parameterNumberName":"U-component_of_WINDS"},"data":[0.0,0.0,0.0,0.0,0.0,0.0,0.0,0.0,0.0,0.0,0.0,0.0,0.0,0.0,0.0,0.0,0.0,0.0,0.0,0.0,0.0,0.0,0.0,0.0,0.0,0.0,0.0,0.0,0.0,0.0,0.0,0.0,0.0,0.0,0.0,0.0,0.0,0.0,0.0,0.0,0.0,0.0,0.0,0.0,0.0,0.0,0.0,0.0,0.0,0.0,0.0,0.0,0.0,0.0,0.0,0.0,0.0,0.0,0.0,0.0,0.0,0.0,0.0,0.0,0.0,0.0,0.0,0.0,0.0,0.0,0.0,0.0,0.0,0.0,0.0,0.0,0.0,0.0,0.0,0.0,0.0,0.0,0.0,0.0,0.0,0.0,0.0,0.0,0.0,0.0,0.0,0.0,0.0,0.0,0.0,0.0,0.0,0.0,0.0,0.0,0.0,0.0,0.0,0.0,0.0,0.0,0.0,0.0,0.0,0.0,0.0,0.0,0.0,0.0,0.0,0.0,0.0,0.0,0.0,0.0,0.0,0.0,0.0,0.0,0.0,0.0,0.0,0.0,0.0,0.0,0.0,0.0,0.0,0.0,0.0,0.0,0.0,0.0,0.0,0.0,0.0,0.0,0.0,0.0,0.0,0.0,0.0,0.0,0.0,0.0,0.0,0.0,0.0,0.0,0.0,0.0,0.0,0.0,0.0,0.0,0.0,0.0,0.0,0.0,0.0,0.0,0.0,0.0,0.0,0.0,0.0,0.0,0.0,0.0,0.0,0.0,0.0,0.0,0.0,0.0,0.0,0.0,0.0,0.0,0.0,0.0,0.0,0.0,0.0,0.0,0.0,0.0,0.0,0.0,0.0,0.0,0.0,0.0,0.0,0.0,0.0,0.0,0.0,0.0,0.0,0.0,0.0,0.0,0.0,0.0,0.0,0.0,0.0,0.0,0.0,0.0,0.0,0.0,0.0,0.0,0.0,0.0,0.0,0.0,0.0,0.0,0.0,0.0,0.0,0.0,0.0,0.0,0.0,0.0,0.0,0.0,0.0,0.0,0.0,0.0,0.0,0.0,0.0,0.0,0.0,0.0,0.0,0.0,0.0,0.0,0.0,0.0,0.0,0.0,0.0,0.0,0.0,0.0,0.0,0.0,0.0,0.0,0.0,0.0,0.0,0.0,0.0,0.0,0.0,0.0,0.0,0.0,0.0,0.0,0.0,0.0,0.0,0.0,0.0,0.0,0.0,0.0,0.0,0.0,0.0,0.0,0.0,0.0,0.0,0.0,0.0,0.0,0.0,0.0,0.0,0.0,0.0,0.0,0.0,0.0,0.0,0.0,0.0,0.0,0.0,0.0,0.0,0.0,0.0,0.0,0.0,0.0,0.0,0.0,0.0,0.0,0.0,0.0,0.0,0.0,0.0,0.0,0.0,0.0,0.0,0.0,0.0,0.0,0.0,0.0,0.0,0.0,0.0,0.0,0.0,0.0,0.0,0.0,0.0,0.0,0.0,0.0,0.0,0.0,0.0,0.0,0.0,0.0,0.0,0.0,0.0,0.0,0.0,0.0,0.0,0.0,0.0,0.0,0.0,0.0,0.0,0.0,0.0,0.0,0.0,0.0,0.0,0.0,0.0,0.0,0.0,0.0,0.0,0.0,0.0,0.0,0.0,0.0,0.0,0.0,0.0,0.0,0.0,0.0,0.0,0.0,0.0,0.0,0.0,0.0,0.0,0.0,0.0,0.0,0.0,0.0,0.0,0.0,0.0,0.0,0.0,0.0,0.0,0.0,0.0,0.0,0.0,0.0,0.0,0.0,0.0,0.0,0.0,0.0,0.0,0.0,0.0,0.0,0.0,0.0,0.0,0.0,0.0,0.0,0.0,0.0,0.0,0.0,0.0,0.0,0.0,0.0,0.0,0.0,0.0,0.0,0.0,0.0,0.0,0.0,0.0,0.0,0.0,0.0,0.0,0.0,0.0,0.0,0.0,0.0,0.0,0.0,0.0,0.0,0.0,0.0,0.0,0.0,0.0,0.0,0.0,0.0,0.0,0.0,0.0,0.0,0.0,0.0,0.0,0.0,0.0,0.0,0.0,0.0,0.0,0.0,0.0,0.0,0.0,0.0,0.0,0.0,0.0,0.0,0.0,0.0,0.0,0.0,0.0,0.0,0.0,0.0,0.0,0.0,0.0,0.0,0.0,0.0,0.0,0.0,0.0,0.0,0.0,0.0,0.0,0.0,0.0,0.0,0.0,0.0,0.0,0.0,0.0,0.0,0.0,0.0,0.0,0.0,0.0,0.0,0.0,0.0,0.0,0.0,0.0,0.0,0.0,0.0,0.0,0.0,0.0,0.0,0.0,0.0,0.0,0.0,0.0,0.0,0.0,0.0,0.0,0.0,0.0,0.0,0.0,0.0,0.0,0.0,0.0,0.0,0.0,0.0,0.0,0.0,0.0,0.0,0.0,0.0,0.0,0.0,0.0,0.0,0.0,0.0,0.0,0.0,0.0,0.0,0.0,0.0,0.0,0.0,0.0,0.0,0.0,0.0,0.0,0.0,0.0,0.0,0.0,0.0,0.0,0.0,0.0,0.0,0.0,0.0,0.0,0.0,0.0,0.0,0.0,0.0,0.0,0.0,0.0,0.0,0.0,0.0,0.0,0.0,0.0,0.0,0.0,0.0,0.0,0.0,0.0,0.0,0.0,0.0,0.0,0.0,0.0,0.0,0.0,0.0,0.0,0.0,0.0,0.0,0.0,0.0,0.0,0.0,0.0,0.0,0.0,0.0,0.0,0.0,0.0,0.0,0.0,0.0,0.0,0.0,0.0,0.0,0.0,0.0,0.0,0.0,0.0,0.0,0.0,0.0,0.0,0.0,0.0,0.0,0.0,0.0,0.0,0.0,0.0,0.0,0.0,0.0,0.0,0.0,0.0,0.0,0.0,0.0,0.0,0.0,0.0,0.0,0.0,0.0,0.0,0.0,0.0,0.0,0.0,0.0,0.0,0.0,0.0,0.0,0.0,0.0,0.0,0.0,0.0,0.0,0.0,0.0,0.0,0.0,0.0,0.0,0.0,0.0,0.0,0.0,0.0,0.0,0.0,0.0,0.0,0.0,0.0,0.0,0.0,0.0,0.0,0.0,0.0,0.0,0.0,0.0,0.0,0.0,0.0,0.0,0.0,0.0,0.0,0.0,0.0,0.0,0.0,0.0,0.0,0.0,0.0,0.0,0.0,0.0,0.0,0.0,0.0,0.0,0.0,0.0,0.0,0.0,0.0,0.0,0.0,0.0,0.0,0.0,0.0,0.0,0.0,0.0,0.0,0.0,0.0,0.0,0.0,0.0,0.0,0.0,0.0,0.0,0.0,0.0,0.0,0.0,0.0,0.0,0.0,0.0,0.0,0.0,0.0,0.0,0.0,0.0,0.0,0.0,0.0,0.0,0.0,0.0,0.0,0.0,0.0,0.0,0.0,0.0,0.0,0.0,0.0,0.0,0.0,0.0,0.0,0.0,0.0,0.0,0.0,0.0,0.0,0.0,0.0,0.0,0.0,0.0,0.0,0.0,0.0,0.0,0.0,0.0,0.0,0.0,0.0,0.0,0.0,0.0,0.0,0.0,0.0,0.0,0.0,0.0,0.0,0.0,0.0,0.0,0.0,0.0,0.0,0.0,0.0,0.0,0.0,0.0,0.0,0.0,0.0,0.0,0.0,0.0,0.0,0.0,0.0,0.0,0.0,0.0,0.0,0.0,0.0,0.0,0.0,0.0,0.0,0.0,0.0,0.0,0.0,0.0,0.0,0.0,0.0,0.0,0.0,0.0,0.0,0.0,0.0,0.0,0.0,0.0,0.0,0.0,0.0,0.0,0.0,0.0,0.0,0.0,0.0,0.0,0.0,0.0,0.0,0.0,0.0,0.0,0.0,0.0,0.0,0.0,0.0,0.0,0.0,0.0,0.0,0.0,0.0,0.0,0.0,0.0,0.0,0.0,0.0,0.0,0.0,0.0,0.0,0.0,0.0,0.0,0.0,0.0,0.0,0.0,0.0,0.0,0.0,0.0,0.0,0.0,0.0,0.0,0.0,0.0,0.0,0.0,0.0,0.0,0.0,0.0,0.0,0.0,0.0,0.0,0.0,0.0,0.0,0.0,0.0,0.0,0.0,0.0,0.0,0.0,0.0,0.0,0.0,0.0,0.0,0.0,0.0,0.0,0.0,0.0,0.0,0.0,0.0,0.0,0.0,0.0,0.0,0.0,0.0,0.0,0.0,0.0,0.0,0.0,0.0,0.0,0.0,0.0,0.0,0.0,0.0,0.0,0.0,0.0,0.0,0.0,0.0,0.0,0.0,0.0,0.0,0.0,0.0,0.0,0.0,0.0,0.0,0.0,0.0,0.0,0.0,0.0,0.0,0.0,0.0,0.0,0.0,0.0,0.0,0.0,0.0,0.0,0.0,0.0,0.0,0.0,0.0,0.0,0.0,0.0,0.0,0.0,0.0,0.0,0.0,0.0,0.0,0.0,0.0,0.0,0.0,0.0,0.0,0.0,0.0,0.0,0.0,0.0,0.0,0.0,0.0,0.0,0.0,0.0,0.0,0.0,0.0,0.0,0.0,0.0,0.0,0.0,0.0,0.0,0.0,0.0,0.0,0.0,0.0,0.0,0.0,0.0,0.0,0.0,0.0,0.0,0.0,0.0,0.0,0.0,0.0,0.0,0.0,0.0,0.0,0.0,0.0,0.0,0.0,0.0,0.0,0.0,0.0,0.0,0.0,0.0,0.0,0.0,0.0,0.0,0.0,0.0,0.0,0.0,0.0,0.0,0.0,0.0,0.0,0.0,0.0,0.0,0.0,0.0,0.0,0.0,0.0,0.0,0.0,0.0,0.0,0.0,0.0,0.0,0.0,0.0,0.0,0.0,0.0,0.0,0.0,0.0,0.0,0.0,0.0,0.0,0.0,0.0,0.0,0.0,0.0,0.0,0.0,0.0,0.0,0.0,0.0,0.0,0.0,0.0,0.0,0.0,0.0,0.0,0.0,0.0,0.0,0.0,0.0,0.0,0.0,0.0,0.0,0.0,0.0,0.0,0.0,0.0,0.0,0.0,0.0,0.0,0.0,0.0,0.0,0.0,0.0,0.0,0.0,0.0,0.0,0.0,0.0,0.0,0.0,0.0,0.0,0.0,0.0,0.0,0.0,0.0,0.0,0.0,0.0,0.0,0.0,0.0,0.0,0.0,0.0,0.0,0.0,0.0,0.0,0.0,0.0,0.0,0.0,0.0,0.0,0.0,0.0,0.0,0.0,0.0,0.0,0.0,0.0,0.0,0.0,0.0,0.0,0.0,0.0,0.0,0.0,0.0,0.0,0.0,0.0,0.0,0.0,0.0,0.0,0.0,0.0,0.0,0.0,0.0,0.0,0.0,0.0,0.0,0.0,0.0,0.0,0.0,0.0,0.0,0.0,0.0,0.0,0.0,0.0,0.0,0.0,0.0,0.0,0.0,0.0,0.0,0.0,0.0,0.0,0.0,0.0,0.0,0.0,0.0,0.0,0.0,0.0,0.0,0.0,0.0,0.0,0.0,0.0,0.0,0.0,0.0,0.0,0.0,0.0,0.0,0.0,0.0,0.0,0.0,0.0,0.0,0.0,0.0,0.0,0.0,0.0,0.0,0.0,0.0,0.0,0.0,0.0,0.0,0.0,0.0,0.0,0.0,0.0,0.0,0.0,0.0,0.0,0.0,0.0,0.0,0.0,0.0,0.0,0.0,0.0,0.0,0.0,0.0,0.0,0.0,0.0,0.0,0.0,0.0,0.0,0.0,0.0,0.0,0.0,0.0,0.0,0.0,0.0,0.0,0.0,0.0,0.0,0.0,0.0,0.0,0.0,0.0,0.0,0.0,0.0,0.0,0.0,0.0,0.0,0.0,0.0,0.0,0.0,0.0,0.0,0.0,0.0,0.0,0.0,0.0,0.0,0.0,0.0,0.0,0.0,0.0,0.0,0.0,0.0,0.0,0.0,0.0,0.0,0.0,0.0,0.0,0.0,0.0,0.0,0.0,0.0,0.0,0.0,0.0,0.0,0.0,0.0,0.0,0.0,0.0,-2.3673,0.0,0.0,0.0,0.0,0.0,0.0,0.0,0.0,0.0,0.0,0.0,0.0,0.0,0.0,0.0,0.0,0.0,0.0,0.0,0.0,0.0,0.0,0.0,0.0,-1.5192,-1.5224,-1.5293,-1.5654,-1.5911,-1.6017,0.0,0.0,0.0,0.0,0.0,-1.7324,-1.7732,-1.8159,-1.8589,-1.9381,-2.0406,-2.1604,-2.1498,-2.0379,-1.8441,0.0,0.0,0.0,0.0,0.0,0.0,0.0,0.0,0.0,0.0,0.0,0.0,0.0,0.0,0.0,0.0,0.0,0.0,0.0,0.0,0.0,0.0,0.0,0.0,0.0,0.0,0.0,0.0,0.0,0.0,0.0,0.0,0.0,0.0,0.0,0.0,0.0,0.0,0.0,0.0,0.0,0.0,0.0,0.0,0.0,0.0,0.0,0.0,0.0,0.0,0.0,0.0,0.0,0.0,0.0,0.0,0.0,0.0,0.0,0.0,0.0,0.0,0.0,0.0,0.0,0.0,0.0,0.0,0.0,0.0,0.0,-2.3793,0.0,0.0,0.0,0.0,0.0,0.0,0.0,0.0,0.0,0.0,0.0,0.0,0.0,0.0,0.0,0.0,0.0,0.0,0.0,0.0,0.0,-1.5192,-1.5192,-1.5346,-1.5449,-1.549,-1.6256,-1.6769,-1.688,-1.7509,-1.791,-1.7966,-1.8103,-1.8181,-1.8181,-1.8307,-1.8845,-1.9882,-2.1563,-2.3508,-2.56,-2.5498,-2.3182,-1.9146,-1.9063,0.0,0.0,0.0,0.0,0.0,0.0,0.0,0.0,0.0,0.0,0.0,0.0,0.0,0.0,0.0,0.0,0.0,0.0,0.0,0.0,0.0,0.0,0.0,0.0,0.0,0.0,0.0,0.0,0.0,0.0,0.0,0.0,0.0,0.0,0.0,0.0,0.0,0.0,0.0,0.0,0.0,0.0,0.0,0.0,0.0,0.0,0.0,0.0,0.0,0.0,0.0,0.0,0.0,0.0,0.0,0.0,0.0,0.0,0.0,0.0,0.0,0.0,0.0,0.0,0.0,-2.8996,-2.8983,-2.8985,-2.8911,-2.7611,-2.7542,-2.8232,0.0,0.0,0.0,0.0,0.0,0.0,0.0,0.0,0.0,0.0,0.0,0.0,0.0,0.0,0.0,0.0,0.0,0.0,0.0,0.0,-1.5192,-1.5192,-1.5888,-1.6336,-1.6346,-1.7131,-1.765,-1.7648,-1.775,-1.7816,-1.7823,-1.8548,-1.896,-1.896,-1.9734,-2.0958,-2.2599,-2.4312,-2.535,-2.5682,-2.5609,-2.5187,-2.4487,-2.435,-2.3077,-2.1043,0.0,0.0,0.0,0.0,0.0,0.0,0.0,0.0,0.0,0.0,0.0,0.0,0.0,0.0,0.0,0.0,0.0,0.0,0.0,0.0,0.0,0.0,0.0,0.0,0.0,0.0,0.0,0.0,0.0,0.0,0.0,0.0,0.0,0.0,0.0,0.0,0.0,0.0,0.0,0.0,0.0,-2.2392,-2.4656,0.0,0.0,0.0,0.0,0.0,0.0,0.0,0.0,0.0,0.0,0.0,0.0,0.0,0.0,-2.7774,-2.9481,-3.0353,-3.0373,-3.1821,-3.2533,-3.2533,-3.247,-3.2477,-3.2391,-2.9863,0.0,-3.0303,-2.9975,0.0,0.0,0.0,0.0,0.0,0.0,0.0,0.0,0.0,0.0,0.0,0.0,0.0,0.0,0.0,0.0,0.0,0.0,0.0,0.0,0.0,-1.7103,-1.8103,-1.86,-2.0334,-2.0977,-1.9991,-1.997,-1.9575,-1.8634,-1.8488,-1.8434,-1.8434,-1.9307,-2.1551,-2.5237,-2.703,-2.8612,-2.9966,-2.9895,-2.9814,-2.9711,-2.9606,-2.7365,-2.3654,-2.4038,0.0,0.0,0.0,0.0,0.0,0.0,0.0,0.0,0.0,0.0,0.0,0.0,0.0,0.0,0.0,0.0,0.0,0.0,0.0,0.0,0.0,0.0,0.0,0.0,0.0,0.0,0.0,0.0,0.0,0.0,0.0,0.0,0.0,0.0,0.0,0.0,0.0,0.0,0.0,-2.3318,-2.5215,-2.6823,-2.7295,-2.679,0.0,0.0,0.0,0.0,0.0,0.0,0.0,0.0,0.0,-2.8686,-3.0574,-3.1634,-3.1751,-3.3932,-3.5022,-3.5041,-3.5778,-3.6124,-3.6121,-3.6055,-3.6096,-3.6169,-3.4881,-3.4645,-3.4866,-3.1351,-3.0152,-3.0358,0.0,0.0,0.0,0.0,0.0,-2.6233,0.0,0.0,0.0,0.0,0.0,0.0,0.0,0.0,0.0,0.0,0.0,0.0,-1.7042,-1.8834,-2.0316,-2.1196,-2.3238,-2.3646,-2.1707,-2.1612,-2.0791,-1.89,-1.8401,-1.8172,-1.8172,-2.012,-2.3326,-2.7852,-2.9631,-3.1466,-3.3301,-3.3244,-3.3168,-3.3071,-3.3015,-3.0488,-2.6288,-2.6519,-2.589,0.0,0.0,0.0,0.0,0.0,0.0,0.0,0.0,0.0,0.0,0.0,0.0,0.0,0.0,0.0,0.0,0.0,0.0,0.0,0.0,0.0,0.0,0.0,0.0,0.0,0.0,0.0,0.0,0.0,0.0,0.0,0.0,0.0,0.0,0.0,0.0,0.0,0.0,-2.5953,-2.7365,-2.8616,-2.9335,-2.9044,0.0,0.0,0.0,0.0,0.0,0.0,-2.9586,-3.0332,-3.0998,-3.1517,-3.4007,-3.5407,-3.5541,-3.7435,-3.8371,-3.8371,-3.8371,-3.8371,-3.8368,-3.828,-3.8351,-3.8502,-3.8361,-3.8373,-3.8171,-3.3563,-3.2017,-3.2464,-3.1912,-3.0895,0.0,-2.8766,-2.8706,-2.8957,0.0,0.0,0.0,0.0,0.0,0.0,0.0,0.0,0.0,0.0,0.0,-1.7907,-1.8785,-2.1119,-2.2951,-2.3841,-2.4721,-2.4182,-2.1666,-2.1516,-2.0389,-1.7886,-1.8525,-1.8932,-1.8932,-2.3788,-2.7672,-3.04,-3.2169,-3.3129,-3.3301,-3.33,-3.3282,-3.3287,-3.3201,-3.1588,-2.8953,-2.9788,-2.8712,-2.6332,0.0,0.0,0.0,0.0,0.0,0.0,0.0,0.0,0.0,0.0,0.0,0.0,0.0,0.0,0.0,0.0,0.0,0.0,0.0,0.0,0.0,0.0,0.0,0.0,0.0,0.0,0.0,0.0,0.0,0.0,0.0,0.0,0.0,0.0,0.0,0.0,0.0,0.0,0.0,-3.0284,-3.2715,0.0,0.0,0.0,0.0,-3.029,-3.1067,-3.2298,-3.3892,-3.4792,-3.6062,-3.7794,-3.8012,-3.8093,-3.8101,-3.8237,-3.8315,-3.8315,-3.8315,-3.8315,-3.8292,-3.8166,-3.8181,-3.8296,-3.8111,-3.8125,-3.8303,-3.817,-3.8078,-3.7755,-3.5347,-3.431,-3.3788,-3.0528,-3.0331,-3.1585,0.0,0.0,0.0,0.0,0.0,-1.7672,-1.7514,-1.6448,-1.5753,-1.6003,-1.7507,-1.9065,-2.0462,-2.3389,-2.5601,-2.6472,-2.7827,-2.7778,-2.5746,-2.3593,-2.1735,-2.02,-1.8372,-1.8673,-2.1448,-2.6061,-2.9449,-3.151,-3.3856,-3.529,-3.5823,-3.6332,-3.6548,-3.6441,-3.6438,-3.5836,-3.4699,-3.2814,-3.1198,-2.9775,-2.8621,-2.7,0.0,0.0,0.0,0.0,0.0,0.0,0.0,0.0,0.0,0.0,0.0,0.0,0.0,0.0,0.0,0.0,0.0,0.0,0.0,0.0,0.0,0.0,0.0,0.0,0.0,0.0,0.0,0.0,0.0,0.0,0.0,0.0,0.0,0.0,0.0,0.0,0.0,-3.2012,-3.3712,0.0,0.0,-3.4406,-3.4631,-3.3938,-3.5103,-3.6114,-3.6709,-3.7005,-3.7437,-3.8085,-3.8646,-3.8951,-3.901,-3.9567,-3.9834,-3.9834,-3.9834,-3.9834,-3.9834,-3.9805,-3.9873,-4.002,-3.9967,-4.0009,-4.0161,-4.0233,-3.9526,-3.833,-3.7493,-3.7163,-3.7,-3.5773,-3.5695,-3.6161,0.0,0.0,0.0,0.0,-1.814,-1.7252,-1.7123,-1.6011,-1.5615,-1.6756,-1.8623,-2.0585,-2.2577,-2.5563,-2.7794,-2.8679,-2.9809,-2.9381,-2.6785,-2.4539,-2.2372,-2.0316,-1.9196,-2.0911,-2.5793,-2.9023,-3.1654,-3.3685,-3.5754,-3.7042,-3.7571,-3.8122,-3.8322,-3.8234,-3.8194,-3.8115,-3.788,-3.5592,-3.4141,-3.3237,-3.1519,-2.9135,-2.6428,0.0,0.0,0.0,0.0,0.0,0.0,0.0,0.0,0.0,0.0,0.0,0.0,0.0,0.0,0.0,0.0,0.0,0.0,0.0,0.0,0.0,0.0,0.0,0.0,0.0,0.0,0.0,0.0,0.0,0.0,0.0,0.0,0.0,0.0,0.0,-3.1289,-3.3509,-3.5096,-3.5975,-3.5899,-3.6444,-3.6758,-3.6644,-3.7876,-3.8626,-3.8603,-3.8827,-3.8936,-3.8915,-3.9474,-3.9772,-3.9779,-4.0333,-4.0771,-4.1074,-4.1074,-4.1248,-4.1536,-4.1223,-4.0877,-4.0532,-4.0779,-4.065,-4.0308,-4.0894,-4.0422,-3.9323,-3.912,-3.9043,-3.9004,-3.8711,-3.8594,-3.8594,0.0,0.0,0.0,-1.8521,-1.7804,-1.7077,-1.6428,-1.5689,-1.5788,-1.7449,-1.9927,-2.2481,-2.5,-2.7582,-2.9486,-3.0327,-3.0404,-2.864,-2.4495,-2.4149,-2.2224,-1.8033,-2.1174,-2.5775,-3.1706,-3.277,-3.4517,-3.7044,-3.7923,-3.8348,-3.833,-3.8373,-3.8381,-3.8377,-3.8228,-3.8175,-3.8177,-3.8078,-3.7546,-3.6481,-3.3199,-3.0794,-2.8953,0.0,0.0,0.0,0.0,0.0,0.0,0.0,0.0,0.0,0.0,0.0,0.0,0.0,0.0,0.0,0.0,0.0,0.0,0.0,0.0,0.0,0.0,0.0,0.0,0.0,0.0,0.0,0.0,0.0,0.0,0.0,0.0,0.0,-2.7246,-3.1543,-3.4726,-3.4805,-3.707,-3.8591,-3.8468,-3.8588,-3.8584,-3.8406,-3.9229,-3.9719,-3.9645,-4.0354,-4.0727,-4.067,-4.0684,-4.0649,-4.0504,-4.055,-4.1004,-4.1846,-4.1835,-4.2317,-4.3163,-4.2251,-4.1074,-3.9754,-4.0484,-3.9948,-3.8692,-4.0391,-4.1138,-4.1152,-4.0273,-3.9941,-3.9844,-3.8984,-3.8672,-3.8672,0.0,0.0,-1.9239,-1.9077,-1.7999,-1.7132,-1.704,-1.5893,-1.5475,-1.667,-2.0104,-2.2951,-2.4279,-2.7794,-3.0135,-3.0385,-3.0404,-2.9385,-2.701,-2.5125,-2.3314,-2.1548,-2.5389,0.0,-3.2743,-3.5538,-3.7301,-3.8014,-3.8887,-3.9314,-3.9329,-3.9857,-4.0095,-4.0031,-3.9998,-3.9934,-3.9793,-3.9203,-3.8796,-3.8392,-3.6219,-3.393,-3.1718,0.0,0.0,0.0,0.0,0.0,0.0,0.0,0.0,0.0,0.0,0.0,0.0,0.0,0.0,0.0,0.0,0.0,0.0,0.0,0.0,0.0,0.0,0.0,0.0,0.0,0.0,0.0,0.0,0.0,0.0,0.0,0.0,-3.3301,-3.2676,-3.3809,-3.5391,-3.7305,-3.8711,-3.9531,-3.949,-4.0008,-4.0322,-4.0257,-4.0415,-4.0496,-4.047,-4.0132,-3.9921,-3.9906,-4.0479,-4.0722,-4.0655,-4.1942,-4.2646,-4.2739,-4.2785,-4.2922,-4.3123,-4.3013,-4.2743,-4.2362,-4.272,-4.2622,-4.2282,-4.2751,-4.2616,-4.1992,-4.1152,-4.084,-4.0801,-4.0566,-4.0488,-4.0215,0.0,-1.9166,-1.9095,-1.8408,-1.7631,-1.6895,-1.6306,-1.5523,-1.5475,-1.6791,-2.0369,-2.3259,-2.4466,-2.8077,-3.0404,-3.0404,-3.0731,-2.9769,-2.6986,-2.5106,-2.4855,-2.6549,0.0,-3.2159,-3.4743,-3.7495,-3.8895,-3.8909,-3.9744,-4.0156,-4.0135,-4.0561,-4.071,-4.0616,-4.0616,-4.0581,-4.0477,-3.9996,-3.9804,-3.9688,-3.8334,-3.5834,-3.2852,-3.2372,-3.0698,-2.8607,-2.8607,-2.8909,-2.9179,-2.8025,0.0,0.0,0.0,0.0,0.0,0.0,0.0,0.0,0.0,0.0,0.0,0.0,0.0,0.0,0.0,0.0,0.0,0.0,0.0,0.0,0.0,0.0,0.0,0.0,-3.2773,-3.6211,-3.6797,-3.6875,-3.7441,-3.8965,-3.9902,-4.0449,-4.0449,-4.1147,-4.1588,-4.1588,-4.1841,-4.2017,-4.2017,-4.1569,-4.0969,-4.0214,-4.1347,-4.1575,-4.0761,-4.2507,-4.3525,-4.377,-4.3809,-4.4017,-4.4345,-4.4073,-4.3591,0.0,-4.346,-4.3279,-4.2715,-4.3418,-4.3398,0.0,0.0,0.0,0.0,0.0,-4.1191,-4.0976,0.0,-1.9142,-1.8812,-1.7293,-1.7064,-1.6575,-1.5069,-1.4913,-1.5621,-1.7483,-2.0677,-2.3457,-2.525,-2.8404,-3.0404,-3.0404,-3.0923,-2.9621,-2.5692,-2.4596,-2.6446,-3.1717,-3.279,-3.452,-3.7226,-3.8898,-3.9735,-3.9739,-4.0435,-4.0767,-4.0697,-4.068,-4.0616,-4.0496,-4.0496,-4.0496,-4.0496,-4.0496,-4.0496,-4.0439,-3.9727,-3.7103,-3.3603,-3.3506,-3.1564,-2.889,-2.889,-2.8832,-2.8813,-2.9242,0.0,0.0,0.0,0.0,0.0,0.0,0.0,0.0,0.0,0.0,0.0,0.0,0.0,0.0,0.0,0.0,0.0,0.0,0.0,0.0,0.0,0.0,0.0,0.0,-3.4355,-3.7402,-3.9726,-4.0117,-4.0156,-4.0059,-4.0801,-4.1348,-4.1348,-4.207,-4.2558,-4.2558,-4.3262,-4.3691,-4.3691,0.0,0.0,0.0,0.0,-4.2815,-4.1128,-4.2843,-4.4106,-4.4837,-4.4849,-4.5283,-4.6058,-4.5222,-4.4116,-4.2851,-4.3597,-4.3094,-4.1894,-4.3379,-4.3945,-4.3769,-4.2891,-4.2051,-4.1308,-4.1113,-4.1113,0.0,0.0,-1.9006,-1.9003,-1.8034,-1.7358,-1.6644,-1.5795,-1.5148,-1.5664,-1.8238,-2.0948,-2.3582,-2.6072,-2.8769,-3.0404,-3.0404,-2.9313,-2.7986,-2.6447,-2.4939,-2.6714,-3.2589,-3.3685,-3.569,-3.9019,-4.0058,-4.0568,-4.0564,-4.066,-4.0707,-4.0697,-4.0582,-4.0515,-4.0496,-4.0496,-4.0496,-4.0496,-4.0496,-4.0496,-4.0496,-4.0323,-3.9381,-3.7995,-3.7276,-3.618,-3.5007,-3.5007,-3.4577,-3.3731,-3.1833,-3.1198,-3.1237,-3.141,0.0,0.0,0.0,0.0,0.0,0.0,0.0,0.0,0.0,0.0,0.0,0.0,0.0,0.0,0.0,0.0,0.0,0.0,0.0,0.0,-3.4922,-3.793,-4.0371,-4.0879,-4.1504,-4.168,-4.1035,-4.168,-4.2168,-4.2168,-4.2949,-4.3457,-4.3457,-4.3594,-4.3691,-4.3691,-4.3027,0.0,-4.2147,-4.3143,-4.3485,-4.3063,-4.4846,-4.5726,-4.567,0.0,0.0,-4.5936,-4.5855,-4.5675,-4.5402,-4.5659,-4.5605,-4.5332,-4.5664,-4.5371,-4.4668,-4.3789,-4.293,-4.1992,-4.0644,-4.0605,-4.0996,0.0,-1.8972,-1.893,-1.7704,-1.7165,-1.6513,-1.5359,-1.4911,-1.5357,-1.7202,-1.9731,-2.2374,-2.5058,-2.6846,-2.8019,-2.8462,-2.6967,-2.6703,-2.8385,-2.772,-2.9569,-3.4783,-3.5839,-3.7302,-3.9452,-4.0315,-4.0717,-4.0645,-4.0623,-4.0596,-4.0596,-4.0523,-4.0496,-4.0496,-4.0496,-4.0496,-4.0496,-4.0496,-4.0496,-4.0496,-4.0496,-4.0265,-3.9804,-3.8969,-3.7834,-3.6692,-3.6692,-3.6173,-3.5308,-3.4019,-3.3596,-3.3596,-3.3596,-3.3006,-3.1795,0.0,0.0,0.0,0.0,0.0,0.0,0.0,0.0,0.0,0.0,0.0,0.0,0.0,0.0,-3.1035,0.0,0.0,-3.4668,-3.6367,-3.8105,-3.9844,-4.1562,-4.2148,-4.2246,-4.1855,-4.2539,-4.3047,-4.3047,-4.3848,-4.4355,-4.4355,-4.4746,-4.5,-4.5,-4.5,-4.4609,-4.373,-4.5391,-4.5878,-4.497,-4.6717,-4.7534,-4.7401,-4.7463,-4.7461,-4.7381,-4.7014,-4.6844,-4.6826,-4.6464,-4.6308,-4.6308,-4.6308,-4.6035,-4.5605,-4.5176,-4.4199,-4.2949,-4.2109,-4.207,-4.2266,0.0,-1.8972,-1.8794,-1.7183,-1.6908,-1.6358,-1.475,-1.4587,-1.5129,-1.6413,-1.8607,-2.1091,-2.3788,-2.4812,-2.5385,-2.5601,-2.4683,-2.5683,-2.9423,-3.0135,-3.2336,-3.6659,-3.7702,-3.8533,-3.936,-4.0223,-4.061,-4.0496,-4.0496,-4.0496,-4.0496,-4.0496,-4.0496,-4.0496,-4.0496,-4.0496,-4.0496,-4.0496,-4.0496,-4.0496,-4.0496,-4.0496,-4.0439,-3.9785,-3.8565,-3.718,-3.7,-3.6423,-3.5712,-3.5558,-3.55,-3.55,-3.55,-3.55,-3.4635,-3.0179,-3.0333,0.0,0.0,0.0,0.0,0.0,0.0,0.0,0.0,0.0,-3.2305,-3.1953,-3.2285,-3.291,-3.3789,-3.3945,-3.4844,-3.7617,-3.8184,-3.9258,-4.2012,-4.2695,-4.291,-4.291,-4.3535,-4.3945,-4.3945,-4.4883,-4.5508,-4.5508,-4.6308,-4.6816,-4.6816,-4.7461,-4.7207,-4.5801,-4.7793,-4.8223,-4.6816,-4.8203,-4.8906,-4.8906,-4.8906,-4.8906,-4.8887,-4.8164,-4.7851,-4.7793,-4.6933,-4.6543,-4.6543,-4.6367,-4.6308,-4.6308,-4.6308,-4.5449,-4.418,-4.4023,-4.3848,-4.3594,0.0,-1.8972,-1.8794,-1.7183,-1.6908,-1.6358,-1.475,-1.4505,-1.5444,-1.7993,-1.9256,-2.0994,-2.3784,-2.4812,-2.4423,-2.2254,-2.3317,-2.4933,-2.6909,-2.9135,-3.2295,-3.6535,-3.7555,-3.8428,-3.9295,-4.0103,-4.0519,-4.0496,-4.0496,-4.0496,-4.0496,-4.0496,-4.0496,-4.0496,-4.0496,-4.0496,-4.0496,-4.0496,-4.0496,-4.0496,-4.0496,-4.0496,-4.0496,-4.04,-3.9804,-3.8911,-3.8123,-3.7296,-3.6462,-3.5731,-3.55,-3.55,-3.55,-3.55,-3.5077,-3.2968,0.0,-3.1814,-2.7486,-2.4932,-2.4075,-2.6634,-2.8999,-3.0712,0.0,0.0,-3.7305,-3.5742,-3.7285,-3.916,-4.0039,-4.0195,-4.0312,-4.0703,-4.1367,-4.1953,-4.2344,-4.373,-4.4707,-4.4707,-4.4805,-4.4844,-4.4844,-4.6348,-4.7305,-4.7305,-4.8125,-4.8613,-4.8613,-4.8691,-4.8672,-4.8476,-4.875,-4.8808,-4.8613,-4.8808,-4.8906,-4.8906,-4.8906,-4.8906,-4.8906,-4.8808,-4.875,-4.8711,-4.7832,-4.7441,-4.7383,-4.6621,-4.6308,-4.6308,-4.6308,-4.6172,-4.5918,-4.5137,-4.4355,-4.3691,0.0,0.0,-1.864,-1.7163,-1.6908,-1.6358,-1.475,-1.4493,-1.5117,-1.6803,-1.7794,-1.9404,-2.223,-2.2862,-2.2274,-2.0219,-2.1181,-2.3235,-2.639,-2.8506,-3.1756,-3.6481,-3.7526,-3.8411,-3.9284,-4.0092,-4.0496,-4.0496,-4.0496,-4.0496,-4.0496,-4.0496,-4.0496,-4.0496,-4.0496,-4.0496,-4.0496,-4.0496,-4.0496,-4.0496,-4.0496,-4.0496,-4.0496,-4.0496,-3.9996,-3.9053,-3.7219,-3.5661,0.0,0.0,-3.368,-3.3538,-3.5038,-3.4808,-3.3833,-3.3103,-3.2218,0.0,-2.9337,-2.9195,0.0,0.0,-3.4084,-3.613,-3.6757,-3.8555,-3.9902,-3.918,-3.9902,-4.0762,-4.1133,-3.9961,-3.957,0.0,-4.0937,-4.1055,-4.3555,-4.4531,-4.5371,-4.6387,-4.5625,-4.5,-4.5,-4.6582,-4.7383,-4.6875,-4.8125,-4.8906,-4.8906,-4.9375,-4.9668,-4.9668,-5.0117,-5.0351,-5.0351,-5.0351,-5.0351,-5.0351,-5.0351,-5.0351,-5.0332,-4.9863,-4.9375,-4.8887,-4.8516,-4.8359,-4.832,-4.7969,-4.7519,-4.7051,-4.7051,-4.6758,-4.6269,-4.5898,-4.5527,-4.5137,0.0,0.0,0.0,-1.7016,-1.6673,-1.6101,-1.4714,-1.4493,-1.4759,-1.5485,-1.6519,-1.8153,-2.0683,-2.08,-2.0214,-1.9043,-1.9941,-2.2181,-2.5981,-2.8255,-3.141,-3.5815,-3.7065,-3.793,-3.8565,-3.9631,-4.0169,-4.0169,-4.04,-4.0496,-4.0496,-4.0496,-4.0496,-4.0496,-4.0496,-4.0496,-4.0496,-4.0496,-4.0496,-4.0496,-4.0496,-4.0496,-4.0477,-4.0246,-3.9381,-3.7988,-3.5892,-3.418,0.0,0.0,-3.1756,-3.2237,-3.3365,-3.3526,-3.316,-3.2699,-3.1371,-3.0213,-3.0975,0.0,0.0,-3.5632,-3.7571,-3.9312,-4.0812,-4.1149,-4.115,-4.1191,-4.1191,-4.1191,-4.1191,-3.9824,0.0,-4.1992,-4.1269,-4.1445,-4.4551,-4.5215,-4.5742,-4.6758,-4.5566,-4.4551,-4.4316,-4.6289,-4.7539,-4.7383,-4.875,-4.959,-4.959,-5.0195,-5.0527,-5.0527,-5.1094,-5.1406,-5.1406,-5.1406,-5.1406,-5.1406,-5.1406,-5.1406,-5.1387,-5.0801,-5.0195,-4.957,-4.9355,-4.9258,-4.9238,-4.9004,-4.8535,-4.7969,-4.7969,-4.7422,-4.666,-4.666,-4.6504,-4.6211,0.0,0.0,0.0,0.0,-1.6085,-1.5454,-1.4622,-1.4493,-1.455,-1.4724,-1.6172,-1.7884,-1.9658,-1.9105,-1.8644,-1.8788,-2.0313,-2.244,-2.5163,-2.85,-3.1519,-3.4167,-3.5853,-3.675,-3.6769,-3.845,-3.9342,-3.9342,-4.0112,-4.0496,-4.0496,-4.0496,-4.0496,-4.0496,-4.0496,-4.0496,-4.0496,-4.0496,-4.0496,-4.0496,-4.0496,-4.0496,-4.0419,-3.9631,-3.7796,-3.5481,-3.4564,0.0,0.0,0.0,-3.0198,-3.2449,-3.005,-3.1531,0.0,-3.2218,-3.0506,0.0,0.0,0.0,-3.0499,-3.5678,-3.6981,-3.7685,-4.0389,-4.1017,-4.103,-4.1171,-4.1191,-4.1191,-4.1191,-4.1777,-4.2285,-4.2383,-4.375,-4.4844,-4.498,-4.5723,-4.5976,-4.5176,-4.4297,-4.3418,0.0,-4.5586,-4.8281,-4.9961,-5.0859,-5.1328,-5.1328,-5.1348,-5.1367,-5.1367,-5.1387,-5.1406,-5.1406,-5.1406,-5.1406,-5.1406,-5.1406,-5.1406,-5.1406,-5.1367,-5.1348,-5.1289,-5.0508,-5.0156,-5.0098,-4.9258,-4.8887,-4.8867,-4.8867,-4.832,-4.7558,-4.7558,-4.7031,-4.6308,0.0,0.0,0.0,0.0,0.0,-1.5228,-1.4428,-1.4405,-1.4511,-1.4567,-1.6098,0.0,0.0,0.0,0.0,0.0,-1.9455,-2.0787,-2.3953,-2.6421,-2.9123,-3.221,-3.5139,-3.6692,-3.6692,-3.7834,-3.8719,-3.9304,-3.9573,-3.9977,-4.0496,-4.0496,-4.0496,-4.0496,-4.0496,-4.0496,-4.0496,-4.0496,-4.0496,-4.0458,-3.9919,-3.9708,-3.9438,-3.688,-3.5026,-3.3295,0.0,0.0,0.0,0.0,0.0,0.0,-2.9519,0.0,0.0,-2.7962,0.0,0.0,0.0,0.0,-3.4584,-3.6469,-3.8185,-3.9699,-4.0755,-4.0996,-4.1048,-4.1171,-4.0273,-3.9473,-3.9473,-3.9219,-3.957,-4.1328,-4.1601,-4.2617,-4.5469,-4.4629,-4.4687,-4.7285,-4.5801,0.0,0.0,0.0,0.0,-4.7578,-4.9961,-5.1406,-5.1406,-5.1406,-5.1406,-5.1406,-5.1406,-5.1406,-5.1406,-5.1406,-5.1406,-5.1406,-5.1406,-5.1406,-5.1406,-5.1406,-5.1406,-5.1387,-5.1113,-5.0996,-5.0976,-5.0683,-5.0234,-4.9766,-4.9766,-4.9238,-4.8398,-4.7812,-4.7402,-4.707,0.0,0.0,0.0,0.0,0.0,0.0,0.0,0.0,0.0,0.0,0.0,0.0,0.0,0.0,0.0,0.0,0.0,-2.0107,-2.2943,-2.4556,-2.6759,-2.9799,-3.2154,-3.3518,-3.3791,-3.5326,-3.6373,-3.693,-3.8116,-3.9004,-3.9604,-3.9503,-3.9503,-3.9611,-3.9611,-3.9611,-3.9604,-3.9503,-3.9635,-3.9734,-3.7975,-3.7442,-3.7299,-3.3626,-3.1314,0.0,0.0,0.0,0.0,0.0,0.0,0.0,0.0,0.0,0.0,0.0,0.0,0.0,0.0,-3.4218,-3.6939,-3.7932,-3.9419,-4.0678,-4.0887,-4.0902,-4.0959,-4.1169,-4.0228,-3.9222,-3.8668,-3.8336,-3.8804,-4.0798,-4.0937,-4.207,-4.5781,-4.5117,-4.5176,-4.7676,-4.6484,0.0,0.0,0.0,0.0,-4.7207,-4.9258,-5.0508,-5.0508,-5.0508,-5.0781,-5.1387,-5.1406,-5.1406,-5.1406,-5.1406,-5.1406,-5.1406,-5.1406,-5.1406,-5.1406,-5.1406,-5.1074,-5.0547,-5.1133,-5.1055,-5.0547,-5.1152,-5.1094,-5.0625,-5.0625,-5.0117,-4.9297,-4.873,-4.8125,-4.748,0.0,0.0,0.0,0.0,0.0,0.0,0.0,0.0,0.0,0.0,0.0,0.0,0.0,0.0,0.0,0.0,0.0,0.0,-2.2023,0.0,0.0,-2.6995,-2.7331,-2.782,-2.8586,-3.1153,-3.2515,-3.2553,-3.5651,-3.7313,-3.7582,-3.7343,-3.7332,-3.7589,-3.7589,-3.7589,-3.7574,-3.7315,-3.7641,-3.8042,-3.4698,-3.3809,-3.4056,-3.0032,0.0,0.0,0.0,0.0,0.0,0.0,0.0,0.0,0.0,0.0,0.0,0.0,0.0,-3.0531,-3.5238,-3.6692,-3.7469,-3.99,-4.0496,-4.0554,-4.0761,-4.0757,-4.0757,-4.0947,-4.0715,-4.0,0.0,0.0,-3.9636,-4.0644,-4.1598,-4.3125,-4.5781,-4.6875,-4.7129,0.0,0.0,0.0,0.0,0.0,0.0,-4.8848,0.0,-4.9023,-4.9023,-4.9023,-4.9766,-5.1348,-5.1406,-5.1406,-5.1406,-5.1406,-5.1406,-5.1406,-5.1406,-5.1406,-5.1406,-5.1406,-5.0527,-4.9121,-5.0703,-5.0508,-4.9141,-5.0742,-5.1406,-5.1406,-5.1406,-5.0937,-5.0254,-5.0215,-4.9141,-4.7598,0.0,0.0,0.0,0.0,0.0,0.0,0.0,0.0,0.0,0.0,0.0,0.0,0.0,0.0,0.0,0.0,0.0,0.0,0.0,0.0,0.0,0.0,0.0,0.0,0.0,0.0,0.0,-3.0605,-3.0852,-3.1302,-3.1955,-3.19,-3.19,-3.1974,-3.1974,-3.1974,-3.1955,-3.1892,-3.1982,-3.2042,0.0,-3.0078,-2.9929,0.0,0.0,0.0,0.0,0.0,0.0,0.0,0.0,0.0,0.0,0.0,-3.0833,0.0,0.0,-3.4641,-3.4026,-3.6642,-3.9688,-4.0342,-4.0496,-4.0537,-4.0696,-4.0707,-4.0202,-3.8427,-3.7062,-3.549,0.0,0.0,0.0,-3.7791,-3.8984,0.0,-4.3906,-4.4551,0.0,0.0,0.0,-4.873,-4.998,-5.0293,0.0,0.0,-5.0058,-5.0762,-5.0762,-5.0762,-5.0957,-5.1387,-5.1406,-5.1406,-5.1406,-5.1406,-5.1406,-5.1406,-5.1406,-5.1406,-5.1406,-5.1406,-5.1172,-5.0781,-5.1211,-5.1152,-5.0801,-5.1211,-5.1406,-5.1406,-5.1406,-5.1269,-5.1016,-5.043,-4.9922,-4.9316,0.0,0.0,0.0,0.0,0.0,0.0,0.0,0.0,0.0,0.0,0.0,0.0,0.0,0.0,0.0,0.0,0.0,0.0,0.0,0.0,0.0,0.0,0.0,0.0,0.0,0.0,0.0,0.0,0.0,0.0,-2.9327,-2.8844,-2.869,-2.8799,-2.8799,-2.8799,-2.8791,-2.8674,0.0,0.0,0.0,0.0,0.0,0.0,0.0,0.0,0.0,0.0,0.0,0.0,0.0,-3.0237,-3.3526,-3.3795,-3.3064,-3.3878,0.0,-3.6635,-3.6315,-3.8322,-4.0496,-4.0496,-4.0496,-4.0241,-3.9261,-3.8986,-3.8255,-3.5827,-3.4549,0.0,0.0,0.0,0.0,0.0,0.0,0.0,-4.3262,-4.4023,-4.4785,0.0,-4.75,0.0,-5.1191,-5.1406,-5.1016,0.0,-5.0195,-5.0293,-5.0293,-5.0293,-5.0644,-5.1387,-5.1406,-5.1406,-5.1406,-5.1406,-5.1406,-5.1406,-5.1406,-5.1406,-5.1406,-5.1406,-5.0996,-5.0332,0.0,-5.0976,-5.0351,-5.1094,-5.1406,-5.1406,-5.1406,-5.1406,-5.1348,-5.0898,-5.0467,-4.9973,0.0,0.0,0.0,0.0,0.0,0.0,0.0,0.0,0.0,0.0,-1.5562,-1.676,0.0,0.0,0.0,0.0,0.0,0.0,0.0,0.0,0.0,0.0,0.0,0.0,0.0,0.0,0.0,0.0,0.0,0.0,0.0,0.0,0.0,0.0,0.0,0.0,0.0,0.0,0.0,0.0,0.0,0.0,0.0,0.0,0.0,0.0,0.0,0.0,0.0,0.0,-3.1084,-3.1635,-3.5865,-3.5699,-3.4699,-3.8803,-3.8661,-3.7603,-3.9496,-4.0246,-4.0496,-4.0496,-4.0496,-3.9945,-3.787,-3.7032,-3.6023,-3.3656,0.0,0.0,-3.0746,0.0,-3.3802,-3.669,0.0,-4.046,-4.2672,-4.414,-4.5214,-4.5837,-4.6893,-4.8573,-5.1132,-5.115,-5.1111,-5.1366,-5.0038,-4.9218,-4.9238,-4.9238,-4.9902,-5.1348,-5.1406,-5.1406,-5.1406,-5.1406,-5.1406,-5.1406,-5.1406,-5.1406,-5.1406,-5.1406,-5.0605,-4.9316,0.0,0.0,-4.9336,-5.0801,-5.1406,-5.1406,-5.1406,-5.1386,-5.1366,-5.1366,-5.0845,-5.0143,0.0,0.0,0.0,0.0,0.0,0.0,0.0,0.0,0.0,0.0,-1.4476,-1.5987,0.0,0.0,0.0,0.0,0.0,0.0,0.0,0.0,0.0,0.0,0.0,0.0,0.0,0.0,0.0,0.0,0.0,0.0,0.0,0.0,0.0,0.0,0.0,0.0,0.0,0.0,0.0,0.0,0.0,0.0,0.0,0.0,0.0,0.0,0.0,0.0,0.0,0.0,-3.1801,-3.4282,-3.8515,-3.9534,-3.8938,-3.7719,-3.8546,-3.9477,-3.7815,-3.8892,-4.0496,-4.0496,-4.0496,-4.0389,-3.9964,-3.8229,0.0,0.0,0.0,-2.9766,-2.95,-3.0905,0.0,-3.6495,0.0,0.0,0.0,0.0,-4.4672,0.0,0.0,0.0,0.0,0.0,0.0,0.0,0.0,0.0,-5.0957,-5.0976,-5.1094,-5.1387,-5.1406,-5.1406,-5.1406,-5.1406,-5.1406,-5.1406,-5.1406,-5.1406,-5.1406,-5.1406,-5.123,-5.0976,0.0,0.0,-5.0996,-5.1289,-5.1406,-5.1406,-5.1406,-5.1323,-5.1236,-5.1236,-5.1096,-5.0815,0.0,0.0,0.0,0.0,0.0,0.0,0.0,-1.261,-1.2555,-1.1488,-1.2176,-1.3627,-1.5918,-1.7328,-1.8427,0.0,0.0,0.0,0.0,0.0,0.0,0.0,0.0,0.0,0.0,0.0,0.0,0.0,0.0,0.0,0.0,0.0,0.0,0.0,0.0,0.0,0.0,0.0,0.0,0.0,0.0,0.0,0.0,0.0,0.0,0.0,0.0,0.0,0.0,0.0,-3.0218,-3.3094,-3.8731,-4.0496,-3.9996,-3.745,-3.8507,-3.9938,-3.7392,-3.8565,-4.0496,-4.0496,-4.0496,-3.9804,-3.7149,0.0,0.0,0.0,0.0,-2.7184,-2.7221,0.0,0.0,0.0,0.0,0.0,0.0,0.0,0.0,0.0,0.0,0.0,0.0,0.0,0.0,0.0,0.0,0.0,-5.1235,-5.1366,-5.1406,-5.1406,-5.1406,-5.1406,-5.1406,-5.1406,-5.1406,-5.1406,-5.1406,-5.1406,-5.1406,-5.1406,-5.1406,-5.1406,0.0,0.0,-5.0176,-5.1035,-5.0898,-5.0195,-5.1055,-5.132,-5.1204,-5.1204,-5.1117,-5.0951,0.0,0.0,0.0,0.0,0.0,0.0,-1.1577,-1.1756,-1.155,-1.0175,-1.018,-1.147,-1.4542,-1.6338,-1.7829,0.0,0.0,0.0,0.0,0.0,0.0,0.0,0.0,0.0,0.0,0.0,0.0,0.0,0.0,0.0,0.0,0.0,0.0,0.0,0.0,0.0,0.0,0.0,0.0,0.0,0.0,0.0,0.0,0.0,0.0,0.0,0.0,0.0,0.0,0.0,-2.7937,-3.0476,-3.6652,-3.8861,-3.8823,-3.718,-3.8123,-3.9373,-3.7911,-3.8969,-4.0496,-4.0496,-4.0496,-3.9304,-3.4757,-3.3295,0.0,0.0,-2.5673,-2.5471,-2.6082,0.0,0.0,0.0,0.0,0.0,0.0,0.0,0.0,0.0,0.0,0.0,0.0,0.0,0.0,0.0,0.0,0.0,0.0,-5.1285,-5.1339,-5.1339,-5.1339,-5.1339,-5.1339,-5.1339,-5.1339,-5.1339,-5.1339,-5.1339,-5.1339,-5.1339,-5.1339,-5.1339,0.0,0.0,0.0,-5.0636,-5.0343,-4.8977,-5.0675,-5.1256,-5.1131,-5.1131,-5.1019,-5.0871,0.0,0.0,0.0,0.0,0.0,0.0,-1.2314,-1.162,-1.0686,-0.9225,-0.9772,-1.0953,-1.2685,-1.3995,-1.5903,0.0,0.0,0.0,0.0,0.0,0.0,0.0,0.0,0.0,0.0,0.0,0.0,0.0,0.0,0.0,0.0,0.0,0.0,0.0,0.0,0.0,0.0,0.0,0.0,0.0,0.0,0.0,0.0,0.0,0.0,0.0,0.0,0.0,0.0,0.0,0.0,-2.7427,-3.1296,-3.3545,-3.5033,-3.6315,0.0,0.0,-3.9592,-4.0323,-4.0496,-4.0496,-4.0496,-3.9765,-3.6988,0.0,0.0,0.0,-2.6909,-2.6005,-2.8329,-2.8882,-3.0402,0.0,0.0,0.0,0.0,0.0,0.0,0.0,0.0,0.0,0.0,0.0,0.0,0.0,0.0,0.0,0.0,-5.1122,-5.1126,-5.1126,-5.1126,-5.1126,-5.1126,-5.1126,-5.1126,-5.1126,-5.1126,-5.1126,-5.1126,-5.1126,-5.1126,-5.1126,0.0,0.0,0.0,-5.041,-5.0103,-4.8709,-5.0449,-5.1047,-5.0919,-5.0919,-5.0844,-5.0731,0.0,0.0,0.0,0.0,0.0,0.0,-1.1756,-1.1722,-1.112,-0.9151,-0.9219,-1.0024,-1.1528,-1.2677,-1.4795,-1.844,-1.8834,0.0,0.0,0.0,0.0,0.0,0.0,0.0,0.0,0.0,0.0,0.0,0.0,0.0,0.0,0.0,0.0,0.0,0.0,0.0,0.0,0.0,0.0,0.0,0.0,0.0,0.0,0.0,0.0,0.0,0.0,0.0,0.0,0.0,0.0,0.0,-2.6434,-2.8108,0.0,0.0,-3.4295,-3.6577,-3.6065,-3.8169,-4.0496,-4.0496,-4.0496,-3.9438,-3.5334,0.0,0.0,-2.7659,-2.6423,-2.6231,-2.6717,-2.7659,-2.9107,-3.1295,0.0,0.0,0.0,0.0,0.0,0.0,0.0,0.0,0.0,0.0,0.0,0.0,0.0,0.0,0.0,-5.1016,-5.1089,-5.1089,-5.1089,-5.1089,-5.1089,-5.1089,-5.1089,-5.1089,-5.1089,-5.1089,-5.1089,-5.1089,-5.1089,-5.1089,0.0,0.0,0.0,-4.9946,-4.9479,-4.727,-5.0024,-5.1022,-5.0908,-5.0908,-5.0814,-5.0712,0.0,0.0,0.0,0.0,0.0,-1.2956,-1.1654,-1.1722,-1.1204,-0.9168,-0.9287,-0.9941,-1.0984,-1.2523,-1.4716,-1.7776,-1.8377,0.0,0.0,0.0,0.0,0.0,0.0,0.0,0.0,0.0,-2.2088,-2.2648,-2.3694,0.0,0.0,0.0,0.0,0.0,0.0,0.0,0.0,0.0,0.0,0.0,0.0,0.0,0.0,0.0,0.0,0.0,0.0,0.0,0.0,0.0,0.0,0.0,0.0,0.0,0.0,0.0,-3.216,-3.5353,-3.4314,-3.718,-4.0496,-4.0496,-3.9938,-3.8238,0.0,0.0,-3.0621,-2.6538,-2.6173,-2.6486,-2.6135,-2.7063,-2.8261,-2.9313,0.0,-3.443,0.0,0.0,0.0,0.0,0.0,0.0,0.0,0.0,0.0,0.0,0.0,0.0,0.0,0.0,-5.0979,-5.0979,-5.0979,-5.0979,-5.0979,-5.0979,-5.0979,-5.0979,-5.0979,-5.0707,-5.0228,-5.0746,-5.0707,0.0,0.0,0.0,0.0,-4.9756,-4.9252,-4.6903,-4.9834,-5.0925,-5.0835,-5.0835,-5.0782,-5.0712,0.0,0.0,0.0,0.0,0.0,-1.3159,-1.2398,-1.162,-1.0578,-0.91,-1.0172,-1.1079,-1.1103,-1.3777,-1.5876,-1.6648,-1.7857,0.0,0.0,0.0,0.0,0.0,0.0,0.0,0.0,0.0,-2.1794,-2.1812,-2.3428,-2.419,-2.419,-2.419,-2.419,0.0,0.0,0.0,0.0,0.0,-2.419,0.0,0.0,0.0,0.0,0.0,0.0,0.0,0.0,0.0,0.0,0.0,0.0,0.0,0.0,0.0,0.0,0.0,-3.091,-3.3487,-3.5981,-3.8546,-4.0496,-4.0496,-3.8604,-3.6058,0.0,0.0,-2.8646,-2.6948,-2.6601,-2.6851,-2.7722,-2.7895,-2.8448,-3.0115,-3.2526,0.0,0.0,0.0,0.0,0.0,0.0,0.0,0.0,0.0,0.0,0.0,0.0,0.0,0.0,0.0,-5.0702,-5.0702,-5.0702,-5.0702,-5.0702,-5.0702,-5.0702,-5.0702,-5.0702,-4.9808,-4.8192,-4.9923,0.0,0.0,0.0,0.0,0.0,-4.9981,-4.9673,-4.8249,-5.0019,-5.0693,-5.0693,-5.0693,-5.0693,-5.0712,0.0,0.0,0.0,0.0,0.0,0.0,-1.3083,-1.2837,-1.2322,-1.1357,-1.2068,-1.2474,-1.1975,-1.4124,-1.568,-1.5927,-1.7236,0.0,0.0,0.0,0.0,0.0,0.0,0.0,0.0,-2.1114,-2.1794,-2.1794,-2.2868,-2.3373,-2.3373,-2.3373,-2.3676,-2.419,-2.419,-2.419,0.0,-2.419,-2.419,0.0,0.0,0.0,0.0,0.0,0.0,0.0,0.0,0.0,0.0,0.0,0.0,0.0,0.0,0.0,0.0,-2.6014,-2.8207,0.0,-3.1295,-3.3372,-3.5315,-3.5315,-3.4699,-3.3449,-3.0871,0.0,-2.8626,-2.6948,-2.7063,-2.7563,-2.7857,-2.8832,-2.9769,-3.0308,-3.2545,0.0,0.0,0.0,0.0,0.0,0.0,0.0,0.0,0.0,0.0,0.0,0.0,0.0,0.0,0.0,-5.0712,-5.0712,-5.0712,-5.0712,-5.0712,-5.0712,-5.0712,-5.0712,-5.0712,-4.9779,-4.8163,-4.9913,0.0,0.0,0.0,0.0,0.0,-4.9971,-4.9663,-4.8279,-5.001,-5.0712,-5.0712,-5.0712,-5.0712,-5.0712,0.0,0.0,0.0,0.0,0.0,0.0,-1.3396,-1.3396,-1.3142,-1.2398,-1.3439,-1.3845,-1.2829,-1.4936,-1.6323,-1.6045,-1.7117,0.0,0.0,0.0,0.0,0.0,0.0,0.0,-2.0174,-2.125,-2.1794,-2.1794,-2.2611,-2.2841,-2.2556,-2.2556,-2.2978,-2.3749,-2.3749,-2.3914,0.0,-2.419,-2.419,-2.419,0.0,0.0,-2.4171,0.0,0.0,0.0,0.0,0.0,0.0,0.0,0.0,0.0,0.0,0.0,0.0,0.0,-2.6072,-2.7726,0.0,-3.0948,-3.2891,-3.2891,-3.2179,0.0,0.0,0.0,-2.7467,-2.6755,-2.7794,-2.8736,-2.8415,-2.9987,-3.0923,-2.9654,-3.2929,0.0,0.0,0.0,0.0,0.0,0.0,0.0,0.0,0.0,0.0,0.0,0.0,0.0,0.0,0.0,-5.0712,-5.0712,-5.0712,-5.0712,-5.0712,-5.0712,-5.0712,-5.0712,-5.0712,-4.9779,-4.8163,0.0,0.0,0.0,0.0,0.0,0.0,-5.025,-5.0048,-4.9183,-5.0289,-5.0712,-5.0712,-5.0712,-5.0712,-5.0712,0.0,0.0,0.0,0.0,0.0,0.0,0.0,-1.3396,-1.3168,-1.2534,-1.4293,-1.5097,-1.3786,-1.6136,-1.7523,-1.6841,-1.7405,0.0,0.0,0.0,0.0,0.0,0.0,0.0,-2.0228,-2.126,-2.1777,-2.1794,-2.2501,-2.2446,-2.1702,-2.1702,-2.2134,-2.2914,-2.2969,-2.3456,-2.419,-2.419,-2.419,-2.419,-2.419,-2.4171,0.0,0.0,0.0,0.0,0.0,0.0,0.0,0.0,0.0,0.0,0.0,0.0,0.0,0.0,0.0,0.0,0.0,-3.0527,-3.234,-3.2327,-3.0546,-2.8802,0.0,0.0,0.0,-2.6624,-2.8744,-3.0192,-2.9511,-3.141,-3.2006,-2.8703,-3.3699,0.0,0.0,0.0,0.0,0.0,0.0,0.0,0.0,0.0,0.0,0.0,0.0,0.0,0.0,0.0,0.0,-5.0712,-5.0712,-5.0712,-5.0712,-5.0712,-5.0635,-5.0519,-5.0635,-4.9721,-4.799,0.0,0.0,0.0,0.0,0.0,0.0,-5.0712,-5.0712,-5.0712,-5.0712,-5.0712,-5.0712,-5.0712,-5.0712,-5.0712,0.0,0.0,0.0,0.0,0.0,0.0,0.0,0.0,0.0,0.0,-1.4936,-1.569,-1.5903,-1.705,-1.7732,0.0,0.0,0.0,0.0,0.0,0.0,0.0,0.0,0.0,-2.0797,-2.1209,-2.1543,-2.1794,-2.1327,-2.0988,-2.0804,-2.0804,-2.1272,-2.2106,-2.274,-2.3456,-2.419,-2.419,-2.419,-2.419,-2.419,-2.3823,0.0,0.0,0.0,0.0,-2.1629,-2.1235,0.0,0.0,0.0,0.0,0.0,0.0,0.0,0.0,-2.4639,-2.4958,-2.5624,0.0,-2.6823,-2.6737,-2.6339,-2.5938,0.0,0.0,0.0,0.0,0.0,0.0,0.0,-3.3583,-3.3981,-3.1256,0.0,0.0,0.0,0.0,0.0,0.0,0.0,0.0,0.0,0.0,0.0,0.0,0.0,0.0,0.0,0.0,0.0,-5.0712,-5.0712,-5.0712,-5.0712,-5.0712,-5.0029,-4.8721,-5.0048,-4.9115,-4.6287,0.0,0.0,0.0,0.0,0.0,-5.0712,-5.0712,-5.0712,-5.0712,-5.0712,-5.0712,-5.0712,-5.0712,-5.0712,-5.0712,0.0,0.0,0.0,0.0,0.0,0.0,0.0,0.0,0.0,0.0,-1.5138,-1.5876,-1.6631,-1.7354,-1.78,0.0,0.0,0.0,0.0,0.0,0.0,0.0,0.0,-1.966,-2.0428,-2.0886,-2.1041,-2.087,-2.0409,-2.0046,-1.9814,-1.9814,-2.031,-2.1253,-2.2456,-2.3456,-2.419,-2.419,-2.419,-2.419,-2.419,0.0,0.0,0.0,0.0,0.0,-2.0619,-2.0362,0.0,-2.0382,-2.1373,-2.2446,0.0,0.0,0.0,0.0,-2.4435,-2.451,-2.451,-2.4719,-2.5162,-2.6178,-2.5667,-2.5181,-2.6216,0.0,0.0,0.0,0.0,0.0,0.0,0.0,0.0,0.0,0.0,0.0,0.0,0.0,0.0,0.0,0.0,0.0,0.0,0.0,0.0,0.0,0.0,0.0,0.0,0.0,0.0,0.0,-5.0712,-5.0712,-5.0712,-5.0712,-4.9817,-4.8125,-4.9875,-4.9307,-4.6836,0.0,0.0,0.0,0.0,0.0,-5.0635,-4.9837,-4.9971,-5.0712,-5.0712,-5.0712,-5.0712,-5.0712,-5.0712,-5.0712,0.0,0.0,0.0,0.0,0.0,0.0,0.0,0.0,0.0,0.0,0.0,0.0,0.0,0.0,0.0,0.0,0.0,0.0,0.0,0.0,0.0,0.0,-1.8912,-1.9497,-2.006,-2.0456,-2.0445,-2.0032,-1.9783,-1.9469,-1.9043,-1.9043,-1.957,-2.0566,-2.2125,-2.3272,-2.4025,-2.4153,-2.4135,-2.4025,-2.4025,0.0,0.0,0.0,0.0,0.0,0.0,0.0,0.0,-2.0272,-2.1161,-2.2106,-2.2786,0.0,0.0,0.0,0.0,0.0,-2.419,-2.4537,-2.5445,-2.7751,-2.6526,-2.5397,-2.7795,0.0,0.0,0.0,0.0,0.0,0.0,0.0,0.0,0.0,0.0,0.0,0.0,0.0,0.0,0.0,0.0,0.0,0.0,0.0,0.0,0.0,0.0,0.0,0.0,0.0,0.0,0.0,-5.0712,-5.0712,-5.0712,-5.0712,-4.9817,-4.8125,-4.9875,-4.9779,-4.8163,-4.9913,0.0,0.0,0.0,0.0,-5.0596,-4.9106,-4.9375,-5.0712,-5.0712,-5.0712,-5.0712,-5.0712,-5.0712,-5.0712,0.0,0.0,0.0,0.0,0.0,0.0,0.0,0.0,0.0,0.0,0.0,0.0,0.0,0.0,0.0,0.0,0.0,0.0,0.0,0.0,0.0,-1.8761,-1.8897,-1.9709,-2.1289,-2.0164,-2.0055,-2.1071,-1.9768,-1.9169,-1.9243,-1.9243,-1.9698,-2.0548,-2.1547,-2.2428,-2.3226,-2.3914,-2.3804,-2.3171,-2.3171,0.0,0.0,0.0,0.0,0.0,0.0,0.0,0.0,-2.0456,-2.1538,-2.2841,-2.2951,0.0,0.0,0.0,0.0,0.0,-2.419,-2.4735,-2.5714,-2.7464,-2.6209,-2.5179,-2.7606,0.0,0.0,0.0,0.0,0.0,0.0,0.0,0.0,0.0,0.0,0.0,0.0,0.0,0.0,0.0,0.0,0.0,0.0,0.0,0.0,0.0,0.0,0.0,0.0,0.0,0.0,0.0,0.0,-5.0712,-5.0712,-5.0712,-4.9817,-4.8125,-4.9875,-4.9779,-4.8163,-4.9913,-5.0712,0.0,0.0,-5.0462,-5.0673,-5.0423,-5.0462,-5.0712,-5.0712,-5.0712,-5.0712,-5.0712,-5.0712,-5.0712,0.0,0.0,0.0,0.0,0.0,0.0,0.0,0.0,0.0,0.0,0.0,0.0,0.0,0.0,0.0,0.0,0.0,0.0,0.0,0.0,-1.8132,-1.8872,-1.8894,-1.9282,-2.012,-1.9839,-1.9659,-1.9618,-1.8486,-1.8351,-1.9142,-1.9243,-1.973,-2.0529,-2.0914,-2.1822,-2.3024,-2.3391,-2.3336,-2.3006,0.0,0.0,0.0,0.0,0.0,0.0,0.0,0.0,0.0,0.0,-2.2364,-2.3079,-2.3511,0.0,0.0,0.0,0.0,0.0,-2.419,-2.4475,-2.5558,-2.8918,-2.7672,-2.6732,-3.0872,0.0,0.0,0.0,0.0,0.0,0.0,0.0,0.0,0.0,0.0,0.0,0.0,0.0,0.0,0.0,0.0,0.0,0.0,0.0,0.0,0.0,0.0,0.0,0.0,0.0,0.0,0.0,0.0,0.0,-5.0712,-5.0712,-4.9817,-4.8125,-4.9875,-4.9779,-4.8163,-4.9913,-5.0712,0.0,0.0,-4.9817,-5.0635,-4.9683,-4.9856,-5.0712,-5.0712,-5.0712,-5.0712,-5.0712,-5.0712,-5.0712,0.0,0.0,0.0,0.0,0.0,0.0,0.0,0.0,0.0,0.0,0.0,0.0,0.0,0.0,0.0,0.0,0.0,0.0,0.0,-1.7952,-1.8403,-1.913,-1.9164,-1.9164,-1.9164,-1.9541,-1.9244,-1.8198,-1.7416,-1.7608,-1.8721,-1.9075,-1.9573,-2.0236,-2.0419,-2.1336,-2.2731,-2.2914,-2.2896,-2.2721,0.0,0.0,0.0,0.0,0.0,0.0,0.0,0.0,0.0,0.0,0.0,0.0,0.0,0.0,0.0,-2.419,-2.419,-2.419,-2.419,-2.4337,-2.5466,-2.9542,-2.8282,-2.7633,-3.3676,-3.069,0.0,0.0,0.0,0.0,0.0,0.0,0.0,0.0,0.0,0.0,0.0,0.0,0.0,0.0,0.0,0.0,0.0,0.0,0.0,0.0,0.0,0.0,0.0,0.0,0.0,0.0,0.0,0.0,-5.0712,-5.0712,-5.0029,-4.8721,-5.0048,-4.999,-4.8759,-5.0087,-5.0712,-5.0635,-4.9298,-4.9471,-5.0596,-4.926,-4.949,-5.0712,-5.0712,-5.0712,-5.0712,-5.0712,-5.0712,-5.0712,0.0,0.0,0.0,0.0,0.0,0.0,0.0,0.0,0.0,0.0,0.0,0.0,0.0,0.0,0.0,0.0,0.0,0.0,0.0,-1.8437,-1.9147,-1.9883,-1.9917,-1.9917,-1.9917,-1.9287,-1.8722,-1.8198,-1.7465,-1.7364,-1.7902,-1.8665,-1.9153,-1.9426,-2.0162,-2.1015,-2.1941,-2.2685,-2.2575,-2.1886,-2.1886,0.0,0.0,0.0,0.0,0.0,0.0,0.0,0.0,0.0,0.0,0.0,0.0,0.0,-2.419,-2.419,-2.419,-2.419,-2.419,-2.475,-2.576,-2.7596,-2.619,-2.6289,-3.3611,-3.0368,0.0,-3.4421,0.0,0.0,0.0,0.0,0.0,0.0,0.0,0.0,0.0,0.0,0.0,0.0,0.0,0.0,0.0,0.0,0.0,0.0,0.0,0.0,0.0,0.0,0.0,0.0,0.0,0.0,-5.0712,-5.0712,-5.0635,-5.0519,-5.0635,-5.0635,-5.0519,-5.0635,-5.0712,-5.0693,-5.0577,-5.0577,-5.0693,-5.0558,-5.0596,-5.0712,-5.0712,-5.0712,-5.0712,-5.0712,-5.0712,-5.0712,0.0,0.0,0.0,0.0,0.0,0.0,0.0,0.0,0.0,0.0,0.0,-1.78,-1.78,0.0,0.0,0.0,0.0,0.0,0.0,-1.8741,-1.9232,-1.9968,-2.0471,-2.0297,-1.935,-1.8577,-1.7989,-1.7517,-1.7524,-1.7949,-1.8747,-1.9034,-1.9486,-2.0052,-2.0364,-2.1263,-2.2593,-2.34,-2.3566,-2.33,-2.33,-2.251,0.0,0.0,0.0,0.0,0.0,0.0,0.0,0.0,-2.3951,-2.419,-2.419,-2.419,-2.419,-2.419,-2.419,-2.419,-2.419,-2.4787,-2.6146,-2.9267,-2.7842,0.0,0.0,-3.1685,-3.0417,-3.72,-3.5941,0.0,0.0,0.0,0.0,0.0,0.0,0.0,0.0,0.0,0.0,0.0,0.0,0.0,0.0,0.0,0.0,0.0,0.0,0.0,0.0,0.0,0.0,0.0,0.0,0.0,0.0,-5.0712,-5.0712,-5.0712,-5.0712,-5.0712,-5.0712,-5.0712,-5.0712,-5.0712,-5.0712,-5.0712,-5.0712,-5.0712,-5.0554,-5.0294,-5.0056,-5.0123,-5.0302,-5.0043,-5.0272,-5.0663,0.0,0.0,0.0,0.0,0.0,0.0,0.0,0.0,-1.78,0.0,0.0,0.0,0.0,-1.78,0.0,0.0,0.0,0.0,-1.8872,-1.9362,-1.9841,-2.0352,-2.0919,-2.0699,-1.965,-1.8437,-1.7563,-1.7103,-1.7754,-1.8336,-1.8854,-1.9862,-2.0398,-2.0521,-2.1318,-2.2309,-2.341,-2.3969,-2.419,-2.4171,-2.3914,-2.3162,0.0,0.0,0.0,0.0,0.0,0.0,0.0,0.0,-2.419,-2.419,-2.419,-2.419,-2.419,-2.419,-2.4373,-2.4585,-2.4585,-2.497,-2.6237,-2.9751,0.0,0.0,-3.3665,-3.2711,-3.2249,-3.8192,0.0,0.0,0.0,0.0,0.0,0.0,0.0,0.0,0.0,0.0,0.0,0.0,0.0,0.0,0.0,0.0,0.0,0.0,0.0,0.0,0.0,0.0,0.0,0.0,0.0,0.0,0.0,-5.0565,-5.0504,-5.0504,-5.0369,-5.0442,-5.0712,-5.0712,-5.0712,-5.0712,-5.0712,-5.0712,-5.0683,-5.0554,-5.0272,-4.9866,-4.9622,-4.9678,-4.9885,-4.9589,-4.984,-5.0272,0.0,0.0,0.0,0.0,0.0,0.0,0.0,0.0,-1.78,-1.78,-1.78,0.0,0.0,0.0,0.0,0.0,0.0,0.0,-1.891,-2.0344,-2.119,-2.1207,-2.1207,-2.1207,-2.119,-1.8978,-1.7591,-1.7103,-1.8168,-1.8395,-1.791,-2.1096,-2.1871,-2.0639,-2.3125,-2.4226,-2.4226,-2.4245,-2.4245,-2.4153,-2.3354,-2.3024,-2.3006,0.0,0.0,0.0,0.0,0.0,0.0,0.0,-2.419,-2.419,-2.419,-2.419,-2.419,-2.4226,-2.4787,-2.5393,-2.5411,-2.5411,-2.5999,0.0,0.0,0.0,-3.3518,-3.3128,-3.259,-3.6684,0.0,0.0,0.0,0.0,0.0,0.0,0.0,0.0,0.0,0.0,0.0,0.0,0.0,0.0,0.0,0.0,0.0,0.0,0.0,0.0,0.0,0.0,0.0,0.0,0.0,0.0,0.0,-5.0283,-5.0092,-5.008,-4.9692,-4.9924,-5.0683,-5.0683,-5.0683,-5.0683,-5.0683,-5.0683,-5.0663,-5.026,-4.984,-4.9489,-4.9489,-4.9489,-4.9489,-4.9489,-4.9489,-4.9489,0.0,0.0,0.0,0.0,0.0,0.0,0.0,0.0,-1.78,-1.78,-1.78,0.0,0.0,0.0,0.0,0.0,0.0,0.0,-2.0446,-2.0953,-2.1427,-2.1955,-2.1972,-2.1735,-2.1207,-1.9657,-1.828,-1.7103,-1.7612,-1.8717,-2.0364,-2.1507,-2.2429,-2.3217,-2.564,-2.641,-2.597,-2.7097,-2.6914,-2.5823,-2.4997,-2.4355,-2.3841,0.0,0.0,0.0,0.0,0.0,0.0,0.0,0.0,0.0,-2.419,-2.419,-2.452,-2.6227,-2.5705,-2.4934,-2.6641,-2.6667,0.0,0.0,0.0,0.0,0.0,-3.3201,0.0,0.0,0.0,0.0,0.0,0.0,0.0,0.0,0.0,0.0,0.0,0.0,0.0,0.0,0.0,0.0,0.0,0.0,0.0,0.0,0.0,0.0,0.0,0.0,0.0,0.0,0.0,0.0,0.0,0.0,-4.9678,-4.9678,-4.9547,-4.9617,-4.9872,-4.9872,-4.9872,-4.9872,-4.9872,-4.9872,-4.9813,-4.9431,-4.9187,-4.9043,-4.878,-4.883,-4.9043,-4.8763,-4.9013,-4.946,0.0,0.0,0.0,0.0,0.0,0.0,-1.78,-1.78,-1.78,-1.78,-1.78,-1.78,0.0,0.0,0.0,-1.886,-1.9464,0.0,-2.114,-2.1478,-2.1837,-2.2279,-2.2296,-2.1955,-2.1207,-2.0133,-1.9133,-1.8246,-1.8797,-1.9912,-2.1571,-2.2713,-2.3575,-2.4281,-2.6392,-2.7053,-2.6638,-2.7291,-2.7383,-2.6943,-2.5503,-2.4824,-2.464,0.0,0.0,0.0,0.0,0.0,0.0,0.0,0.0,0.0,-2.419,-2.485,-2.5786,-2.6605,-2.6722,-2.6906,-2.8356,-2.8393,0.0,0.0,0.0,0.0,0.0,0.0,0.0,0.0,0.0,0.0,0.0,0.0,0.0,0.0,0.0,0.0,0.0,0.0,0.0,0.0,0.0,0.0,0.0,0.0,0.0,0.0,0.0,0.0,0.0,0.0,0.0,0.0,0.0,0.0,0.0,0.0,0.0,-4.9265,-4.911,-4.9029,-4.9029,-4.9356,-4.9489,-4.9489,-4.9489,-4.9401,-4.9249,-4.8994,-4.8813,-4.8639,-4.8383,-4.8458,-4.8621,-4.8402,-4.8604,-4.8924,0.0,0.0,-1.78,-1.78,0.0,0.0,-1.78,-1.78,-1.78,-1.78,-1.785,-1.7901,0.0,0.0,0.0,-1.9096,-2.0395,-2.1224,-2.1292,-2.1921,-2.2296,-2.2296,-2.2296,-2.1989,-2.1309,-2.0454,-2.0031,-2.0137,-2.087,-2.1469,-2.1989,-2.4289,-2.5061,-2.4593,-2.63,-2.6924,-2.6667,-2.6017,-2.6458,-2.7394,-2.5107,-2.464,-2.5209,-2.4493,0.0,0.0,0.0,0.0,0.0,0.0,0.0,0.0,-2.419,-2.5713,-2.7229,-2.598,-2.7688,-3.0026,-3.0246,0.0,0.0,0.0,0.0,0.0,0.0,0.0,0.0,0.0,0.0,0.0,0.0,0.0,0.0,0.0,0.0,0.0,0.0,0.0,0.0,0.0,0.0,0.0,0.0,0.0,0.0,0.0,0.0,0.0,0.0,0.0,0.0,0.0,0.0,0.0,0.0,0.0,0.0,0.0,-4.8458,-4.8306,-4.8307,-4.9062,-4.9386,-4.9386,-4.9386,-4.9187,-4.8864,-4.8864,-4.8621,-4.8306,-4.8306,-4.8306,-4.8306,-4.8306,-4.8251,-4.8104,0.0,0.0,-1.78,-1.78,0.0,0.0,-1.78,-1.78,-1.78,-1.78,-1.8302,-1.8657,-1.8657,-1.9321,0.0,-2.0649,-2.1004,-2.1461,-2.204,-2.2212,-2.2296,-2.2296,-2.2296,-2.2243,-2.2073,-2.0707,-2.0399,-2.1171,-2.0228,-2.0869,-2.3005,-2.4371,-2.5732,-2.7108,-2.9377,-2.9322,-2.7567,-2.8033,-2.7328,-2.5815,-2.4658,-2.43,-2.4438,-2.4263,-2.419,0.0,0.0,0.0,0.0,0.0,0.0,0.0,-2.419,-2.4557,-2.5273,-2.6825,-2.778,-2.8723,-3.0632,-3.0687,0.0,0.0,0.0,0.0,0.0,0.0,0.0,0.0,0.0,0.0,0.0,0.0,0.0,0.0,0.0,0.0,0.0,0.0,0.0,0.0,0.0,0.0,0.0,0.0,0.0,0.0,0.0,0.0,0.0,0.0,0.0,0.0,0.0,0.0,-4.8568,-4.8477,-4.8421,0.0,-4.8326,-4.8306,-4.8306,-4.8477,-4.8568,-4.8568,-4.8568,-4.8513,-4.8421,-4.8421,-4.8383,-4.8306,-4.8306,-4.8306,-4.8306,-4.8306,-4.7901,-4.7333,0.0,0.0,0.0,0.0,0.0,0.0,0.0,0.0,-1.8729,-1.8358,-1.8966,-1.9423,-1.9423,-2.0099,0.0,0.0,-2.1515,-2.1887,-2.2262,-2.2296,-2.2296,-2.2296,-2.2296,-2.2296,-2.2296,-2.1502,-2.1362,-2.1883,-2.1234,-2.2002,-2.4084,-2.5201,-2.6465,-2.7824,-2.8312,-2.8037,-2.72,-2.6851,-2.6429,-2.586,-2.4685,-2.4428,-2.4732,-2.4337,-2.419,-2.419,-2.419,0.0,0.0,0.0,0.0,0.0,0.0,0.0,-2.6007,-2.6513,-2.7475,-2.8741,0.0,0.0,0.0,0.0,0.0,0.0,0.0,0.0,0.0,0.0,0.0,0.0,0.0,0.0,0.0,0.0,0.0,0.0,0.0,0.0,0.0,0.0,0.0,0.0,0.0,0.0,0.0,0.0,0.0,0.0,0.0,0.0,0.0,0.0,0.0,0.0,-4.8306,-4.8306,-4.8306,-4.8306,-4.8306,-4.8306,-4.8306,-4.8306,-4.8306,-4.8306,-4.8306,-4.8306,-4.8306,-4.8306,-4.8306,-4.8306,-4.8306,-4.8067,-4.7718,-4.7718,-4.7204,-4.6471,0.0,0.0,0.0,0.0,0.0,0.0,0.0,0.0,0.0,-1.9164,-1.9744,-2.0217,-2.0217,-2.0906,-2.1393,0.0,0.0,0.0,-2.2296,-2.2296,-2.2296,-2.2296,-2.2296,-2.2347,-2.2496,-2.2364,-2.2415,-2.2682,-2.2835,-2.3804,-2.5506,-2.6401,-2.7337,-2.8235,-2.6754,-2.6292,-2.6492,-2.5034,-2.5107,-2.608,-2.474,-2.4603,-2.5117,-2.4447,-2.419,-2.419,-2.419,-2.419,-2.419,-2.419,0.0,0.0,0.0,0.0,-2.6739,-2.5406,-2.6739,-2.8778,0.0,0.0,0.0,0.0,0.0,0.0,0.0,0.0,0.0,0.0,0.0,0.0,0.0,0.0,0.0,0.0,0.0,0.0,0.0,0.0,0.0,0.0,0.0,0.0,0.0,0.0,0.0,0.0,0.0,0.0,0.0,0.0,0.0,0.0,0.0,-4.8306,-4.8306,-4.8306,-4.8306,-4.8306,-4.8159,-4.8031,-4.7884,-4.7884,-4.8049,-4.8306,-4.8306,-4.8233,-4.8104,-4.8104,-4.8012,-4.7884,-4.7884,-4.748,-4.6892,-4.6892,-4.6379,-4.5608,0.0,0.0,0.0,0.0,0.0,0.0,0.0,0.0,0.0,0.0,-2.0551,-2.1038,-2.1038,-2.1701,-2.2144,-2.2144,-2.2229,-2.2296,-2.2296,0.0,0.0,-2.2296,-2.2296,-2.2598,-2.3241,-2.2632,-2.2936,-2.4203,-2.3943,-2.524,-2.7933,-2.773,-2.8602,-3.026,-2.9359,-2.8088,-2.6539,-2.5631,-2.497,-2.4502,-2.4281,-2.4263,-2.4355,-2.4245,-2.419,-2.419,-2.419,-2.419,-2.419,-2.419,-2.4006,0.0,0.0,0.0,-2.3767,-2.356,-2.5194,-2.7184,0.0,0.0,0.0,0.0,0.0,0.0,0.0,0.0,0.0,0.0,0.0,0.0,0.0,0.0,0.0,0.0,0.0,0.0,0.0,0.0,0.0,0.0,0.0,0.0,0.0,0.0,0.0,0.0,0.0,0.0,0.0,0.0,-4.8306,-4.8306,-4.8306,0.0,-4.8306,-4.8306,-4.8306,-4.8306,-4.759,-4.6892,-4.6214,-4.6214,-4.6985,-4.8306,-4.8306,-4.7901,-4.7259,-4.7259,-4.6856,-4.6214,-4.6214,-4.6159,-4.6067,-4.6067,-4.5553,-4.4838,0.0,0.0,0.0,0.0,0.0,0.0,0.0,0.0,0.0,0.0,0.0,-2.182,-2.182,-2.2124,-2.2296,-2.2296,-2.2296,-2.2296,-2.2296,-2.2296,-2.2482,-2.2902,-2.3308,-2.368,-2.4017,-2.4103,-2.4069,-2.3881,-2.4345,-2.612,-2.9119,-2.9152,-2.9695,-3.0711,-3.1084,-2.9509,-2.6612,-2.6704,-2.576,-2.419,-2.419,-2.4475,-2.4824,-2.4373,-2.4493,-2.4805,-2.4355,-2.419,-2.419,-2.419,-2.4094,-2.3986,-2.3986,0.0,0.0,0.0,-2.4257,0.0,-2.8492,0.0,0.0,0.0,0.0,0.0,0.0,0.0,0.0,0.0,0.0,0.0,0.0,0.0,0.0,0.0,0.0,0.0,0.0,0.0,0.0,0.0,0.0,0.0,0.0,0.0,0.0,0.0,0.0,0.0,0.0,-4.8306,-4.8306,-4.8306,-4.7846,0.0,-4.7626,-4.7186,-4.6966,-4.6948,-4.6599,-4.625,-4.5902,-4.5902,-4.6287,-4.6966,-4.6966,-4.6746,-4.6434,-4.6434,-4.6214,-4.5902,-4.5902,-4.5626,-4.5241,-4.5241,-4.4727,-4.403,0.0,0.0,0.0,0.0,0.0,0.0,0.0,0.0,0.0,0.0,0.0,-2.2296,-2.2296,0.0,0.0,0.0,-2.2296,-2.2296,-2.2296,-2.2482,-2.2835,-2.3376,-2.4118,-2.4491,-2.4491,-2.5033,-2.478,-2.3678,-2.4284,-2.6092,-2.8951,-2.9725,-3.0351,-3.093,-3.1955,-3.0826,-2.8124,-2.8117,-2.6943,-2.5126,-2.5346,-2.5401,-2.5356,-2.4961,-2.5181,-2.5595,-2.4787,-2.4444,-2.4348,-2.4147,-2.3966,-2.3816,-2.3816,-2.3606,0.0,0.0,0.0,0.0,0.0,0.0,0.0,0.0,0.0,0.0,0.0,0.0,0.0,0.0,0.0,0.0,0.0,0.0,0.0,0.0,0.0,0.0,0.0,0.0,0.0,0.0,0.0,0.0,0.0,0.0,0.0,0.0,0.0,0.0,-4.77,-4.77,-4.77,-4.77,-4.7094,-4.6801,-4.6801,-4.6195,-4.5792,-4.5608,-4.5608,-4.548,-4.5278,-4.5278,-4.5278,-4.5314,-4.5718,-4.5773,-4.5608,-4.5608,-4.5461,-4.5278,-4.5278,-4.4929,-4.4397,-4.4397,-4.4011,-4.3515,0.0,0.0,0.0,0.0,0.0,0.0,0.0,0.0,0.0,0.0,0.0,-2.2296,-2.2296,-2.2296,-2.2296,-2.2296,-2.2296,-2.2296,-2.2296,-2.2953,-2.3359,-2.3393,-2.4118,0.0,-2.4491,-2.4541,-2.4508,-2.444,-2.3795,-2.464,-2.6911,-2.8814,-3.0318,-3.1391,-3.1769,-3.2073,-3.2142,-2.9886,-2.8429,-2.7677,-2.8436,-2.7402,-2.5485,-2.6209,-2.6492,-2.6429,-2.5631,-2.5137,-2.4754,-2.3977,-2.3294,-2.2784,-2.2784,-2.259,-2.2377,0.0,0.0,0.0,0.0,0.0,0.0,0.0,0.0,0.0,0.0,0.0,0.0,0.0,0.0,0.0,0.0,0.0,0.0,0.0,0.0,0.0,0.0,0.0,0.0,0.0,0.0,0.0,0.0,0.0,0.0,0.0,0.0,0.0,-4.6067,-4.6012,-4.6012,-4.6012,-4.5975,-4.5957,-4.5957,-4.592,-4.5516,-4.4746,-4.4746,-4.436,-4.3608,-4.3608,-4.3608,-4.3717,-4.5241,-4.548,-4.4746,-4.4746,-4.4305,-4.3608,-4.3608,-4.3606,-4.3552,-4.3552,-4.3551,-4.3515,0.0,0.0,0.0,0.0,0.0,0.0,0.0,0.0,0.0,0.0,0.0,0.0,0.0,-2.3004,-2.319,-2.3663,-2.2852,-2.2296,-2.2296,-2.2987,-2.3613,-2.4085,-2.4797,-2.5203,-2.5203,-2.4745,-2.4271,-2.3797,-2.3528,-2.4707,-2.7225,-2.8228,-3.0083,-3.2703,-3.4817,-3.3709,-3.0399,-3.2124,-2.9996,-2.5786,-2.9182,-2.8778,-2.6319,-2.7629,-2.8455,0.0,0.0,0.0,0.0,-2.5231,-2.414,-2.3346,-2.3346,-2.2977,-2.2527,-2.2349,-2.2647,-2.3523,0.0,0.0,0.0,0.0,0.0,0.0,0.0,0.0,0.0,0.0,0.0,0.0,0.0,0.0,0.0,0.0,0.0,0.0,0.0,0.0,0.0,0.0,0.0,0.0,0.0,0.0,0.0,0.0,0.0,0.0,-4.5865,-4.4911,-4.4819,-4.5865,-4.5406,-4.4874,-4.436,-4.436,-4.4195,-4.392,-4.392,-4.3773,-4.3515,-4.3515,-4.3515,-4.3533,-4.4103,-4.4195,-4.392,-4.392,-4.3754,-4.3515,-4.3515,-4.3515,-4.3515,-4.3515,-4.3515,-4.3515,0.0,0.0,0.0,-2.2296,0.0,-2.2296,-2.2296,-2.2296,-2.2381,-2.2649,0.0,0.0,0.0,0.0,-2.3864,-2.4118,-2.346,-2.2936,-2.2699,-2.3596,-2.4239,-2.4491,-2.5439,-2.5625,-2.4881,-2.488,-2.4271,-2.3038,-2.3274,-2.4211,-2.5784,-2.6781,-2.8631,-3.1232,-3.4072,-3.3888,-3.1629,-3.4289,-3.2491,-2.8081,-3.1017,-3.076,-2.873,-2.9794,0.0,0.0,0.0,0.0,0.0,0.0,-2.6322,-2.5117,-2.473,-2.3676,-2.2541,-2.2349,-2.2584,-2.3219,-2.4635,0.0,0.0,0.0,0.0,0.0,0.0,0.0,0.0,0.0,0.0,0.0,0.0,0.0,0.0,0.0,0.0,0.0,0.0,0.0,0.0,0.0,0.0,0.0,0.0,0.0,0.0,0.0,0.0,0.0,-4.5039,-4.4066,-4.3992,-4.5057,-4.458,-4.4048,-4.3515,-4.3515,-4.3515,-4.3515,-4.3515,-4.3515,-4.3515,-4.3515,-4.3515,-4.3515,-4.3515,-4.3515,-4.3515,-4.3515,-4.3515,-4.3515,-4.3515,-4.3515,-4.3515,-4.3515,-4.3515,-4.3515,-2.2296,-2.2296,-2.2296,-2.2296,-2.2313,-2.233,-2.233,-2.2347,-2.2617,-2.3342,0.0,0.0,0.0,0.0,0.0,-2.3528,-2.4101,-2.4186,-2.3444,-2.4746,-2.522,-2.4525,-2.5879,-2.5625,-2.3477,-2.4847,-2.4477,-2.2296,-2.3038,-2.3038,-2.2381,-2.4543,-2.5986,-2.6859,-2.9142,-3.2358,-3.6083,-3.6211,-3.5661,-3.4674,0.0,-3.3385,-3.2509,0.0,0.0,0.0,-3.3587,-3.2643,0.0,0.0,0.0,0.0,0.0,-2.4459,-2.2296,-2.233,-2.2313,0.0,0.0,0.0,0.0,0.0,0.0,0.0,0.0,0.0,0.0,0.0,0.0,0.0,0.0,0.0,0.0,0.0,0.0,0.0,0.0,0.0,0.0,0.0,0.0,0.0,0.0,0.0,0.0,0.0,0.0,-4.4268,-4.3551,-4.3515,-4.3515,-4.3515,-4.3515,-4.3515,-4.3515,-4.3515,-4.3515,-4.3515,-4.3515,-4.3515,-4.3515,-4.3515,-4.3515,-4.3515,-4.3515,-4.3515,-4.3515,-4.3515,-4.3515,-4.3515,-4.3515,-4.3515,-4.3515,-4.3515,-4.3515,-4.3515,-2.2296,-2.2296,-2.2296,-2.2296,-2.275,-2.3105,-2.3105,-2.3545,-2.3966,0.0,0.0,0.0,-2.522,-2.5761,-2.5778,-2.5067,-2.4694,-2.4186,-2.3444,-2.3782,-2.4169,-2.4491,-2.488,-2.4812,-2.4203,-2.4609,-2.3985,-2.2296,-2.3038,-2.3291,-2.312,-2.4019,-2.4962,-2.5949,-2.8031,-2.9725,-3.1207,-3.4124,0.0,-2.8661,-3.5459,-3.4908,0.0,0.0,0.0,0.0,0.0,-3.4852,-3.3867,0.0,-3.1645,-2.8362,0.0,0.0,-2.2398,-2.2936,-2.2733,0.0,-2.2953,0.0,0.0,0.0,0.0,0.0,0.0,0.0,0.0,0.0,0.0,0.0,0.0,0.0,0.0,0.0,0.0,0.0,0.0,0.0,0.0,0.0,0.0,0.0,0.0,0.0,0.0,0.0,0.0,-4.2525,-4.346,-4.3515,-4.3515,-4.3515,-4.3515,-4.3515,-4.3515,-4.3515,-4.3515,-4.3515,-4.3515,-4.3515,-4.3515,-4.3515,-4.3515,-4.3515,-4.3515,-4.3515,-4.3515,-4.3515,-4.3515,-4.3515,-4.3515,-4.3515,-4.3515,-4.3515,-4.3515,-4.3515,-2.2296,-2.255,-2.2767,-2.2767,-2.3359,-2.3864,-2.3864,-2.422,-2.4609,0.0,0.0,0.0,-2.5981,-2.6437,-2.6268,-2.522,-2.5033,-2.466,-2.3915,-2.4137,-2.4509,-2.4948,-2.5252,-2.5134,-2.4508,-2.4795,-2.4239,-2.2767,-2.319,-2.3241,-2.2953,-2.3175,-2.3661,-2.4392,-2.5693,-2.6658,-2.7527,-3.101,0.0,0.0,-3.5716,0.0,0.0,-3.79,-3.801,0.0,0.0,0.0,-3.7096,-3.7426,-3.4703,0.0,0.0,0.0,0.0,0.0,0.0,0.0,0.0,0.0,0.0,0.0,0.0,0.0,-2.5444,-2.7905,0.0,0.0,0.0,0.0,0.0,0.0,0.0,0.0,0.0,0.0,0.0,0.0,0.0,0.0,0.0,0.0,0.0,0.0,0.0,0.0,-4.2635,-4.2506,-4.346,-4.3515,-4.3515,-4.3515,-4.3515,-4.3515,-4.3515,-4.3515,-4.3515,-4.3515,-4.3515,-4.3515,-4.3515,-4.3515,-4.3515,-4.3515,-4.3515,-4.3515,-4.3515,-4.3515,-4.3515,-4.3515,-4.3515,-4.3515,-4.3515,-4.3515,-4.3515,-4.3515,0.0,-2.3071,-2.3511,-2.3511,-2.4135,-2.4626,-2.4626,-2.4694,-2.4982,0.0,-2.5711,-2.5981,-2.6623,-2.6623,-2.6065,-2.4745,-2.5067,-2.5084,-2.4423,-2.4915,-2.5271,-2.5355,-2.5981,-2.5726,-2.4406,-2.5101,-2.4763,-2.3274,-2.3359,-2.3021,-2.2296,-2.2296,-2.2436,-2.2721,-2.3145,-2.3927,-2.5068,-2.7737,0.0,-3.5862,-3.5536,-3.7536,0.0,0.0,-4.0065,0.0,-4.1791,-4.1405,-4.012,-4.0696,-3.7935,0.0,0.0,0.0,0.0,0.0,-2.5659,0.0,0.0,0.0,0.0,0.0,0.0,0.0,-2.4389,-2.7385,-3.0497,0.0,0.0,0.0,0.0,0.0,0.0,0.0,0.0,0.0,0.0,0.0,0.0,0.0,0.0,0.0,0.0,0.0,0.0,-4.3515,-4.3515,-4.3515,-4.3515,-4.3515,-4.3515,-4.3515,-4.3515,-4.3515,-4.3515,-4.3515,-4.3515,-4.3515,-4.3515,-4.3515,-4.3515,-4.3515,-4.3515,-4.3515,-4.3515,-4.3515,-4.3515,-4.3515,-4.3462,-4.341,-4.341,-4.3356,-4.3321,-4.3321,-4.3321,-4.3321,-2.4068,-2.4186,-2.4288,-2.4288,-2.4898,-2.5389,-2.5389,-2.5879,-2.6319,-2.6471,-2.6488,-2.6539,-2.6674,-2.6167,-2.571,-2.5423,-2.4425,-2.3765,-2.3613,-2.319,-2.3209,-2.3799,-2.3968,-2.39,-2.3613,-2.4338,-2.3985,-2.2499,-2.3105,-2.3021,-2.2296,-2.2296,-2.2436,-2.2738,-2.3721,-2.4444,-2.5032,0.0,0.0,-3.3592,-3.671,0.0,-3.8539,-4.1623,-4.1185,-3.9313,-4.2213,-4.2231,-4.0732,0.0,-3.831,-3.5989,0.0,0.0,0.0,0.0,0.0,0.0,0.0,0.0,0.0,0.0,0.0,0.0,-2.3763,-2.3833,-2.4916,0.0,0.0,0.0,0.0,0.0,0.0,0.0,0.0,0.0,0.0,0.0,0.0,0.0,0.0,0.0,0.0,0.0,-4.3515,-4.3515,-4.3515,-4.3515,-4.3515,-4.3515,-4.3515,-4.3515,-4.3515,-4.3515,-4.3515,-4.3515,-4.3515,-4.3515,-4.3515,-4.3515,-4.3515,-4.3515,-4.3515,-4.3515,-4.3515,-4.3515,-4.3515,-4.3515,-4.325,-4.2864,-4.2864,-4.256,-4.2144,-4.2144,-4.2144,-4.2144,-2.4491,-2.4795,-2.505,-2.505,-2.5659,-2.615,-2.615,-2.6454,-2.6691,-2.6691,-2.6691,-2.6691,-2.6691,-2.6048,-2.5592,-2.5592,-2.4255,-2.3562,-2.3932,-2.3257,-2.3173,-2.3915,-2.3949,-2.3949,-2.3949,-2.3949,-2.3594,-2.2852,-2.2852,-2.2651,-2.2296,-2.2296,-2.2904,-2.3981,-2.4688,-2.5636,-2.6766,0.0,-3.0014,-3.2894,-3.6193,0.0,-3.9606,-4.2415,-4.2488,-4.1313,-4.2927,-4.2983,-4.2001,-4.0022,-3.895,0.0,0.0,-3.2366,-3.0415,0.0,-2.791,-2.6657,0.0,0.0,0.0,-2.4321,0.0,0.0,0.0,-2.3951,0.0,0.0,0.0,0.0,0.0,0.0,0.0,0.0,0.0,0.0,0.0,0.0,0.0,0.0,0.0,0.0,0.0,0.0,-4.2173,-4.2838,-4.2892,-4.3075,-4.3478,-4.3515,-4.3515,-4.3515,-4.3515,-4.3375,-4.3087,-4.3375,-4.3214,-4.2676,-4.2958,-4.294,-4.2639,-4.2639,-4.2639,-4.2639,-4.2639,-4.2639,-4.2639,-4.2639,-4.2306,-4.1874,-4.246,-4.2322,-4.181,-4.181,-4.181,-4.181,-2.4914,-2.5406,-2.5812,-2.5812,-2.6302,-2.6691,-2.6691,-2.6691,-2.6691,-2.6691,-2.6824,-2.6993,-2.7131,-2.65,-2.6154,-2.6348,-2.5383,-2.478,-2.483,-2.4573,-2.4441,-2.4506,-2.4355,-2.4288,-2.4288,-2.3577,-2.319,-2.319,-2.2584,-2.2296,-2.2296,-2.2448,-2.3462,-2.5233,-2.5804,-2.7248,-2.9246,0.0,0.0,-3.377,0.0,-3.8505,-4.0671,-4.3039,-4.3663,-4.3331,-4.3808,-4.3846,-4.3357,-4.0872,0.0,-3.9113,-3.7458,-3.4822,0.0,0.0,0.0,0.0,0.0,0.0,0.0,0.0,0.0,-2.4491,0.0,0.0,0.0,0.0,0.0,0.0,0.0,0.0,0.0,0.0,0.0,0.0,0.0,0.0,0.0,0.0,0.0,0.0,0.0,0.0,-4.0275,-4.1665,-4.1791,-4.2064,-4.2721,-4.2867,-4.2959,-4.2959,-4.3087,-4.2958,-4.2519,-4.2958,-4.2715,-4.181,-4.2302,-4.2282,-4.181,-4.181,-4.181,-4.181,-4.181,-4.181,-4.181,-4.181,-4.1446,-4.0995,-4.1979,-4.1979,-4.1486,-4.1486,-4.1486,-4.1486,-2.6454,-2.6522,-2.6573,-2.6573,-2.664,-2.6691,-2.6691,-2.6691,-2.6691,-2.6691,-2.7334,-2.801,-2.8676,-2.8127,-2.8099,-2.9053,0.0,0.0,-2.6251,0.0,-2.7028,-2.4606,-2.3881,-2.3511,-2.3511,-2.2801,-2.2415,-2.2415,-2.233,-2.2296,-2.2313,-2.297,-2.3959,-2.5268,-2.6971,0.0,0.0,0.0,-3.4669,0.0,-3.9588,-3.9496,0.0,-4.3644,-4.4305,-4.2727,-4.4856,-4.5168,-4.4344,0.0,-4.0678,-3.8484,0.0,-3.5094,0.0,0.0,0.0,0.0,0.0,0.0,0.0,0.0,-2.4983,0.0,0.0,0.0,0.0,0.0,0.0,0.0,0.0,0.0,0.0,0.0,0.0,0.0,0.0,0.0,0.0,0.0,0.0,0.0,0.0,0.0,0.0,-3.9786,-3.9911,-3.9946,-4.0036,-4.0657,-4.1011,-4.1011,-4.1647,-4.1958,-4.1895,-4.1958,-4.1937,-4.181,-4.1874,-4.1874,-4.181,-4.181,-4.181,-4.181,-4.181,-4.181,-4.181,-4.181,-4.1446,-4.0903,-4.1064,-4.0774,-4.0286,-4.0286,-4.0286,-4.0286,-2.6691,-2.6691,-2.6691,-2.6691,-2.6691,-2.6791,-2.7003,-2.7412,-2.7588,-2.7368,-2.8032,-2.8991,0.0,0.0,0.0,0.0,0.0,-3.0921,0.0,0.0,-2.8219,-2.7165,-2.5134,-2.4239,-2.4678,-2.3951,-2.3579,-2.3579,-2.3579,-2.3579,-2.3579,-2.3898,-2.4917,-2.6533,-2.8028,0.0,-3.2933,0.0,0.0,0.0,0.0,0.0,0.0,-4.4103,-4.5259,-4.4361,-4.4089,-4.4357,-4.4406,0.0,-4.0678,0.0,0.0,0.0,0.0,0.0,0.0,0.0,0.0,0.0,0.0,0.0,0.0,0.0,0.0,0.0,-2.4338,0.0,0.0,0.0,0.0,0.0,0.0,0.0,0.0,0.0,0.0,0.0,0.0,0.0,0.0,0.0,0.0,0.0,0.0,0.0,0.0,-3.7305,-3.8229,-3.9416,-4.0263,-4.0683,-4.1002,-4.1205,-4.1273,-4.1621,-4.1464,-4.0814,-4.1127,-4.111,-4.0814,-4.0814,-4.0814,-4.0814,-4.0814,-4.0814,-4.0814,-4.0814,-4.0648,-4.0424,-4.0424,-4.0311,-4.0096,-4.0096,-4.0096,-4.0096,-2.6857,-2.6857,-2.6857,-2.6857,-2.6857,-2.704,-2.7549,-2.8557,-2.9173,-2.8937,0.0,0.0,-3.1849,-3.1169,0.0,0.0,-3.402,-3.3759,0.0,0.0,-3.045,0.0,0.0,0.0,-2.6505,-2.5202,-2.4491,-2.4491,-2.4491,-2.4491,-2.4491,-2.4711,-2.5723,-2.7461,0.0,-3.0918,-3.3777,0.0,0.0,-3.8796,-4.1443,-4.237,-4.2451,-4.4709,-4.5772,-4.5847,-4.4429,-4.441,-4.4535,-4.0991,-4.0902,0.0,-3.8901,0.0,0.0,0.0,0.0,0.0,-3.2869,0.0,0.0,0.0,0.0,0.0,0.0,0.0,0.0,0.0,0.0,0.0,0.0,0.0,0.0,0.0,0.0,0.0,0.0,0.0,0.0,0.0,0.0,0.0,0.0,0.0,0.0,0.0,-3.432,0.0,-3.6148,-3.7883,-3.9087,-3.9606,-4.0009,-4.0279,-4.0369,-4.1,-4.0932,-4.0096,-4.048,-4.0473,-4.0096,-4.0096,-4.0096,-4.0096,-4.0096,-4.0096,-4.0096,-4.0096,-4.0096,-4.0096,-4.0096,-4.0096,-4.0096,-4.0096,-4.0096,-4.0096,-2.7288,-2.7288,-2.7288,-2.7288,-2.7288,-2.7546,-2.8339,-3.0133,0.0,0.0,0.0,0.0,0.0,0.0,0.0,0.0,0.0,-3.799,-3.6837,0.0,-3.4677,0.0,0.0,-2.6607,0.0,-2.6014,-2.4491,-2.4491,-2.4491,-2.4491,-2.4508,-2.522,-2.622,-2.7463,-2.8927,-3.1407,-3.4617,-3.7165,-3.9394,-4.1554,-4.4748,-4.683,-4.7792,0.0,-4.5432,-4.6459,-4.7046,0.0,0.0,-4.3613,-4.1689,0.0,0.0,0.0,0.0,0.0,0.0,0.0,0.0,0.0,0.0,-3.1732,0.0,0.0,0.0,0.0,-2.6843,0.0,0.0,0.0,0.0,0.0,0.0,-2.5559,0.0,0.0,0.0,0.0,0.0,0.0,0.0,0.0,0.0,0.0,0.0,0.0,-3.1588,0.0,-3.3486,-3.5655,-3.6915,-3.6909,-3.8299,-3.9054,-3.9071,-3.979,-4.0146,-4.0096,-4.0121,-4.0121,-4.0096,-4.0096,-4.0096,-4.0096,-4.0096,-4.0096,-4.0096,-4.0096,-4.0096,-4.0096,-4.0096,-4.0096,-4.0096,-4.0096,-4.0096,-4.0096,-2.7918,-2.7894,-2.7787,-2.7035,-2.756,-2.834,-2.912,-3.0175,0.0,0.0,0.0,0.0,0.0,0.0,-3.9022,0.0,0.0,-4.1513,-3.9663,-3.8713,0.0,0.0,0.0,-3.1901,0.0,0.0,0.0,-2.5963,-2.5963,-2.5963,-2.5963,-2.6201,-2.6554,-2.6989,0.0,-3.0658,0.0,0.0,0.0,0.0,0.0,-4.5518,-4.5566,0.0,0.0,-4.7575,-4.6977,-4.6417,0.0,-4.3382,-4.2791,-4.279,-4.1586,-4.0527,-3.9901,-4.0882,-3.9114,0.0,0.0,0.0,-3.6569,-3.5825,0.0,0.0,0.0,0.0,0.0,0.0,0.0,0.0,0.0,0.0,0.0,-2.6336,0.0,0.0,0.0,0.0,0.0,0.0,0.0,0.0,0.0,0.0,0.0,-2.8432,-2.8586,-2.9162,0.0,-3.3068,-3.4759,-3.5272,-3.7229,-3.8514,-3.8988,-3.974,-4.0096,-4.0096,-4.0096,-4.0096,-4.0096,-4.0096,-4.0096,-4.0096,-4.0096,-4.0096,-4.0096,-4.0096,-4.0096,-4.0096,-4.0096,-4.0096,-4.0096,-4.0096,-4.0096,-4.0096,-2.8772,-2.8546,-2.8443,0.0,0.0,0.0,0.0,0.0,0.0,0.0,-3.7297,0.0,-4.1864,0.0,-4.1697,0.0,-4.2797,-4.2941,-4.2743,-4.025,0.0,-4.1502,-3.7416,0.0,0.0,0.0,0.0,0.0,0.0,-2.7791,-2.8264,-2.7199,-2.6843,-2.7148,0.0,-3.0179,0.0,0.0,-3.9849,0.0,0.0,-4.4667,0.0,0.0,-4.6901,-4.691,0.0,-4.594,-4.5491,-4.371,-4.3785,-4.4344,-4.2861,-4.2405,-4.2439,-4.2642,-4.1001,-3.9292,-3.9986,-3.9631,0.0,-3.843,-3.6992,0.0,-3.5013,0.0,0.0,0.0,0.0,0.0,0.0,0.0,0.0,-2.6826,-2.5912,0.0,0.0,-2.3224,0.0,0.0,0.0,0.0,0.0,0.0,-2.4864,-2.6488,-2.6674,-2.7385,0.0,0.0,-3.3626,-3.4083,-3.6569,-3.8125,-3.8599,-3.9605,-4.0096,-4.0096,-4.0096,-4.0096,-4.0096,-4.0096,-4.0096,-4.0096,-4.0096,-4.0096,-4.0096,-4.0096,-4.0096,-4.0096,-4.0096,-4.0096,-4.0096,-4.0096,-4.0096,-4.0096,-2.9901,-2.9403,-2.9334,0.0,-3.0112,0.0,0.0,0.0,-3.7024,0.0,-4.1414,-4.1179,-4.275,-4.1686,-4.1596,-4.3462,-4.2271,0.0,-4.578,-4.0509,0.0,0.0,-3.817,-3.6088,-3.8996,0.0,0.0,0.0,0.0,0.0,-3.119,-2.8197,-2.7199,-2.7891,-2.8653,0.0,-3.2097,-3.6128,-3.8581,-3.9974,-4.2272,-4.4421,-4.6077,-4.4655,0.0,-4.4665,-4.5267,-4.5142,-4.4654,-4.4598,-4.4615,-4.4615,-4.4615,-4.4615,-4.4462,-4.369,-4.3426,-4.3267,-4.254,-4.1813,-4.0916,-3.9512,0.0,0.0,0.0,0.0,-3.4506,0.0,0.0,0.0,0.0,0.0,0.0,0.0,0.0,0.0,0.0,0.0,0.0,0.0,0.0,0.0,0.0,-2.4189,-2.5169,-2.4491,-2.5743,0.0,0.0,0.0,0.0,-3.3406,-3.6146,-3.7719,-3.7905,-3.9242,-3.9994,-4.0096,-4.0096,-4.0096,-4.0096,-4.0096,-4.0096,-4.0096,-4.0096,-4.0096,-4.0096,-4.0096,-4.0096,-4.0096,-4.0096,-4.0096,-4.0096,-4.0096,-4.0096,-4.0096,-3.1216,-3.1811,-3.2314,0.0,-3.2711,-3.4196,0.0,0.0,0.0,0.0,-4.2343,-4.3885,-4.5752,-4.6724,-4.6707,-4.5406,-4.5582,0.0,0.0,0.0,0.0,-4.5256,-4.3153,-4.1257,-3.9868,-3.8862,0.0,-3.56,0.0,0.0,-3.1972,-2.9551,-2.8519,-2.8687,0.0,0.0,-3.2389,-3.5689,-3.9125,-4.2306,-4.1805,-4.2595,0.0,0.0,-4.3549,-4.4665,-4.5267,-4.5381,-4.5205,-4.4748,-4.4615,-4.4615,-4.4615,-4.4615,-4.4564,-4.4333,-4.3876,-4.3341,-4.3183,-4.2591,-4.1914,-4.1542,-4.007,-3.8616,0.0,0.0,0.0,0.0,0.0,0.0,0.0,0.0,0.0,0.0,0.0,0.0,0.0,0.0,0.0,0.0,0.0,0.0,0.0,0.0,-2.3308,-2.3661,-2.4019,0.0,0.0,0.0,0.0,-3.3322,-3.3609,-3.5081,-3.7872,-3.7719,-3.8471,-4.0096,-4.0096,-4.0096,-4.0096,-4.0096,-4.0096,-4.0096,-4.0096,-4.0096,-4.0096,-4.0096,-4.0096,-4.0096,-4.0096,-4.0096,-4.0096,-4.0096,-4.0096,-4.0096,-3.2376,0.0,0.0,-3.3333,0.0,0.0,-3.79,0.0,0.0,-4.3849,-4.5176,0.0,-4.8077,-4.9079,-4.9081,-4.7676,-4.6563,0.0,0.0,0.0,0.0,-4.6561,-4.5535,-4.4014,-4.21,-4.1702,0.0,-3.9014,0.0,0.0,-3.4189,-3.0651,-2.9179,-2.9482,0.0,-3.0533,0.0,-3.622,-3.9725,-4.2791,-4.1915,0.0,0.0,-4.2683,-4.3278,-4.4654,-4.4971,-4.5115,-4.5035,-4.472,-4.4615,-4.4615,-4.4615,-4.4615,-4.4615,-4.4615,-4.4265,-4.3927,-4.3927,-4.3369,-4.2777,-4.2777,-4.1593,-4.0358,-4.0037,-3.865,-3.7449,0.0,0.0,0.0,0.0,0.0,0.0,0.0,0.0,0.0,0.0,0.0,0.0,0.0,0.0,0.0,0.0,0.0,0.0,-2.3342,0.0,0.0,0.0,0.0,0.0,-3.141,-3.2649,-3.4117,-3.5926,-3.5842,-3.6907,-3.914,-3.914,-3.9486,-4.0096,-4.0096,-4.0096,-4.0096,-4.0096,-4.0096,-4.0096,-4.0096,-4.0096,-4.0096,-4.0096,-4.0096,-4.0096,-4.0096,-4.0096,-4.0096,-3.3528,0.0,0.0,0.0,0.0,0.0,0.0,-4.2537,0.0,-4.7937,0.0,-4.876,-4.9482,-4.9654,-4.968,-4.959,0.0,-4.574,-4.847,-4.4628,-4.3922,-4.7729,-4.6355,-4.5316,-4.4902,-4.4113,0.0,0.0,0.0,-3.5622,-3.6846,-3.1701,-2.9617,-3.0243,0.0,0.0,0.0,-3.7195,-4.0189,0.0,-4.2405,-4.3234,-4.4344,-4.3284,-4.3707,-4.4902,-4.4902,-4.4767,-4.4615,-4.4615,-4.4615,-4.4615,-4.4615,-4.4615,-4.4615,-4.4615,-4.4615,-4.4615,-4.4615,-4.4079,-4.3572,-4.3572,-4.2997,-4.2269,-4.1644,-4.1339,-4.1018,-4.0383,-4.018,-3.952,0.0,0.0,0.0,0.0,0.0,0.0,0.0,0.0,0.0,0.0,0.0,0.0,0.0,0.0,0.0,0.0,0.0,0.0,0.0,0.0,0.0,0.0,-3.2226,0.0,-3.3694,0.0,-3.5639,-3.8193,-3.799,-3.8667,-4.0096,-4.0096,-4.0096,-4.0096,-4.0096,-4.0096,-4.0096,-4.0096,-4.0096,-4.0096,-4.0096,-4.0096,-4.0096,-4.0096,-4.0096,-4.0096,0.0,0.0,0.0,0.0,0.0,-4.2723,-4.3997,-4.6602,-4.8216,-4.7666,-4.8677,0.0,-4.8766,-4.9395,-4.96,-4.8919,-4.8271,0.0,0.0,0.0,0.0,-4.7817,-4.7009,-4.6496,-4.6413,-4.5686,-4.5314,0.0,-3.9935,-3.7449,-3.7618,-3.2983,-3.0869,-3.1004,0.0,0.0,-3.6975,-3.777,0.0,-4.2337,-4.2963,-4.3386,-4.3792,-4.5399,-4.6177,-4.6397,-4.6397,-4.5647,-4.4615,-4.4615,-4.4615,-4.4615,-4.4615,-4.4615,-4.4615,-4.4615,-4.4615,-4.4615,-4.4615,-4.4513,-4.4395,-4.4395,-4.3792,-4.3156,-4.3037,-4.2057,-4.117,-4.1035,-4.051,-3.9977,-3.9588,0.0,0.0,0.0,0.0,0.0,0.0,0.0,0.0,0.0,0.0,0.0,0.0,0.0,0.0,0.0,0.0,0.0,0.0,0.0,0.0,0.0,0.0,0.0,0.0,0.0,0.0,-3.9706,-3.8481,-3.8667,-4.0096,-4.0096,-4.0096,-4.0096,-4.0096,-4.0096,-4.0096,-4.0096,-4.0096,-4.0096,-4.0096,-4.0096,-4.0096,-4.0096,-4.0096,-4.0096,0.0,0.0,0.0,0.0,0.0,0.0,0.0,-4.7945,0.0,-4.8289,-4.9758,-5.0651,-4.9943,-5.0568,-5.0749,-5.0006,-4.8914,-4.8255,-4.8333,-4.7295,-4.7203,-4.8409,-4.8139,0.0,-4.6802,-4.6836,-4.6481,-4.5703,-4.0849,-3.8464,-3.8362,-3.3474,-3.119,-3.1241,0.0,-3.4776,0.0,0.0,0.0,-4.3599,-4.4705,-4.5162,-4.528,-4.638,-4.6786,-4.6786,-4.6786,-4.6329,-4.5698,-4.5297,-4.5162,-4.5094,-4.4733,-4.4615,-4.4615,-4.4615,-4.4615,-4.4615,-4.4615,-4.4615,-4.4615,-4.4615,-4.4327,-4.391,-4.3494,-4.2834,-4.2108,-4.1373,-4.0916,-4.0307,-3.9157,-3.7185,0.0,0.0,0.0,0.0,0.0,0.0,0.0,0.0,0.0,0.0,0.0,0.0,0.0,0.0,0.0,0.0,0.0,0.0,0.0,0.0,0.0,0.0,0.0,0.0,0.0,-3.8937,-3.8244,-3.8667,-4.0096,-4.0096,-4.0096,-4.0096,-4.0096,-4.0096,-4.0096,-4.0096,-4.0096,-4.0096,-4.0096,-4.0096,-4.0096,-4.0096,-4.0096,-4.0096,0.0,-4.045,0.0,0.0,-4.3152,0.0,0.0,-4.8325,-4.9425,-4.9483,-5.0756,-5.1519,-5.1138,-5.1317,-5.1099,-5.0259,-4.8889,-4.8066,-4.8051,-4.7564,-4.7648,-4.8494,-4.8832,-4.846,-4.7276,-4.7682,-4.7344,0.0,-4.1982,-3.9614,0.0,-3.4455,0.0,0.0,0.0,0.0,0.0,0.0,-4.3684,-4.519,-4.6498,-4.7022,-4.7056,-4.7208,-4.7259,-4.7259,-4.7259,-4.7259,-4.7141,-4.643,-4.6075,-4.5805,-4.506,-4.4852,-4.4818,-4.4649,-4.4615,-4.4615,-4.4615,-4.4615,-4.4615,-4.4615,-4.4615,-4.4418,-4.3809,-4.3511,-4.3054,-4.1914,-4.1424,-4.0629,-3.8717,-3.7635,0.0,0.0,0.0,0.0,0.0,0.0,0.0,0.0,0.0,0.0,0.0,0.0,0.0,0.0,0.0,0.0,0.0,0.0,0.0,0.0,0.0,0.0,-3.3169,0.0,-3.5791,0.0,-3.8058,-3.8667,-4.0096,-4.0096,-4.0096,-4.0096,-4.0096,-4.0096,-4.0096,-4.0096,-4.0096,-4.0096,-4.0096,-4.0096,-4.0096,-4.0096,-4.0096,-4.0096,0.0,0.0,0.0,0.0,0.0,0.0,0.0,-4.8588,-4.8767,-5.1436,-5.0858,-5.0417,-5.1034,-5.0022,-4.8728,-4.7308,-4.8239,-4.7789,-4.519,-4.7378,-4.8257,-4.7056,-4.8291,-4.8934,-4.8798,-4.8223,-4.7821,0.0,0.0,-4.1627,0.0,0.0,0.0,0.0,0.0,0.0,0.0,-4.3944,-4.5258,-4.665,-4.7479,-4.7817,-4.7885,-4.8545,-4.8798,-4.8798,-4.8798,-4.8798,-4.868,-4.7953,-4.7259,-4.6566,-4.5838,-4.5602,-4.5466,-4.4801,-4.4615,-4.4615,-4.4615,-4.4615,-4.4615,-4.4615,-4.4615,-4.4581,-4.4513,-4.3927,-4.3358,-4.3206,-4.2134,-4.0933,-4.0062,-3.8734,-3.7077,0.0,0.0,0.0,0.0,0.0,0.0,0.0,0.0,0.0,0.0,0.0,0.0,0.0,0.0,0.0,0.0,0.0,0.0,0.0,0.0,-3.097,-3.2395,-3.3795,0.0,-3.9893,-3.8531,-3.8667,-4.0096,-4.0096,-4.0096,-4.0096,-4.0096,-4.0096,-4.0096,-4.0096,-4.0096,-4.0096,-4.0096,-4.0096,-4.0096,-4.0096,-4.0096,-4.0096,0.0,0.0,0.0,0.0,0.0,0.0,0.0,-4.9117,-4.9462,-5.0682,-5.0335,-5.01,-5.0407,-5.0324,-4.9847,-4.8793,-4.9313,-4.8971,-4.734,-4.8342,-4.8748,-4.8156,-4.8697,-4.9001,-4.9001,-4.8714,-4.8578,0.0,0.0,0.0,0.0,0.0,0.0,0.0,0.0,-4.3071,-4.4874,-4.6075,-4.7175,-4.8156,-4.8443,-4.8578,-4.8595,-4.89,-4.9001,-4.9001,-4.9001,-4.9001,-4.8951,-4.8663,-4.8071,-4.7344,-4.6583,-4.6363,-4.621,-4.5483,-4.5263,-4.5162,-4.4733,-4.4615,-4.4615,-4.4615,-4.4615,-4.4615,-4.4615,-4.4333,-4.3978,-4.3494,-4.2236,-4.1119,-4.0798,-3.9918,-3.8616,0.0,0.0,0.0,0.0,0.0,0.0,0.0,0.0,0.0,0.0,0.0,0.0,0.0,0.0,0.0,0.0,0.0,0.0,-2.977,0.0,-3.3237,-3.5639,-3.6248,-3.7736,-4.0096,-3.9503,-3.9537,-4.0096,-4.0096,-4.0096,-4.0096,-4.0096,-4.0096,-4.0096,-4.0096,-4.0096,-4.0096,-4.0096,-4.0096,-4.0096,-4.0096,-4.0096,-4.0096,-4.9897,0.0,-4.7997,0.0,-4.9239,-4.9479,-4.8561,-4.9156,-4.9608,-4.937,-4.9545,-4.9763,-4.9976,-5.0297,-5.0095,-4.9143,-4.9498,-4.9179,-4.778,-4.8528,-4.8815,-4.8376,-4.8765,0.0,-4.9001,-4.9001,-4.9001,-4.9001,-4.5821,0.0,0.0,0.0,0.0,0.0,-4.4051,-4.5466,-4.6752,-4.78,-4.8528,-4.9001,-4.9001,-4.9001,-4.9001,-4.9001,-4.9001,-4.9001,-4.9001,-4.9001,-4.9001,-4.9001,-4.8663,-4.8075,-4.7361,-4.7124,-4.6972,-4.6244,-4.5872,-4.5602,-4.506,-4.4784,-4.4615,-4.4615,-4.4615,-4.4615,-4.4615,-4.4615,-4.435,-4.3589,-4.2405,-4.1457,-4.1238,-4.0595,-3.9622,-3.8142,0.0,0.0,0.0,0.0,0.0,0.0,0.0,-3.1157,-3.1904,0.0,0.0,0.0,0.0,0.0,0.0,0.0,0.0,0.0,0.0,0.0,0.0,0.0,-3.8193,-4.0096,-4.0096,-4.0096,-4.0096,-4.0096,-4.0096,-4.0096,-4.0096,-4.0096,-4.0096,-4.0096,-4.0096,-4.0096,-4.0096,-4.0096,-4.0096,-4.0096,-4.0096,-4.0096,-5.3148,-5.2544,-5.1808,-5.1162,-5.0465,-4.9496,-4.8016,-4.8504,-4.8728,-4.7924,-4.8526,-4.9256,-4.9919,-4.9419,-4.844,-4.6967,-4.8156,-4.775,-4.4852,-4.7378,-4.8359,0.0,0.0,-4.9001,-4.9001,-4.9001,-4.9001,-4.9001,0.0,0.0,-4.4564,0.0,-4.4153,-4.572,-4.7179,-4.8244,-4.8968,-4.8984,-4.9001,-4.9001,-4.9001,-4.9001,-4.9001,-4.9001,-4.9001,-4.9001,-4.9001,-4.9001,-4.9001,-4.9001,-4.9001,-4.8866,-4.8108,-4.7872,-4.772,-4.7005,-4.6261,-4.5703,-4.5703,-4.5145,-4.4615,-4.4615,-4.4615,-4.4615,-4.4615,-4.4615,-4.435,-4.3589,-4.2811,-4.2049,-4.1339,-4.0595,-3.9622,-3.8142,0.0,0.0,0.0,0.0,0.0,0.0,-3.1021,-3.0412,-3.114,0.0,0.0,0.0,0.0,0.0,0.0,0.0,0.0,-2.8976,-2.9753,0.0,-3.344,-3.489,-3.7127,-4.0096,-4.0096,-4.0096,-4.0096,-4.0096,-4.0096,-4.0096,-4.0096,-4.0096,-4.0096,-4.0096,-4.0096,-4.0096,-4.0096,-4.0096,-4.0096,-4.0096,-4.0096,-4.0096,-4.9519,-5.0448,-5.103,-4.9806,-5.0241,-5.0424,-4.9458,-4.951,-4.9421,-4.8711,-4.8833,-4.9077,-4.9286,-4.9138,-4.8815,0.0,-4.78,-4.753,0.0,-4.753,-4.7733,-4.8274,-4.7784,-4.7496,-4.7496,-4.7496,-4.7496,-4.7496,0.0,0.0,0.0,-4.5838,-4.6515,-4.797,-4.8443,-4.8781,-4.9001,-4.9001,-4.9001,-4.9001,-4.9001,-4.9001,-4.9001,-4.9001,-4.9001,-4.9001,-4.9001,-4.9001,-4.9001,-4.9001,-4.9001,-4.8968,-4.8731,-4.8663,-4.8528,-4.7784,-4.7365,-4.6959,-4.5974,-4.5534,-4.5229,-4.4733,-4.4615,-4.4615,-4.4615,-4.4615,-4.453,-4.4265,-4.3606,-4.2828,-4.2083,-4.1339,-4.0206,-3.8227,0.0,0.0,0.0,0.0,0.0,0.0,-3.3575,-3.2848,0.0,-3.2624,0.0,0.0,0.0,0.0,0.0,0.0,0.0,0.0,-3.4252,0.0,-3.7195,-3.7178,-3.8159,-4.0096,-4.0096,-4.0096,-4.0096,-4.0096,-4.0096,-4.0096,-4.0096,-4.0096,-4.0096,-4.0096,-4.0096,-4.0045,-3.9489,-3.9289,-3.9236,-3.8707,-3.8843,-3.9209,-4.9414,-5.0228,-5.0733,-4.9529,-5.0084,-5.0253,-4.8994,-4.9262,-4.9286,-4.8301,-4.8663,-4.9001,-4.9001,-4.9001,0.0,-4.9001,-4.8156,-4.802,-4.8934,-4.8139,-4.8037,-4.8968,-4.8122,-4.7631,-4.7631,0.0,0.0,-4.7631,-4.7631,-4.7631,-4.7631,-4.7631,-4.8122,-4.9001,-4.9001,-4.9001,-4.9001,-4.9001,-4.9001,-4.9001,-4.9001,-4.9001,-4.9001,-4.9001,-4.9001,-4.9001,-4.9001,-4.9001,-4.9001,-4.9001,-4.9001,-4.9001,-4.9001,-4.9001,-4.8917,-4.846,-4.8108,-4.7686,-4.6786,-4.6126,-4.5602,-4.5128,-4.4818,-4.4615,-4.4615,-4.4615,-4.4615,-4.4615,-4.3961,-4.324,-4.2811,-4.188,-4.0747,-3.936,-3.9665,-3.9791,0.0,0.0,0.0,0.0,0.0,0.0,0.0,-3.4771,0.0,0.0,0.0,0.0,0.0,0.0,0.0,-3.5131,-3.5943,0.0,-3.8565,-3.8142,-3.8633,-4.0096,-4.0096,-4.0096,-4.0096,-4.0096,-4.0096,-4.0096,-4.0096,-4.0096,-4.0096,-4.0096,-3.9927,-3.961,-3.9113,-3.8745,-3.8442,-3.7978,-3.8092,-3.8414,-5.1806,-5.1426,0.0,0.0,-4.9907,0.0,-4.7259,-4.8122,-4.8511,-4.7124,-4.8156,-4.9001,-4.9001,-4.9001,-4.9001,-4.9001,0.0,0.0,0.0,-4.89,-4.89,-4.9001,-4.89,-4.8849,-4.8849,-4.8849,-4.89,-4.9001,-4.9001,-4.9001,-4.9001,-4.9001,-4.9001,-4.9001,-4.9001,-4.9001,-4.9001,-4.9001,-4.9001,-4.9001,-4.9001,-4.9001,-4.9001,-4.9001,-4.9001,-4.9001,-4.9001,-4.9001,-4.9001,-4.9001,-4.9001,-4.9001,-4.9001,-4.9001,-4.9001,-4.9001,-4.8528,-4.7956,-4.7906,-4.6921,-4.5838,-4.5788,-4.5213,-4.4666,-4.4615,-4.4615,-4.4615,-4.4615,-4.3995,-4.346,-4.3409,-4.2286,-4.1322,-4.1221,-4.0612,-4.013,-3.9977,0.0,0.0,0.0,0.0,0.0,0.0,-3.5814,-3.587,0.0,0.0,0.0,0.0,0.0,-3.2566,-3.4744,-3.5464,-3.651,-3.7969,-3.8034,-3.8734,-4.0096,-4.0096,-4.0096,-4.0096,-4.0096,-4.0096,-4.0096,-4.0096,-4.0096,-4.0113,-4.0045,-3.9584,-3.8881,-3.8821,-3.8395,-3.777,-3.7775,-3.782,-3.7849,0.0,0.0,-5.0506,-4.8655,-4.8838,-4.9063,-4.8558,-4.8781,-4.8883,-4.8528,-4.8781,-4.9001,-4.9001,-4.9001,-4.9001,-4.9001,-4.797,-4.78,-4.8934,-4.7953,-4.7817,-4.8951,-4.7919,-4.731,-4.731,-4.731,-4.7868,-4.9001,-4.9001,-4.9001,-4.9001,-4.9001,-4.9001,-4.9001,-4.9001,-4.9001,-4.9001,-4.9001,-4.9001,-4.9001,-4.9001,-4.9001,-4.9001,-4.9001,-4.9001,-4.9001,-4.9001,-4.9001,-4.9001,-4.9001,-4.9001,-4.9001,-4.9001,-4.9001,-4.9001,-4.9001,-4.8883,-4.8629,-4.8041,-4.7635,-4.7229,-4.6684,-4.5991,-4.528,-4.4733,-4.4615,-4.4615,-4.4615,-4.4462,-4.413,-4.3494,-4.3105,-4.2523,-4.139,-4.1052,-4.0341,-3.8667,-3.8125,0.0,0.0,-3.6266,-3.6915,-3.6464,-3.8019,-3.8565,0.0,0.0,0.0,0.0,0.0,-3.615,-3.7798,-3.803,-3.8278,-3.8669,-3.9278,-3.9757,-4.0096,-4.0096,-4.0096,-4.0096,-4.0096,-4.0096,-4.0096,-4.0096,-4.0096,-4.0045,-3.9437,-3.9086,-3.8821,-3.8173,-3.7792,-3.7639,-3.7527,-3.7874,-3.8323,-4.9421,-4.9918,-5.0118,-4.8627,-4.8728,-4.9001,-4.9001,-4.9001,-4.9001,-4.9001,-4.9001,-4.9001,-4.9001,-4.9001,-4.9001,-4.9001,-4.8274,-4.8156,-4.8951,-4.8257,-4.8156,-4.8968,-4.824,-4.78,-4.78,-4.78,-4.8206,-4.9001,-4.9001,-4.9001,-4.9001,-4.9001,-4.9001,-4.9001,-4.9001,-4.9001,-4.9001,-4.9001,-4.9001,-4.9001,-4.9001,-4.9001,-4.9001,-4.9001,-4.9001,-4.9001,-4.9001,-4.9001,-4.9001,-4.9001,-4.9001,-4.9001,-4.9001,-4.9001,-4.9001,-4.9001,-4.9001,-4.8917,-4.8528,-4.8173,-4.7703,-4.6972,-4.6244,-4.5602,-4.5179,-4.4852,-4.4615,-4.4615,-4.4615,-4.4479,-4.4028,-4.3656,-4.3139,-4.2354,-4.1085,-3.9766,-3.8565,-3.7516,0.0,-3.6102,-3.7143,-3.7858,-3.7715,-3.8823,-3.9094,-3.7949,0.0,0.0,-3.785,-3.679,-3.719,-3.9387,-3.9086,-3.9086,-3.9437,-3.9876,-4.0096,-4.0113,-3.9731,-3.9542,-3.9542,-3.9199,-3.9226,-3.9542,-3.9542,-3.9716,-3.9964,-3.9555,-3.9137,-3.8722,-3.8232,-3.7829,-3.7499,-3.7425,-3.7662,-3.7983,-5.1368,-5.0581,-4.9821,-4.9256,-4.9077,-4.9001,-4.9001,-4.9001,-4.9001,-4.9001,-4.9001,-4.9001,-4.9001,-4.9001,-4.9001,-4.9001,-4.9001,-4.9001,-4.9001,-4.9001,-4.9001,-4.9001,-4.9001,-4.9001,-4.9001,-4.9001,-4.9001,-4.9001,-4.9001,-4.9001,-4.9001,-4.9001,-4.9001,-4.9001,-4.9001,-4.9001,-4.9001,-4.9001,-4.9001,-4.9001,-4.9001,-4.9001,-4.9001,-4.9001,-4.9001,-4.9001,-4.9001,-4.9001,-4.9001,-4.9001,-4.9001,-4.9001,-4.9001,-4.9001,-4.9001,-4.9001,-4.9001,-4.9001,-4.9001,-4.8545,-4.7902,-4.7141,-4.6498,-4.5974,-4.5754,-4.5213,-4.475,-4.4632,-4.4615,-4.4615,-4.4615,-4.3945,-4.3333,-4.3105,-4.0768,-3.89,-3.868,0.0,-3.6202,-3.7394,-3.7834,-3.8179,-3.8504,-3.8772,-3.8608,-3.7863,-3.721,0.0,0.0,-3.6489,-3.6988,-3.9671,-3.8978,-3.8989,-3.9901,-3.9927,-3.9978,-4.0096,-3.9289,-3.8908,-3.8881,-3.8149,-3.8197,-3.8881,-3.8881,-3.9263,-3.989,-3.9732,-3.9281,-3.8594,-3.8571,-3.8169,-3.7569,-3.7674,-3.7719,-3.7719,-5.1952,-5.0885,-4.9976,-4.9879,-4.9389,-4.9001,-4.9001,-4.9001,-4.9001,-4.9001,-4.9001,-4.9001,-4.9001,-4.9001,-4.9001,-4.9001,-4.9001,-4.9001,-4.9001,-4.9001,-4.9001,-4.9001,-4.9001,-4.9001,-4.9001,-4.9001,-4.9001,-4.9001,-4.9001,-4.9001,-4.9001,-4.9001,-4.9001,-4.9001,-4.9001,-4.9001,-4.9001,-4.9001,-4.9001,-4.9001,-4.9001,-4.9001,-4.9001,-4.9001,-4.9001,-4.9001,-4.9001,-4.9001,-4.9001,-4.9001,-4.9001,-4.9001,-4.9001,-4.9001,-4.9001,-4.9001,-4.9001,-4.9001,-4.9001,-4.8917,-4.8663,-4.7919,-4.7618,-4.7212,-4.5991,-4.5618,-4.5348,-4.4733,-4.4615,-4.4615,-4.4615,-4.3905,-4.2928,-4.1741,-4.0062,-3.8472,-3.7159,0.0,-3.6401,-3.5831,-3.7533,-3.8264,-3.7083,-3.8129,-3.8608,-3.7863,-3.7684,-3.7696,-3.7806,-3.6955,-3.6983,-3.8121,-3.7381,-3.7642,-3.9086,-3.9086,-3.9437,-4.0096,-3.9289,-3.8908,-3.8881,-3.8149,-3.8171,-3.8803,-3.8803,-3.9205,-3.9772,-3.9094,-3.8728,-3.8591,-3.8485,-3.8367,-3.8302,-3.8886,-3.9074,-3.9074,-5.112,-5.0445,-4.9907,-4.9504,-4.9212,-4.9001,-4.9001,-4.934,-4.9593,-4.9593,-4.9949,-5.0185,-5.0185,-5.0185,-5.0185,-5.0185,-5.0185,-5.0185,-5.0185,-4.9441,-4.9001,-4.9001,-4.9001,-4.9001,-4.9001,-4.9001,-4.9001,-4.9001,-4.9001,-4.9001,-4.9001,-4.9001,-4.9001,-4.9001,-4.9001,-4.9001,-4.9001,-4.9001,-4.9001,-4.9001,-4.9001,-4.9001,-4.9001,-4.9001,-4.9001,-4.9001,-4.9001,-4.9001,-4.9001,-4.9001,-4.9001,-4.9001,-4.9001,-4.9001,-4.9001,-4.9001,-4.9001,-4.9001,-4.9001,-4.9001,-4.8934,-4.8595,-4.8176,-4.7703,-4.7056,-4.6278,-4.5602,-4.5263,-4.4874,-4.4615,-4.4615,-4.3873,-4.3112,-4.242,-4.031,0.0,0.0,-3.7383,-3.702,-3.6568,-3.8224,-3.8955,-3.7794,-3.8322,-3.8414,-3.7636,-3.7982,-3.8044,-3.7604,-3.7636,-3.7667,-3.7572,-3.7355,-3.7587,-3.8302,-3.8663,-3.9028,-3.938,-3.894,-3.873,-3.87,-3.7935,-3.7996,-3.8701,-3.8701,-3.9062,-3.9658,-3.9284,-3.91,-3.9005,-3.8953,-3.8945,-3.899,-3.9305,-3.9388,-3.9388,-5.0213,-4.9879,-4.9622,-4.9077,-4.9001,-4.9069,-4.9238,-4.9729,-5.0152,-5.0321,-5.0862,-5.1185,-5.1185,-5.1185,-5.1185,-5.1185,-5.1185,-5.1185,-5.1185,-5.0152,-4.9509,-4.9509,-4.9357,-4.9187,-4.9001,-4.9001,-4.9001,-4.9001,-4.9001,-4.9001,-4.9001,-4.9001,-4.9001,-4.9001,-4.9001,-4.9001,-4.9001,-4.9001,-4.9001,-4.9001,-4.9001,-4.9001,-4.9001,-4.9001,-4.9001,-4.9001,-4.9001,-4.9001,-4.9001,-4.9001,-4.9001,-4.9001,-4.9001,-4.9001,-4.9001,-4.9001,-4.9001,-4.9001,-4.9001,-4.9001,-4.9001,-4.9001,-4.8578,-4.8122,-4.7922,-4.7039,-4.6126,-4.5771,-4.5086,-4.4483,-4.4315,-4.3426,-4.2641,-4.2498,0.0,0.0,0.0,-3.7804,-3.7385,-3.7682,-3.8793,-3.9204,-3.8398,-3.8496,-3.8266,-3.7473,-3.7983,-3.805,-3.7439,-3.7983,-3.805,-3.7404,-3.759,-3.7798,-3.7977,-3.8516,-3.8831,-3.9028,-3.8747,-3.8594,-3.8561,-3.7763,-3.7805,-3.853,-3.853,-3.8913,-3.9557,-3.9557,-3.9499,-3.9388,-3.9388,-3.9388,-3.9388,-3.9388,-3.9388,-3.9388,-5.0033,-4.9492,-4.9063,-4.9001,-4.9001,-4.9238,-4.9898,-5.005,-5.0338,-5.1048,-5.1183,-5.1185,-5.1185,-5.1185,-5.1185,-5.1185,-5.1185,-5.1185,-5.1185,-5.1083,-5.1048,-5.1048,-5.0388,-4.9695,-4.9018,-4.9001,-4.9001,-4.9001,-4.9001,-4.9001,-4.9001,-4.9001,-4.9001,-4.9001,-4.9001,-4.9001,-4.9001,-4.9001,-4.9001,-4.9001,-4.9001,-4.9001,-4.9001,-4.9001,-4.9001,-4.9001,-4.9001,-4.9001,-4.9001,-4.9001,-4.9001,-4.9001,-4.9001,-4.9001,-4.9001,-4.9001,-4.9001,-4.9001,-4.9001,-4.9001,-4.9001,-4.9001,-4.8968,-4.8748,-4.8071,-4.7804,-4.7331,-4.5991,-4.5013,-4.4219,-4.3528,-4.2029,-4.069,-4.0146,0.0,0.0,-3.8404,-3.7392,-3.7004,-3.8191,-3.8555,-3.8365,-3.7575,-3.8167,-3.8266,-3.7473,-3.7439,-3.7473,-3.7404,-3.7439,-3.7473,-3.7404,-3.7417,-3.7798,-3.8536,-3.8583,-3.8983,-3.9715,-3.8966,-3.8594,-3.8561,-3.7763,-3.7768,-3.8407,-3.8407,-3.8812,-3.9406,-3.9406,-3.94,-3.9388,-3.9388,-3.9388,-3.9388,-3.9388,-3.9388,-3.9388,-4.9462,-4.9182,-4.9001,-4.9001,-4.9373,-4.9779,-5.005,-5.0879,-5.1555,-5.186,-5.2334,-5.2638,-5.2638,-5.2638,-5.2638,-5.2638,-5.2638,-5.2638,-5.2638,-5.2638,-5.2215,-5.1251,-5.0947,-5.0659,-5.0388,-5.0371,-5.0371,-5.0371,-5.0371,-5.0135,-4.9678,-4.9678,-4.9441,-4.9001,-4.9001,-4.9001,-4.9001,-4.9001,-4.9001,-4.9001,-4.9001,-4.9001,-4.9001,-4.9001,-4.9001,-4.9001,-4.9001,-4.9001,-4.9001,-4.9001,-4.9001,-4.9001,-4.9001,-4.9001,-4.9001,-4.9001,-4.9001,-4.9001,-4.9001,-4.9001,-4.9001,-4.9001,-4.9001,-4.8934,-4.8663,-4.824,-4.7736,-4.7192,-4.6077,-4.495,-4.4136,-4.2622,-4.1271,-4.049,0.0,-3.8752,-3.9017,-3.8612,-3.8482,-3.8975,-3.9078,-3.8983,-3.8682,-3.8928,-3.8948,-3.8646,-3.8646,-3.8646,-3.8646,-3.8646,-3.8646,-3.8646,-3.8646,-3.8382,-3.7864,-3.8258,-3.8625,-3.8946,-3.9032,-3.9087,-3.9087,-3.8787,-3.8796,-3.9035,-3.9035,-3.917,-3.9388,-3.9388,-3.9388,-3.9388,-3.9388,-3.9388,-3.9388,-3.9388,-3.9388,-3.9388,-4.9077,-4.9001,-4.9069,-4.9306,-4.9763,-5.0253,-5.071,-5.1657,-5.2384,-5.2638,-5.3162,-5.3501,-5.3501,-5.3501,-5.3501,-5.3501,-5.3501,-5.3501,-5.3501,-5.3501,-5.2926,-5.1606,-5.1555,-5.1454,-5.1217,-5.1185,-5.1185,-5.1185,-5.1185,-5.0947,-5.0439,-5.0439,-5.0185,-4.9695,-4.9458,-4.9357,-4.9323,-4.9103,-4.9001,-4.9001,-4.9001,-4.9001,-4.9001,-4.9001,-4.9001,-4.9001,-4.9001,-4.9001,-4.9001,-4.9001,-4.9001,-4.9001,-4.9001,-4.9001,-4.9001,-4.9001,-4.9001,-4.9001,-4.9001,-4.9001,-4.9001,-4.9001,-4.9001,-4.8923,-4.8625,-4.8159,-4.7678,-4.7145,-4.5982,-4.4844,-4.4026,-4.2567,-4.1307,-4.0685,-3.9945,-3.9388,-3.9388,-3.9388,-3.9388,-3.9388,-3.9388,-3.9388,-3.9388,-3.9388,-3.9388,-3.9388,-3.9388,-3.9388,-3.9388,-3.9388,-3.9388,-3.9388,-3.9388,-3.8975,-3.8048,-3.8482,-3.8706,-3.8721,-3.9185,-3.9388,-3.9388,-3.9388,-3.9388,-3.9388,-3.9388,-3.9388,-3.9388,-3.9388,-3.9388,-3.9388,-3.9388,-3.9388,-3.9388,-3.9388,-3.9388,-3.9388,-4.9001,-4.9001,-4.9238,-4.9965,-5.0101,-5.0608,-5.208,-5.2317,-5.2604,-5.3399,-5.3501,-5.3501,-5.3501,-5.3501,-5.3501,-5.3501,-5.3501,-5.3501,-5.3501,-5.3501,-5.3145,-5.235,-5.2317,-5.1978,-5.1219,-5.1202,-5.1202,-5.1202,-5.1202,-5.1202,-5.1217,-5.1217,-5.1217,-5.1183,-5.0439,-5.0101,-5.005,-4.9323,-4.9018,-4.9018,-4.9018,-4.9018,-4.9001,-4.9001,-4.9001,-4.9001,-4.9001,-4.9001,-4.9001,-4.9001,-4.9001,-4.9001,-4.9001,-4.9001,-4.9001,-4.9001,-4.9001,-4.9001,-4.9001,-4.9001,-4.9001,-4.9001,-4.9001,-4.875,-4.7803,-4.7589,-4.7143,-4.5447,-4.4429,-4.3578,-4.2855,-4.1465,-4.0412,-4.0412,-3.9858,-3.9388,-3.9388,-3.9388,-3.9388,-3.9388,-3.9388,-3.9388,-3.9388,-3.9388,-3.9388,-3.9388,-3.9388,-3.9388,-3.9388,-3.9388,-3.9388,-3.9388,-3.9388,-3.9388,-3.9388,-3.9388,-3.9388,-3.9388,-3.9388,-3.9388,-3.9388,-3.9388,-3.9388,-3.9388,-3.9388,-3.9388,-3.9388,-3.9388,-3.9388,-3.9388,-3.9388,-3.9388,-3.9388,-3.9388,-3.9388,-3.9388,-4.9001,-4.9424,-4.983,-5.005,-5.0947,-5.1792,-5.2232,-5.279,-5.323,-5.3467,-5.3501,-5.3501,-5.3501,-5.3501,-5.3501,-5.3501,-5.3501,-5.3501,-5.3501,-5.3501,-5.3399,-5.3162,-5.3145,-5.3044,-5.2824,-5.2824,-5.2824,-5.2824,-5.2824,-5.252,-5.1978,-5.1978,-5.1708,-5.12,-5.098,-5.0879,-5.0862,-5.0642,-5.0253,-4.9763,-4.9763,-4.9458,-4.9001,-4.9001,-4.9001,-4.9001,-4.9001,-4.9001,-4.9001,-4.9001,-4.9001,-4.9001,-4.9001,-4.9001,-4.9001,-4.9001,-4.9001,-4.9001,-4.9001,-4.9001,-4.9001,-4.9001,-4.9001,-4.875,-4.7803,-4.7589,-4.7274,-4.6127,-4.5241,-4.4457,-4.364,-4.2669,-4.1803,-4.1183,-4.0531,-4.0113,-4.0113,-3.9709,-3.9388,-3.9388,-3.9388,-3.9388,-3.9388,-3.9388,-3.9388,-3.9388,-3.9388,-3.9388,-3.9388,-3.9388,-3.9388,-3.9388,-3.9388,-3.9388,-3.9388,-3.9388,-3.9388,-3.9388,-3.9388,-3.9388,-3.9388,-3.9388,-3.9388,-3.9388,-3.9388,-3.9388,-3.9388,-3.9388,-3.9388,-3.9388,-3.9388,-3.9388,-3.9388,-3.9388,-3.9388,-3.9388,-4.9441,-5.0033,-5.0625,-5.0913,-5.1708,-5.2418,-5.2739,-5.3196,-5.3501,-5.3501,-5.3501,-5.3501,-5.3501,-5.3501,-5.3501,-5.3501,-5.3501,-5.3501,-5.3501,-5.3501,-5.3501,-5.3501,-5.3501,-5.3501,-5.3501,-5.3501,-5.3501,-5.3501,-5.3501,-5.3247,-5.2773,-5.2773,-5.2553,-5.2114,-5.1792,-5.1657,-5.164,-5.1303,-5.0947,-5.0541,-5.0541,-5.027,-4.9847,-4.9543,-4.9441,-4.9407,-4.9103,-4.9001,-4.9001,-4.9001,-4.9001,-4.9001,-4.9001,-4.875,-4.8433,-4.8433,-4.8193,-4.7901,-4.7901,-4.7901,-4.7901,-4.7901,-4.8193,-4.8193,-4.7273,-4.6747,-4.6224,-4.5253,-4.4684,-4.4219,-4.3692,-4.3043,-4.2393,-4.1873,-4.122,-4.0786,-4.0786,-4.0442,-4.0098,-3.9843,-3.9813,-3.9709,-3.9454,-3.9388,-3.9388,-3.9388,-3.9388,-3.9388,-3.9388,-3.9388,-3.9388,-3.9388,-3.9388,-3.9388,-3.9388,-3.9388,-3.9388,-3.9388,-3.9388,-3.9388,-3.9388,-3.9388,-3.9388,-3.9388,-3.9388,-3.9388,-3.9388,-3.9388,-3.9388,-3.9388,-3.9388,-3.9388,-3.9388,-3.9388,-3.9388,-3.9388,-5.0185,-5.0794,-5.1522,-5.2181,-5.2367,-5.2655,-5.3399,-5.3501,-5.3501,-5.3501,-5.3501,-5.3501,-5.3501,-5.3501,-5.3501,-5.3501,-5.3501,-5.3501,-5.3501,-5.3501,-5.3501,-5.3501,-5.3501,-5.3501,-5.3501,-5.3501,-5.3501,-5.3501,-5.3501,-5.3501,-5.3501,-5.3501,-5.3501,-5.3467,-5.2739,-5.2418,-5.2367,-5.1708,-5.1369,-5.1319,-5.1319,-5.1268,-5.115,-5.0456,-5.0185,-5.0101,-4.9441,-4.9154,-4.9086,-4.9018,-4.9001,-4.9001,-4.9001,-4.837,-4.7589,-4.7589,-4.6952,-4.6208,-4.6208,-4.6208,-4.6208,-4.6208,-4.6781,-4.7138,-4.6295,-4.5431,-4.451,-4.3512,-4.329,-4.329,-4.329,-4.2851,-4.2485,-4.2485,-4.1931,-4.1512,-4.1512,-4.1452,-4.116,-4.0561,-4.0487,-4.0247,-3.9649,-3.9508,-3.9514,-3.9514,-3.9418,-3.9388,-3.9388,-3.9388,-3.9388,-3.9388,-3.9388,-3.9388,-3.9388,-3.9388,-3.9388,-3.9388,-3.9388,-3.9388,-3.9388,-3.9388,-3.9388,-3.9388,-3.9388,-3.9388,-3.9388,-3.9388,-3.9388,-3.9388,-3.9388,-3.9388,-3.9388,-3.9388,-3.9388,-3.9388,-5.0862,-5.1572,-5.2114,-5.2266,-5.2824,-5.3298,-5.3467,-5.3501,-5.3501,-5.3501,-5.3501,-5.3501,-5.3501,-5.3501,-5.3501,-5.3501,-5.3501,-5.3501,-5.3501,-5.3501,-5.3501,-5.3501,-5.3501,-5.3501,-5.3501,-5.3501,-5.3501,-5.3501,-5.3501,-5.3501,-5.3501,-5.3501,-5.3501,-5.3501,-5.3315,-5.3247,-5.323,-5.3078,-5.2655,-5.2063,-5.2063,-5.1725,-5.1168,-5.1031,-5.098,-5.0947,-5.0794,-5.0355,-4.9763,-4.9187,-4.9001,-4.9001,-4.9001,-4.837,-4.7589,-4.7589,-4.6952,-4.6208,-4.6208,-4.6208,-4.6208,-4.6208,-4.5814,-4.5358,-4.5153,-4.4946,-4.451,-4.3512,-4.329,-4.329,-4.329,-4.317,-4.312,-4.312,-4.2581,-4.2186,-4.2186,-4.1737,-4.1324,-4.119,-4.1175,-4.1115,-4.0965,-4.0487,-4.0187,-4.0187,-3.9709,-3.9388,-3.9388,-3.9388,-3.9388,-3.9388,-3.9388,-3.9388,-3.9388,-3.9388,-3.9388,-3.9388,-3.9388,-3.9388,-3.9388,-3.9388,-3.9388,-3.9388,-3.9388,-3.9388,-3.9388,-3.9388,-3.9388,-3.9388,-3.9388,-3.9388,-3.9388,-3.9388,-3.9388,-3.9388,-5.1657,-5.235,-5.2875,-5.2875,-5.323,-5.3501,-5.3501,-5.3501,-5.3501,-5.3501,-5.3501,-5.3501,-5.3501,-5.3501,-5.3501,-5.3501,-5.3501,-5.3501,-5.3501,-5.3501,-5.3501,-5.3501,-5.3501,-5.3501,-5.3501,-5.3501,-5.3501,-5.3501,-5.3501,-5.3501,-5.3501,-5.3501,-5.3501,-5.3501,-5.3501,-5.3501,-5.3501,-5.3501,-5.3264,-5.2875,-5.2875,-5.2655,-5.2266,-5.1877,-5.1725,-5.1691,-5.1352,-5.0638,-4.9726,-4.8547,-4.8133,-4.81,-4.777,-4.7036,-4.6276,-4.6276,-4.5582,-4.4825,-4.4825,-4.4825,-4.4825,-4.4825,-4.4457,-4.422,-4.4699,-4.4434,-4.3927,-4.3409,-4.329,-4.329,-4.329,-4.329,-4.329,-4.329,-4.3045,-4.2821,-4.2821,-4.2536,-4.2192,-4.1931,-4.1886,-4.1767,-4.1452,-4.107,-4.0876,-4.0876,-4.0546,-4.0352,-4.0352,-4.0352,-4.0217,-3.9903,-3.9888,-3.9738,-3.9388,-3.9388,-3.9388,-3.9388,-3.9388,-3.9388,-3.9388,-3.9388,-3.9388,-3.9388,-3.9388,-3.9388,-3.9388,-3.9388,-3.9388,-3.9388,-3.9388,-3.9388,-3.9388,-3.9388,-3.9388,-3.9388,-5.2486,-5.3044,-5.3501,-5.3501,-5.3501,-5.3501,-5.3501,-5.3501,-5.3501,-5.3501,-5.3501,-5.3501,-5.3501,-5.3501,-5.3501,-5.3501,-5.3501,-5.3501,-5.3501,-5.3501,-5.3501,-5.3501,-5.3501,-5.3501,-5.3501,-5.3501,-5.3501,-5.3501,-5.3501,-5.3501,-5.3501,-5.3501,-5.3501,-5.3501,-5.3501,-5.3501,-5.3501,-5.3501,-5.3501,-5.3501,-5.3501,-5.3501,-5.3433,-5.2756,-5.252,-5.2418,-5.1826,-5.0861,-4.962,-4.7931,-4.7365,-4.7237,-4.6589,-4.5698,-4.4914,-4.4843,-4.4066,-4.329,-4.329,-4.329,-4.329,-4.329,-4.329,-4.3512,-4.4373,-4.3888,-4.329,-4.329,-4.329,-4.329,-4.329,-4.329,-4.329,-4.329,-4.329,-4.329,-4.329,-4.329,-4.3135,-4.262,-4.256,-4.2351,-4.1773,-4.1609,-4.1587,-4.1587,-4.1482,-4.1422,-4.1422,-4.1422,-4.113,-4.0591,-4.0561,-4.0307,-3.9768,-3.9753,-3.9694,-3.9553,-3.9553,-3.9493,-3.9388,-3.9388,-3.9388,-3.9388,-3.9388,-3.9388,-3.9388,-3.9388,-3.9388,-3.9388,-3.9388,-3.9388,-3.9388,-3.9388,-3.9388,-3.9388,-5.3213,-5.3433,-5.3501,-5.3501,-5.3501,-5.3501,-5.3501,-5.3501,-5.3501,-5.3501,-5.3501,-5.3501,-5.3501,-5.3501,-5.3501,-5.3501,-5.3501,-5.3501,-5.3501,-5.3501,-5.3501,-5.3501,-5.3501,-5.3501,-5.3501,-5.3501,-5.3501,-5.3501,-5.3501,-5.3501,-5.3501,-5.3501,-5.3501,-5.3501,-5.3501,-5.3501,-5.3501,-5.3501,-5.3501,-5.3501,-5.3501,-5.3501,-5.3501,-5.3382,-5.3348,-5.3331,-5.323,-5.2116,-5.0378,-4.8586,-4.7978,-4.785,-4.7269,-4.637,-4.5487,-4.4929,-4.4066,-4.329,-4.329,-4.329,-4.329,-4.329,-4.329,-4.3329,-4.3472,-4.3409,-4.329,-4.329,-4.329,-4.329,-4.329,-4.329,-4.329,-4.329,-4.329,-4.329,-4.329,-4.329,-4.326,-4.317,-4.317,-4.3125,-4.3035,-4.2566,-4.2261,-4.2261,-4.1737,-4.1422,-4.1422,-4.1422,-4.1339,-4.1287,-4.125,-4.1205,-4.1115,-4.1115,-4.0831,-4.0262,-4.0262,-3.9963,-3.9388,-3.9388,-3.9388,-3.9388,-3.9388,-3.9388,-3.9388,-3.9388,-3.9388,-3.9388,-3.9388,-3.9388,-3.9388,-3.9388,-3.9388,-3.9388,-5.3433,-5.3501,-5.3501,-5.3501,-5.3501,-5.3501,-5.3501,-5.3501,-5.3501,-5.3501,-5.3501,-5.3501,-5.3501,-5.3501,-5.3501,-5.3501,-5.3501,-5.3501,-5.3501,-5.3501,-5.3501,-5.3501,-5.3501,-5.3501,-5.3501,-5.3501,-5.3501,-5.3501,-5.3501,-5.3501,-5.3501,-5.3501,-5.3501,-5.3501,-5.3501,-5.3501,-5.3501,-5.3501,-5.3501,-5.3501,-5.3501,-5.3501,-5.3501,-5.3501,-5.3501,-5.3348,-5.2186,-5.1271,-5.0236,-4.7902,-4.7105,-4.6982,-4.6343,-4.5828,-4.5363,-4.471,-4.4212,-4.3768,-4.3394,-4.329,-4.329,-4.329,-4.329,-4.329,-4.329,-4.329,-4.329,-4.329,-4.329,-4.329,-4.329,-4.329,-4.329,-4.329,-4.329,-4.329,-4.329,-4.329,-4.329,-4.329,-4.329,-4.329,-4.329,-4.3075,-4.2895,-4.2895,-4.2641,-4.2476,-4.2476,-4.2476,-4.2312,-4.1976,-4.1976,-4.1796,-4.1422,-4.1422,-4.1235,-4.095,-4.095,-4.0412,-3.9388,-3.9388,-3.9388,-3.9388,-3.9388,-3.9388,-3.9388,-3.9388,-3.9388,-3.9388,-3.9388,-3.9388,-3.9388,-3.9388,-3.9388,-3.9388]},{"header":{"parameterUnit":"m.s-1","parameterCategory":1,"la1":30.6,"la2":28.766,"lo1":-90.7593,"lo2":-88.6598,"dy":0.0162,"dx":0.0183,"nx":116,"ny":114,"refTime":"2024-04-08T18:00:00:Z","depth":0,"parameterNumber":3,"parameterNumberName":"V-component_of_WINDS"},"data":[0.0,0.0,0.0,0.0,0.0,0.0,0.0,0.0,0.0,0.0,0.0,0.0,0.0,0.0,0.0,0.0,0.0,0.0,0.0,0.0,0.0,0.0,0.0,0.0,0.0,0.0,0.0,0.0,0.0,0.0,0.0,0.0,0.0,0.0,0.0,0.0,0.0,0.0,0.0,0.0,0.0,0.0,0.0,0.0,0.0,0.0,0.0,0.0,0.0,0.0,0.0,0.0,0.0,0.0,0.0,0.0,0.0,0.0,0.0,0.0,0.0,0.0,0.0,0.0,0.0,0.0,0.0,0.0,0.0,0.0,0.0,0.0,0.0,0.0,0.0,0.0,0.0,0.0,0.0,0.0,0.0,0.0,0.0,0.0,0.0,0.0,0.0,0.0,0.0,0.0,0.0,0.0,0.0,0.0,0.0,0.0,0.0,0.0,0.0,0.0,0.0,0.0,0.0,0.0,0.0,0.0,0.0,0.0,0.0,0.0,0.0,0.0,0.0,0.0,0.0,0.0,0.0,0.0,0.0,0.0,0.0,0.0,0.0,0.0,0.0,0.0,0.0,0.0,0.0,0.0,0.0,0.0,0.0,0.0,0.0,0.0,0.0,0.0,0.0,0.0,0.0,0.0,0.0,0.0,0.0,0.0,0.0,0.0,0.0,0.0,0.0,0.0,0.0,0.0,0.0,0.0,0.0,0.0,0.0,0.0,0.0,0.0,0.0,0.0,0.0,0.0,0.0,0.0,0.0,0.0,0.0,0.0,0.0,0.0,0.0,0.0,0.0,0.0,0.0,0.0,0.0,0.0,0.0,0.0,0.0,0.0,0.0,0.0,0.0,0.0,0.0,0.0,0.0,0.0,0.0,0.0,0.0,0.0,0.0,0.0,0.0,0.0,0.0,0.0,0.0,0.0,0.0,0.0,0.0,0.0,0.0,0.0,0.0,0.0,0.0,0.0,0.0,0.0,0.0,0.0,0.0,0.0,0.0,0.0,0.0,0.0,0.0,0.0,0.0,0.0,0.0,0.0,0.0,0.0,0.0,0.0,0.0,0.0,0.0,0.0,0.0,0.0,0.0,0.0,0.0,0.0,0.0,0.0,0.0,0.0,0.0,0.0,0.0,0.0,0.0,0.0,0.0,0.0,0.0,0.0,0.0,0.0,0.0,0.0,0.0,0.0,0.0,0.0,0.0,0.0,0.0,0.0,0.0,0.0,0.0,0.0,0.0,0.0,0.0,0.0,0.0,0.0,0.0,0.0,0.0,0.0,0.0,0.0,0.0,0.0,0.0,0.0,0.0,0.0,0.0,0.0,0.0,0.0,0.0,0.0,0.0,0.0,0.0,0.0,0.0,0.0,0.0,0.0,0.0,0.0,0.0,0.0,0.0,0.0,0.0,0.0,0.0,0.0,0.0,0.0,0.0,0.0,0.0,0.0,0.0,0.0,0.0,0.0,0.0,0.0,0.0,0.0,0.0,0.0,0.0,0.0,0.0,0.0,0.0,0.0,0.0,0.0,0.0,0.0,0.0,0.0,0.0,0.0,0.0,0.0,0.0,0.0,0.0,0.0,0.0,0.0,0.0,0.0,0.0,0.0,0.0,0.0,0.0,0.0,0.0,0.0,0.0,0.0,0.0,0.0,0.0,0.0,0.0,0.0,0.0,0.0,0.0,0.0,0.0,0.0,0.0,0.0,0.0,0.0,0.0,0.0,0.0,0.0,0.0,0.0,0.0,0.0,0.0,0.0,0.0,0.0,0.0,0.0,0.0,0.0,0.0,0.0,0.0,0.0,0.0,0.0,0.0,0.0,0.0,0.0,0.0,0.0,0.0,0.0,0.0,0.0,0.0,0.0,0.0,0.0,0.0,0.0,0.0,0.0,0.0,0.0,0.0,0.0,0.0,0.0,0.0,0.0,0.0,0.0,0.0,0.0,0.0,0.0,0.0,0.0,0.0,0.0,0.0,0.0,0.0,0.0,0.0,0.0,0.0,0.0,0.0,0.0,0.0,0.0,0.0,0.0,0.0,0.0,0.0,0.0,0.0,0.0,0.0,0.0,0.0,0.0,0.0,0.0,0.0,0.0,0.0,0.0,0.0,0.0,0.0,0.0,0.0,0.0,0.0,0.0,0.0,0.0,0.0,0.0,0.0,0.0,0.0,0.0,0.0,0.0,0.0,0.0,0.0,0.0,0.0,0.0,0.0,0.0,0.0,0.0,0.0,0.0,0.0,0.0,0.0,0.0,0.0,0.0,0.0,0.0,0.0,0.0,0.0,0.0,0.0,0.0,0.0,0.0,0.0,0.0,0.0,0.0,0.0,0.0,0.0,0.0,0.0,0.0,0.0,0.0,0.0,0.0,0.0,0.0,0.0,0.0,0.0,0.0,0.0,0.0,0.0,0.0,0.0,0.0,0.0,0.0,0.0,0.0,0.0,0.0,0.0,0.0,0.0,0.0,0.0,0.0,0.0,0.0,0.0,0.0,0.0,0.0,0.0,0.0,0.0,0.0,0.0,0.0,0.0,0.0,0.0,0.0,0.0,0.0,0.0,0.0,0.0,0.0,0.0,0.0,0.0,0.0,0.0,0.0,0.0,0.0,0.0,0.0,0.0,0.0,0.0,0.0,0.0,0.0,0.0,0.0,0.0,0.0,0.0,0.0,0.0,0.0,0.0,0.0,0.0,0.0,0.0,0.0,0.0,0.0,0.0,0.0,0.0,0.0,0.0,0.0,0.0,0.0,0.0,0.0,0.0,0.0,0.0,0.0,0.0,0.0,0.0,0.0,0.0,0.0,0.0,0.0,0.0,0.0,0.0,0.0,0.0,0.0,0.0,0.0,0.0,0.0,0.0,0.0,0.0,0.0,0.0,0.0,0.0,0.0,0.0,0.0,0.0,0.0,0.0,0.0,0.0,0.0,0.0,0.0,0.0,0.0,0.0,0.0,0.0,0.0,0.0,0.0,0.0,0.0,0.0,0.0,0.0,0.0,0.0,0.0,0.0,0.0,0.0,0.0,0.0,0.0,0.0,0.0,0.0,0.0,0.0,0.0,0.0,0.0,0.0,0.0,0.0,0.0,0.0,0.0,0.0,0.0,0.0,0.0,0.0,0.0,0.0,0.0,0.0,0.0,0.0,0.0,0.0,0.0,0.0,0.0,0.0,0.0,0.0,0.0,0.0,0.0,0.0,0.0,0.0,0.0,0.0,0.0,0.0,0.0,0.0,0.0,0.0,0.0,0.0,0.0,0.0,0.0,0.0,0.0,0.0,0.0,0.0,0.0,0.0,0.0,0.0,0.0,0.0,0.0,0.0,0.0,0.0,0.0,0.0,0.0,0.0,0.0,0.0,0.0,0.0,0.0,0.0,0.0,0.0,0.0,0.0,0.0,0.0,0.0,0.0,0.0,0.0,0.0,0.0,0.0,0.0,0.0,0.0,0.0,0.0,0.0,0.0,0.0,0.0,0.0,0.0,0.0,0.0,0.0,0.0,0.0,0.0,0.0,0.0,0.0,0.0,0.0,0.0,0.0,0.0,0.0,0.0,0.0,0.0,0.0,0.0,0.0,0.0,0.0,0.0,0.0,0.0,0.0,0.0,0.0,0.0,0.0,0.0,0.0,0.0,0.0,0.0,0.0,0.0,0.0,0.0,0.0,0.0,0.0,0.0,0.0,0.0,0.0,0.0,0.0,0.0,0.0,0.0,0.0,0.0,0.0,0.0,0.0,0.0,0.0,0.0,0.0,0.0,0.0,0.0,0.0,0.0,0.0,0.0,0.0,0.0,0.0,0.0,0.0,0.0,0.0,0.0,0.0,0.0,0.0,0.0,0.0,0.0,0.0,0.0,0.0,0.0,0.0,0.0,0.0,0.0,0.0,0.0,0.0,0.0,0.0,0.0,0.0,0.0,0.0,0.0,0.0,0.0,0.0,0.0,0.0,0.0,0.0,0.0,0.0,0.0,0.0,0.0,0.0,0.0,0.0,0.0,0.0,0.0,0.0,0.0,0.0,0.0,0.0,0.0,0.0,0.0,0.0,0.0,0.0,0.0,0.0,0.0,0.0,0.0,0.0,0.0,0.0,0.0,0.0,0.0,0.0,0.0,0.0,0.0,0.0,0.0,0.0,0.0,0.0,0.0,0.0,0.0,0.0,0.0,0.0,0.0,0.0,0.0,0.0,0.0,0.0,0.0,0.0,0.0,0.0,0.0,0.0,0.0,0.0,0.0,0.0,0.0,0.0,0.0,0.0,0.0,0.0,0.0,0.0,0.0,0.0,0.0,0.0,0.0,0.0,0.0,0.0,0.0,0.0,0.0,0.0,0.0,0.0,0.0,0.0,0.0,0.0,0.0,0.0,0.0,0.0,0.0,0.0,0.0,0.0,0.0,0.0,0.0,0.0,0.0,0.0,0.0,0.0,0.0,0.0,0.0,0.0,0.0,0.0,0.0,0.0,0.0,0.0,0.0,0.0,0.0,0.0,0.0,0.0,0.0,0.0,0.0,0.0,0.0,0.0,0.0,0.0,0.0,0.0,0.0,0.0,0.0,0.0,0.0,0.0,0.0,0.0,0.0,0.0,0.0,0.0,0.0,0.0,0.0,0.0,0.0,0.0,0.0,0.0,0.0,0.0,0.0,0.0,0.0,0.0,0.0,0.0,0.0,0.0,0.0,0.0,0.0,0.0,0.0,0.0,0.0,0.0,0.0,0.0,0.0,0.0,0.0,0.0,0.0,0.0,0.0,0.0,0.0,0.0,0.0,0.0,0.0,0.0,0.0,0.0,0.0,0.0,0.0,0.0,0.0,0.0,0.0,0.0,0.0,0.0,0.0,0.0,0.0,0.0,0.0,0.0,0.0,0.0,0.0,0.0,0.0,0.0,0.0,0.0,0.0,0.0,0.0,0.0,0.0,0.0,0.0,0.0,0.0,0.0,0.0,0.0,0.0,0.0,0.0,0.0,0.0,0.0,0.0,0.0,0.0,0.0,0.0,0.0,0.0,0.0,0.0,0.0,0.0,0.0,0.0,0.0,0.0,0.0,0.0,0.0,0.0,0.0,0.0,0.0,0.0,0.0,0.0,0.0,0.0,0.0,0.0,0.0,0.0,0.0,0.0,0.0,0.0,0.0,0.0,0.0,0.0,0.0,0.0,0.0,0.0,0.0,0.0,0.0,0.0,0.0,0.0,0.0,0.0,0.0,0.0,0.0,0.0,0.0,0.0,0.0,0.0,0.0,0.0,0.0,0.0,0.0,0.0,0.0,0.0,0.0,0.0,0.0,0.0,0.0,0.0,0.0,0.0,0.0,0.0,0.0,0.0,0.0,0.0,0.0,0.0,0.0,0.0,0.0,0.0,0.0,0.0,0.0,0.0,0.0,0.0,0.0,0.0,0.0,0.0,0.0,0.0,0.0,0.0,0.0,0.0,0.0,0.0,0.0,0.0,0.0,0.0,0.0,0.0,0.0,0.0,0.0,0.0,0.0,0.0,0.0,0.0,0.0,0.0,0.0,0.0,0.0,0.0,0.0,0.0,0.0,0.0,0.0,0.0,0.0,0.0,0.0,0.0,0.0,0.0,0.0,0.0,0.0,0.0,0.0,0.0,0.0,0.0,0.0,0.0,0.0,0.0,0.0,0.0,0.0,0.0,0.0,0.0,0.0,0.0,0.0,0.0,0.0,0.0,0.0,0.0,0.0,0.0,0.0,0.0,0.0,0.0,0.0,0.0,0.0,0.0,0.0,0.0,0.0,0.0,0.0,0.0,0.0,0.0,0.0,0.0,0.0,0.0,0.0,0.0,0.0,0.0,0.0,0.0,0.0,0.0,0.0,0.0,0.0,0.0,0.0,0.0,0.0,0.0,0.0,0.0,0.0,0.0,0.0,0.0,0.0,0.0,0.0,0.0,0.0,0.0,0.0,0.0,0.0,0.0,0.0,0.0,0.0,0.0,0.0,0.0,0.0,0.0,0.0,0.0,0.0,0.0,0.0,0.0,0.0,0.0,0.0,0.0,0.0,0.0,0.0,0.0,0.0,0.0,0.0,0.0,0.0,0.0,0.0,0.0,0.0,0.0,0.0,0.0,0.0,0.0,0.0,0.0,0.0,0.0,0.0,0.0,0.0,-0.4201,0.0,0.0,0.0,0.0,0.0,0.0,0.0,0.0,0.0,0.0,0.0,0.0,0.0,0.0,0.0,0.0,0.0,0.0,0.0,0.0,0.0,0.0,0.0,0.0,0.2696,0.2513,0.2047,0.1836,0.1445,0.0752,0.0,0.0,0.0,0.0,0.0,0.0,0.029,0.0436,0.0426,0.0719,0.098,0.125,0.2307,0.2773,0.2797,0.0,0.0,0.0,0.0,0.0,0.0,0.0,0.0,0.0,0.0,0.0,0.0,0.0,0.0,0.0,0.0,0.0,0.0,0.0,0.0,0.0,0.0,0.0,0.0,0.0,0.0,0.0,0.0,0.0,0.0,0.0,0.0,0.0,0.0,0.0,0.0,0.0,0.0,0.0,0.0,0.0,0.0,0.0,0.0,0.0,0.0,0.0,0.0,0.0,0.0,0.0,0.0,0.0,0.0,0.0,0.0,0.0,0.0,0.0,0.0,0.0,0.0,0.0,0.0,0.0,0.0,0.0,0.0,0.0,0.0,0.0,-0.4195,0.0,0.0,0.0,0.0,0.0,0.0,0.0,0.0,0.0,0.0,0.0,0.0,0.0,0.0,0.0,0.0,0.0,0.0,0.0,0.0,0.0,0.2696,0.2696,0.2723,0.2585,0.2194,0.2212,0.1892,0.1069,0.1033,0.0841,0.0333,0.0316,0.0317,0.0317,0.0699,0.0905,0.089,0.1295,0.1489,0.151,0.2343,0.2539,0.2245,0.2998,0.0,0.0,0.0,0.0,0.0,0.0,0.0,0.0,0.0,0.0,0.0,0.0,0.0,0.0,0.0,0.0,0.0,0.0,0.0,0.0,0.0,0.0,0.0,0.0,0.0,0.0,0.0,0.0,0.0,0.0,0.0,0.0,0.0,0.0,0.0,0.0,0.0,0.0,0.0,0.0,0.0,0.0,0.0,0.0,0.0,0.0,0.0,0.0,0.0,0.0,0.0,0.0,0.0,0.0,0.0,0.0,0.0,0.0,0.0,0.0,0.0,0.0,0.0,0.0,0.0,-0.1964,-0.2154,-0.2122,-0.2053,-0.3942,-0.464,-0.4408,0.0,0.0,0.0,0.0,0.0,0.0,0.0,0.0,0.0,0.0,0.0,0.0,0.0,0.0,0.0,0.0,0.0,0.0,0.0,0.0,0.2696,0.2696,0.2801,0.2844,0.279,0.2579,0.2402,0.2265,0.1905,0.1637,0.1559,0.1562,0.1555,0.1555,0.1121,0.0892,0.0913,0.0451,0.0249,0.0252,0.0894,0.1541,0.225,0.3694,0.4095,0.371,0.0,0.0,0.0,0.0,0.0,0.0,0.0,0.0,0.0,0.0,0.0,0.0,0.0,0.0,0.0,0.0,0.0,0.0,0.0,0.0,0.0,0.0,0.0,0.0,0.0,0.0,0.0,0.0,0.0,0.0,0.0,0.0,0.0,0.0,0.0,0.0,0.0,0.0,0.0,0.0,0.0,-0.1149,-0.1238,0.0,0.0,0.0,0.0,0.0,0.0,0.0,0.0,0.0,0.0,0.0,0.0,0.0,0.0,-0.179,-0.2029,-0.2156,-0.2157,-0.2435,-0.2596,-0.2596,-0.3484,-0.3413,-0.2656,-0.433,0.0,-0.2551,-0.2491,0.0,0.0,0.0,0.0,0.0,0.0,0.0,0.0,0.0,0.0,0.0,0.0,0.0,0.0,0.0,0.0,0.0,0.0,0.0,0.0,0.0,0.2996,0.3172,0.328,0.2948,0.2715,0.2721,0.2077,0.1691,0.1692,0.1577,0.1512,0.1512,0.1371,0.1153,0.0909,0.0295,0.0312,0.0916,0.1665,0.2543,0.3549,0.4722,0.4856,0.4197,0.4266,0.0,0.0,0.0,0.0,0.0,0.0,0.0,0.0,0.0,0.0,0.0,0.0,0.0,0.0,0.0,0.0,0.0,0.0,0.0,0.0,0.0,0.0,0.0,0.0,0.0,0.0,0.0,0.0,0.0,0.0,0.0,0.0,0.0,0.0,0.0,0.0,0.0,0.0,0.0,-0.1018,-0.1404,-0.167,-0.2418,-0.2964,0.0,0.0,0.0,0.0,0.0,0.0,0.0,0.0,0.0,-0.3047,-0.3213,-0.2802,-0.1699,-0.189,-0.1989,-0.199,-0.211,-0.2209,-0.2249,-0.3353,-0.288,-0.1263,-0.263,-0.2385,-0.1065,-0.2433,-0.3302,-0.3727,0.0,0.0,0.0,0.0,0.0,-0.2844,0.0,0.0,0.0,0.0,0.0,0.0,0.0,0.0,0.0,0.0,0.0,0.0,0.3005,0.33,0.3559,0.3737,0.3473,0.3244,0.3147,0.251,0.2116,0.1986,0.1873,0.181,0.181,0.1959,0.1836,0.146,0.1002,0.1064,0.16,0.2252,0.2975,0.3731,0.464,0.4897,0.4665,0.4706,0.4565,0.0,0.0,0.0,0.0,0.0,0.0,0.0,0.0,0.0,0.0,0.0,0.0,0.0,0.0,0.0,0.0,0.0,0.0,0.0,0.0,0.0,0.0,0.0,0.0,0.0,0.0,0.0,0.0,0.0,0.0,0.0,0.0,0.0,0.0,0.0,0.0,0.0,0.0,-0.1105,-0.1434,-0.1782,-0.2148,-0.2605,0.0,0.0,0.0,0.0,0.0,0.0,-0.36,-0.4499,-0.4667,-0.3905,-0.4138,-0.3565,-0.2135,-0.2208,-0.2263,-0.2263,-0.2263,-0.2263,-0.2305,-0.3475,-0.285,-0.1008,-0.243,-0.2221,-0.0958,-0.2163,-0.2907,-0.3162,-0.2266,-0.1957,0.0,-0.1885,-0.1913,-0.1961,0.0,0.0,0.0,0.0,0.0,0.0,0.0,0.0,0.0,0.0,0.0,0.3158,0.3355,0.3724,0.4021,0.415,0.4331,0.4237,0.3772,0.3721,0.3481,0.3053,0.3142,0.3189,0.3189,0.3211,0.3153,0.2994,0.2956,0.2498,0.16,0.1636,0.1599,0.149,0.2577,0.3809,0.5073,0.5286,0.5095,0.4643,0.0,0.0,0.0,0.0,0.0,0.0,0.0,0.0,0.0,0.0,0.0,0.0,0.0,0.0,0.0,0.0,0.0,0.0,0.0,0.0,0.0,0.0,0.0,0.0,0.0,0.0,0.0,0.0,0.0,0.0,0.0,0.0,0.0,0.0,0.0,0.0,0.0,0.0,0.0,-0.1322,-0.2252,0.0,0.0,0.0,0.0,-0.5137,-0.447,-0.4109,-0.4424,-0.4619,-0.4388,-0.3639,-0.3618,-0.3584,-0.3501,-0.3514,-0.3521,-0.3521,-0.3521,-0.3521,-0.3561,-0.4559,-0.4435,-0.3519,-0.5568,-0.5189,-0.2972,-0.1,-0.0789,-0.169,-0.1312,-0.1761,-0.2585,-0.2168,-0.2187,-0.2451,0.0,0.0,0.0,0.0,0.0,0.4756,0.4104,0.3309,0.2778,0.2822,0.3067,0.334,0.3631,0.4124,0.4514,0.4638,0.4345,0.4275,0.4482,0.3605,0.3224,0.3539,0.3219,0.3083,0.3158,0.2797,0.2447,0.2134,0.1441,0.1271,0.1603,0.1586,0.2315,0.3629,0.4031,0.4917,0.6118,0.5786,0.5501,0.525,0.5047,0.4791,0.0,0.0,0.0,0.0,0.0,0.0,0.0,0.0,0.0,0.0,0.0,0.0,0.0,0.0,0.0,0.0,0.0,0.0,0.0,0.0,0.0,0.0,0.0,0.0,0.0,0.0,0.0,0.0,0.0,0.0,0.0,0.0,0.0,0.0,0.0,0.0,0.0,-0.1118,-0.1104,0.0,0.0,-0.2142,-0.2574,-0.3717,-0.4349,-0.4755,-0.4874,-0.5572,-0.5846,-0.5607,-0.5689,-0.5344,-0.4574,-0.4683,-0.4759,-0.4759,-0.4759,-0.4759,-0.4759,-0.5152,-0.4235,-0.2492,-0.3233,-0.2666,-0.1095,-0.0307,-0.0647,-0.1506,-0.0695,-0.0608,-0.0928,-0.0781,-0.0779,-0.0868,0.0,0.0,0.0,0.0,0.5395,0.4663,0.3973,0.3203,0.2771,0.2936,0.3263,0.3607,0.4006,0.4507,0.4901,0.5057,0.4688,0.4522,0.4663,0.375,0.3319,0.3559,0.3385,0.3312,0.3396,0.3018,0.2561,0.2097,0.1405,0.1455,0.2216,0.2165,0.2974,0.4483,0.4816,0.5399,0.6169,0.6116,0.602,0.5861,0.5593,0.517,0.466,0.0,0.0,0.0,0.0,0.0,0.0,0.0,0.0,0.0,0.0,0.0,0.0,0.0,0.0,0.0,0.0,0.0,0.0,0.0,0.0,0.0,0.0,0.0,0.0,0.0,0.0,0.0,0.0,0.0,0.0,0.0,0.0,0.0,0.0,0.0,-0.0171,-0.0658,-0.0306,-0.0353,-0.1175,-0.1233,-0.1685,-0.2884,-0.3605,-0.4145,-0.4526,-0.5241,-0.5862,-0.6251,-0.634,-0.621,-0.5768,-0.5893,-0.6002,-0.6093,-0.6093,-0.5843,-0.5468,-0.5885,-0.4748,-0.2435,-0.2852,-0.2086,-0.0616,-0.0625,-0.0794,-0.0987,-0.0299,0.0,0.0,0.0,0.0,0.0,0.0,0.0,0.0,0.5884,0.5295,0.4636,0.3774,0.3121,0.2802,0.3057,0.3514,0.3989,0.4436,0.4863,0.5199,0.5382,0.5395,0.505,0.4264,0.4204,0.3869,0.3119,0.3638,0.3938,0.3963,0.3951,0.3628,0.3037,0.3068,0.3144,0.3353,0.3315,0.3442,0.3695,0.4694,0.5111,0.5238,0.6287,0.662,0.6474,0.5854,0.543,0.5073,0.0,0.0,0.0,0.0,0.0,0.0,0.0,0.0,0.0,0.0,0.0,0.0,0.0,0.0,0.0,0.0,0.0,0.0,0.0,0.0,0.0,0.0,0.0,0.0,0.0,0.0,0.0,0.0,0.0,0.0,0.0,0.0,0.0,0.0,0.0,0.0,0.0,0.0,-0.0421,-0.1469,-0.0631,-0.0884,-0.2896,-0.2313,-0.2299,-0.3338,-0.353,-0.4146,-0.5309,-0.5356,-0.5894,-0.7051,-0.7013,-0.7138,-0.7426,-0.7377,-0.675,-0.5682,-0.6786,-0.5955,-0.3653,-0.4747,-0.3891,-0.1732,-0.1764,-0.1077,0.0,0.0,0.0,0.0,0.0,0.0,0.0,0.0,0.0,0.6931,0.6685,0.5913,0.5156,0.4626,0.3742,0.3096,0.2977,0.3522,0.4021,0.4254,0.4901,0.5347,0.5392,0.5395,0.5214,0.4732,0.4402,0.3745,0.2717,0.2837,0.0,0.2901,0.2485,0.2159,0.1992,0.2123,0.2189,0.2276,0.3137,0.3993,0.4915,0.5177,0.579,0.657,0.678,0.6841,0.677,0.6386,0.5983,0.5593,0.0,0.0,0.0,0.0,0.0,0.0,0.0,0.0,0.0,0.0,0.0,0.0,0.0,0.0,0.0,0.0,0.0,0.0,0.0,0.0,0.0,0.0,0.0,0.0,0.0,0.0,0.0,0.0,0.0,0.0,0.0,0.0,0.0,0.0,0.0,0.0,0.0,0.0,-0.0129,-0.0431,-0.096,-0.154,-0.211,-0.2738,-0.3232,-0.3541,-0.3599,-0.3756,-0.4106,-0.4076,-0.473,-0.5985,-0.5057,-0.5567,-0.7536,-0.6537,-0.6415,-0.7023,-0.5472,-0.4398,-0.366,-0.2145,-0.1116,-0.0507,-0.0513,-0.0279,0.0,0.0,0.0,0.0,0.0,0.0,0.0,0.0,0.7405,0.6926,0.67,0.6028,0.5327,0.4849,0.3942,0.3289,0.3283,0.3706,0.4075,0.4314,0.4982,0.5395,0.5395,0.5453,0.5283,0.4758,0.4399,0.3881,0.3172,0.0,0.3061,0.2887,0.2499,0.2336,0.2422,0.2518,0.2808,0.3335,0.404,0.4999,0.6115,0.6115,0.6473,0.7092,0.7007,0.6974,0.6953,0.6759,0.6318,0.5793,0.5708,0.5413,0.5012,0.5012,0.5098,0.5145,0.4942,0.0,0.0,0.0,0.0,0.0,0.0,0.0,0.0,0.0,0.0,0.0,0.0,0.0,0.0,0.0,0.0,0.0,0.0,0.0,0.0,0.0,0.0,0.0,0.0,0.0,0.0,0.0,0.0,0.0,0.0,0.0,0.0,0.0,-0.0628,-0.1044,-0.1044,-0.169,-0.211,-0.211,-0.2088,-0.2326,-0.2812,-0.2846,-0.3455,-0.4734,-0.3999,-0.4431,-0.6005,-0.5234,-0.4967,-0.5199,-0.4244,-0.3239,0.0,-0.1185,-0.0472,0.0,0.0,0.0,0.0,0.0,0.0,0.0,0.0,0.0,0.0,0.0,0.7468,0.6847,0.6337,0.5875,0.5366,0.4751,0.3961,0.3535,0.3796,0.3972,0.4189,0.4481,0.504,0.5395,0.5395,0.5487,0.5223,0.4559,0.4254,0.407,0.4035,0.3953,0.3781,0.3421,0.336,0.3433,0.3608,0.3715,0.433,0.5403,0.5536,0.6115,0.7095,0.7095,0.7095,0.7095,0.7095,0.7095,0.7085,0.696,0.6542,0.5925,0.5908,0.5566,0.5094,0.5094,0.5084,0.5081,0.5123,0.0,0.0,0.0,0.0,0.0,0.0,0.0,0.0,0.0,0.0,0.0,0.0,0.0,0.0,0.0,0.0,0.0,0.0,0.0,0.0,0.0,0.0,0.0,0.0,0.0,0.0,0.0,0.0,0.0,0.0,0.0,0.0,0.0,0.0,0.0,0.0,0.0,0.0,0.0,0.0,0.0,0.0,0.0,-0.2197,-0.3417,-0.3278,-0.3423,-0.3824,-0.3677,-0.3117,-0.2263,-0.3162,-0.236,-0.028,-0.1189,-0.0987,0.0,0.0,0.0,0.0,0.0,0.0,0.0,0.0,0.0,0.0,0.0,0.7703,0.6893,0.6586,0.6275,0.5833,0.5113,0.4631,0.4252,0.4002,0.431,0.4584,0.4656,0.5105,0.5395,0.5395,0.5169,0.4935,0.4663,0.3978,0.3725,0.4146,0.3689,0.3476,0.3542,0.3549,0.3549,0.3593,0.4588,0.5179,0.5403,0.6337,0.6871,0.7095,0.7095,0.7095,0.7095,0.7095,0.7095,0.7095,0.7065,0.69,0.6657,0.6573,0.638,0.6173,0.6173,0.6136,0.5986,0.5613,0.5501,0.5508,0.5538,0.0,0.0,0.0,0.0,0.0,0.0,0.0,0.0,0.0,0.0,0.0,0.0,0.0,0.0,0.0,0.0,0.0,0.0,0.0,0.0,0.0,0.0,0.0,0.0,0.0,0.0,0.0,0.0,0.0,0.0,0.0,0.0,0.0,0.0,0.0,0.0,0.0,0.0,-0.0322,-0.0329,-0.0996,-0.2304,-0.1223,-0.1797,-0.3945,0.0,0.0,-0.3565,-0.2754,-0.2094,-0.1585,-0.0697,-0.0199,0.0,0.0,0.0,0.0,0.0,0.0,0.0,0.0,0.0,0.0,0.0,0.7786,0.6867,0.6466,0.629,0.5969,0.5307,0.4863,0.4476,0.415,0.4307,0.445,0.4447,0.4764,0.4972,0.5051,0.4755,0.4678,0.5037,0.4639,0.4452,0.4541,0.4281,0.4209,0.4495,0.4504,0.4774,0.5351,0.5935,0.6248,0.6248,0.6827,0.7095,0.7095,0.7095,0.7095,0.7095,0.7095,0.7095,0.7095,0.7095,0.7055,0.6974,0.6871,0.6671,0.6511,0.6511,0.6419,0.6265,0.6037,0.5962,0.5962,0.5962,0.582,0.5606,0.0,0.0,0.0,0.0,0.0,0.0,0.0,0.0,0.0,0.0,0.0,0.0,0.0,0.0,0.0,0.0,0.0,0.0,0.0,0.0,0.0,0.0,0.0,0.0,0.0,0.0,0.0,0.0,0.0,0.0,0.0,0.0,0.0,0.0,0.0,0.0,0.0,0.0,-0.03,-0.0981,-0.0357,-0.0674,-0.1966,-0.1295,-0.1346,-0.1965,-0.1282,-0.1022,-0.0971,-0.0304,0.0,0.0,0.0,0.0,0.0,0.0,0.0,0.0,0.0,0.0,0.0,0.0,0.7786,0.684,0.6297,0.6196,0.5994,0.5387,0.4969,0.4625,0.4321,0.4317,0.4291,0.4221,0.4375,0.4505,0.4514,0.4324,0.45,0.5221,0.5347,0.5339,0.5234,0.5257,0.5373,0.5663,0.5698,0.616,0.7095,0.7095,0.7095,0.7095,0.7095,0.7095,0.7095,0.7095,0.7095,0.7095,0.7095,0.7095,0.7095,0.7095,0.7095,0.7085,0.697,0.68,0.6556,0.6566,0.6463,0.6337,0.631,0.63,0.63,0.63,0.63,0.6146,0.5321,0.5348,0.0,0.0,0.0,0.0,0.0,0.0,0.0,0.0,0.0,0.0,0.0,0.0,0.0,0.0,0.0,0.0,0.0,0.0,0.0,0.0,0.0,0.0,0.0,0.0,0.0,0.0,0.0,0.0,0.0,0.0,0.0,0.0,0.0,0.0,0.0,0.0,0.0,0.0,0.0,0.0,0.0,0.0,0.0,0.0,0.0,0.0,0.0,0.0,0.0,0.0,0.0,0.0,0.0,0.0,0.0,0.0,0.0,0.0,0.0,0.0,0.7786,0.684,0.6297,0.6196,0.5994,0.5387,0.5261,0.5055,0.4611,0.4712,0.4654,0.4247,0.4375,0.4334,0.3924,0.4085,0.4368,0.4745,0.517,0.5694,0.6278,0.6453,0.656,0.6708,0.6846,0.6962,0.7095,0.7095,0.7095,0.7095,0.7095,0.7095,0.7095,0.7095,0.7095,0.7095,0.7095,0.7095,0.7095,0.7095,0.7095,0.7095,0.7078,0.6974,0.6861,0.6722,0.6576,0.647,0.634,0.63,0.63,0.63,0.63,0.6224,0.5813,0.0,0.561,0.4847,0.3893,0.2637,0.061,0.0538,0.0804,0.0,0.0,0.0,0.0,0.0,0.0,0.0,0.0,0.0,0.0,0.0,0.0,0.0,0.0,0.0,0.0,0.0,0.0,0.0,0.0,0.0,0.0,0.0,0.0,0.0,0.0,0.0,0.0,0.0,0.0,0.0,0.0,0.0,0.0,0.0,0.0,0.0,0.0,0.0,0.0,0.0,0.0,0.0,0.0,0.0,0.0,0.0,0.0,0.0,0.0,0.0,0.0,0.0,0.0,0.7249,0.6353,0.6196,0.5994,0.5387,0.5293,0.5168,0.4818,0.4976,0.4928,0.4372,0.4186,0.3927,0.3542,0.3711,0.4097,0.4653,0.5026,0.5599,0.6474,0.6617,0.6773,0.6883,0.7024,0.7095,0.7095,0.7095,0.7095,0.7095,0.7095,0.7095,0.7095,0.7095,0.7095,0.7095,0.7095,0.7095,0.7095,0.7095,0.7095,0.7095,0.7095,0.7007,0.6842,0.6563,0.6288,0.0,0.0,0.5939,0.5951,0.6218,0.6177,0.5966,0.5837,0.5681,0.0,0.4417,0.4038,0.0,0.0,0.1079,0.1262,0.0241,0.0,0.0,0.0,0.0,0.0,0.0,0.0,0.0,0.0,0.0,0.0,0.0,0.0,0.0,0.0,0.0,0.0,0.0,0.0,0.0,0.0,0.0,0.0,0.0,0.0,0.0,0.0,0.0,0.0,0.0,0.0,0.0,0.0,0.0,0.0,0.0,0.0,0.0,0.0,0.0,0.0,0.0,0.0,0.0,0.0,0.0,0.0,0.0,0.0,0.0,0.0,0.0,0.0,0.0,0.6575,0.6213,0.59,0.5373,0.5293,0.519,0.4864,0.509,0.5141,0.4704,0.435,0.3998,0.3572,0.3763,0.4111,0.461,0.4982,0.5538,0.6315,0.6536,0.6688,0.68,0.6943,0.7038,0.7038,0.7078,0.7095,0.7095,0.7095,0.7095,0.7095,0.7095,0.7095,0.7095,0.7095,0.7095,0.7095,0.7095,0.7095,0.7092,0.7051,0.69,0.6698,0.6329,0.6027,0.0,0.0,0.5599,0.5684,0.5921,0.5911,0.5847,0.5766,0.5532,0.5124,0.4284,0.0,0.0,0.2257,0.2216,0.2232,0.0801,0.0494,0.0404,0.009,0.0,0.0,0.0,0.0,0.0,0.0,0.0,0.0,0.0,0.0,0.0,0.0,0.0,0.0,0.0,0.0,0.0,0.0,0.0,0.0,0.0,0.0,0.0,0.0,0.0,0.0,0.0,0.0,0.0,0.0,0.0,0.0,0.0,0.0,0.0,0.0,0.0,0.0,0.0,0.0,0.0,0.0,0.0,0.0,0.0,0.0,0.0,0.0,0.0,0.0,0.0,0.0,0.6275,0.5625,0.534,0.5293,0.5135,0.4678,0.5022,0.5298,0.5267,0.5142,0.4822,0.423,0.448,0.4617,0.4522,0.5057,0.5593,0.5986,0.6322,0.6521,0.6525,0.678,0.6893,0.6893,0.7028,0.7095,0.7095,0.7095,0.7095,0.7095,0.7095,0.7095,0.7095,0.7095,0.7095,0.7095,0.7095,0.7095,0.7082,0.6943,0.6664,0.6296,0.6095,0.0,0.0,0.0,0.5325,0.5722,0.5265,0.5524,0.0,0.5681,0.5379,0.0,0.0,0.0,0.4831,0.3789,0.4091,0.4127,0.2205,0.1746,0.1433,0.0225,0.0,0.0,0.0,0.0,0.0,0.0,0.0,0.0,0.0,0.0,0.0,0.0,0.0,0.0,0.0,0.0,0.0,0.0,0.0,0.0,0.0,0.0,0.0,0.0,0.0,0.0,0.0,0.0,0.0,0.0,0.0,0.0,0.0,0.0,0.0,0.0,0.0,0.0,0.0,0.0,0.0,0.0,0.0,0.0,0.0,0.0,0.0,0.0,0.0,0.0,0.0,0.0,0.0,0.5999,0.5738,0.5475,0.5246,0.5087,0.5192,0.0,0.0,0.0,0.0,0.0,0.4964,0.5111,0.5475,0.5526,0.576,0.6261,0.6433,0.6511,0.6511,0.6671,0.6827,0.6886,0.6933,0.7004,0.7095,0.7095,0.7095,0.7095,0.7095,0.7095,0.7095,0.7095,0.7095,0.7088,0.6994,0.6957,0.691,0.6461,0.6176,0.5871,0.0,0.0,0.0,0.0,0.0,0.0,0.5238,0.0,0.0,0.4962,0.0,0.0,0.0,0.0,0.5749,0.4599,0.4731,0.4567,0.2314,0.179,0.1478,0.0269,0.0,0.0,0.0,0.0,0.0,0.0,0.0,0.0,0.0,0.0,0.0,0.0,0.0,0.0,0.0,0.0,0.0,0.0,0.0,0.0,0.0,0.0,0.0,0.0,0.0,0.0,0.0,0.0,0.0,0.0,0.0,0.0,0.0,0.0,0.0,0.0,0.0,0.0,0.0,0.0,0.0,0.0,0.0,0.0,0.0,0.0,0.0,0.0,0.0,0.0,0.0,0.0,0.0,0.0,0.0,0.0,0.0,0.0,0.0,0.0,0.0,0.0,0.0,0.0,0.0,0.5624,0.5907,0.5811,0.5994,0.6538,0.6542,0.6591,0.6721,0.6707,0.6741,0.6844,0.7194,0.7229,0.6983,0.7321,0.7321,0.694,0.694,0.694,0.6983,0.7321,0.757,0.7678,0.7511,0.749,0.7504,0.665,0.6158,0.0,0.0,0.0,0.0,0.0,0.0,0.0,0.0,0.0,0.0,0.0,0.0,0.0,0.0,0.6034,0.6347,0.5711,0.5803,0.5401,0.2994,0.2771,0.2505,0.0449,0.0702,0.1113,0.0548,0.0544,0.0593,0.049,0.0223,0.0,0.0,0.0,0.0,0.0,0.0,0.0,0.0,0.0,0.0,0.0,0.0,0.0,0.0,0.0,0.0,0.0,0.0,0.0,0.0,0.0,0.0,0.0,0.0,0.0,0.0,0.0,0.0,0.0,0.0,0.0,0.0,0.0,0.0,0.0,0.0,0.0,0.0,0.0,0.0,0.0,0.0,0.0,0.0,0.0,0.0,0.0,0.0,0.0,0.0,0.0,0.0,0.0,0.0,0.0,0.0,0.0,0.0,0.0,0.5875,0.0,0.0,0.6856,0.6719,0.6775,0.7094,0.6835,0.6726,0.6734,0.7659,0.7634,0.6754,0.7682,0.7638,0.6713,0.6713,0.6713,0.6795,0.7719,0.8345,0.8608,0.841,0.8508,0.8649,0.7349,0.0,0.0,0.0,0.0,0.0,0.0,0.0,0.0,0.0,0.0,0.0,0.0,0.0,0.5349,0.6213,0.6511,0.6607,0.6991,0.7095,0.6514,0.4194,0.4599,0.4419,0.0893,0.1956,0.306,0.0,0.0,0.1601,0.1286,0.0545,0.0,0.0,0.0,0.0,0.0,0.0,0.0,0.0,0.0,0.0,0.0,0.0,0.0,0.0,0.0,0.0,0.0,0.0,0.0,0.0,0.0,0.0,0.0,0.0,0.0,0.0,0.0,0.0,0.0,0.0,0.0,0.0,0.0,0.0,0.0,0.0,0.0,0.0,0.0,0.0,0.0,0.0,0.0,0.0,0.0,0.0,0.0,0.0,0.0,0.0,0.0,0.0,0.0,0.0,0.0,0.0,0.0,0.0,0.0,0.0,0.0,0.0,0.0,0.0,0.0,0.0,0.0,0.0,0.7136,0.7194,0.7155,0.7011,0.7255,0.7255,0.7015,0.7015,0.7015,0.7011,0.729,0.742,0.7508,0.0,0.7325,0.7358,0.0,0.0,0.0,0.0,0.0,0.0,0.0,0.0,0.0,0.0,0.0,0.5437,0.0,0.0,0.6108,0.6,0.6461,0.6953,0.7068,0.7095,0.6738,0.5267,0.5179,0.4803,0.2603,0.2226,0.2015,0.0,0.0,0.0,0.033,0.0128,0.0,0.0,0.0,0.0,0.0,0.0,0.0,0.0,0.0,0.0,0.0,0.0,0.0,0.0,0.0,0.0,0.0,0.0,0.0,0.0,0.0,0.0,0.0,0.0,0.0,0.0,0.0,0.0,0.0,0.0,0.0,0.0,0.0,0.0,0.0,0.0,0.0,0.0,0.0,0.0,0.0,0.0,0.0,0.0,0.0,0.0,0.0,0.0,0.0,0.0,0.0,0.0,0.0,0.0,0.0,0.0,0.0,0.0,0.0,0.0,0.0,0.0,0.0,0.0,0.0,0.0,0.0,0.0,0.0,0.0,0.0,0.7108,0.7426,0.732,0.6881,0.6881,0.6881,0.6912,0.7382,0.0,0.0,0.0,0.0,0.0,0.0,0.0,0.0,0.0,0.0,0.0,0.0,0.0,0.5332,0.5911,0.5959,0.583,0.5936,0.0,0.6501,0.6403,0.6714,0.7095,0.7095,0.7095,0.6734,0.5387,0.5522,0.5249,0.3056,0.3099,0.0,0.0,0.0,0.0,0.0,0.0,0.0,0.0047,0.0,0.0,0.0,0.0,0.0,0.0,0.0,0.0,0.0,0.0,0.0,0.0,0.0,0.0,0.0,0.0,0.0,0.0,0.0,0.0,0.0,0.0,0.0,0.0,0.0,0.0,0.0,0.0,0.0,0.0,0.0,0.0,0.0,0.0,0.0,0.0,0.0,0.0385,0.0872,0.0,0.0,0.0,0.0,0.0,0.0,0.0,0.0,0.0,0.0,0.611,0.6204,0.0,0.0,0.0,0.0,0.0,0.0,0.0,0.0,0.0,0.0,0.0,0.0,0.0,0.0,0.0,0.0,0.0,0.0,0.0,0.0,0.0,0.0,0.0,0.0,0.0,0.0,0.0,0.0,0.0,0.0,0.0,0.0,0.0,0.0,0.0,0.0,0.0,0.0,0.6113,0.5614,0.6364,0.6295,0.6118,0.6798,0.6817,0.663,0.692,0.7051,0.7095,0.7095,0.7095,0.6729,0.5322,0.5782,0.5786,0.3204,0.0,0.0,0.3062,0.0,0.3702,0.1883,0.0,0.1501,0.0559,0.0289,0.0296,0.05,0.0358,0.0265,0.0279,0.0446,0.0446,0.028,0.0273,0.0215,0.0,0.0,0.0,0.0,0.0,0.0,0.0,0.0,0.0,0.0,0.0,0.0,0.0,0.0,0.0,0.0,0.0,0.0,0.0,0.0,0.0,0.0,0.0,0.0112,0.028,0.028,0.122,0.2299,0.0,0.0,0.0,0.0,0.0,0.0,0.0,0.0,0.0,0.0,0.6332,0.6257,0.0,0.0,0.0,0.0,0.0,0.0,0.0,0.0,0.0,0.0,0.0,0.0,0.0,0.0,0.0,0.0,0.0,0.0,0.0,0.0,0.0,0.0,0.0,0.0,0.0,0.0,0.0,0.0,0.0,0.0,0.0,0.0,0.0,0.0,0.0,0.0,0.0,0.0,0.611,0.6006,0.6748,0.6927,0.6822,0.6651,0.6797,0.6916,0.6668,0.6858,0.7095,0.7095,0.7095,0.7031,0.6733,0.6569,0.0,0.0,0.0,0.4183,0.3818,0.3419,0.0,0.3033,0.0,0.0,0.0,0.0,0.1755,0.0,0.0,0.0,0.0,0.0,0.0,0.0,0.0,0.0,0.0056,0.0,0.0,0.0,0.0,0.0,0.0,0.0,0.0,0.0,0.0,0.0,0.0,0.0,0.0,0.0,0.0,0.0,0.0,0.0,0.0,0.0,0.0,0.0728,0.1845,0.1845,0.279,0.4055,0.0,0.0,0.0,0.0,0.0,0.0,0.0,0.7062,0.6799,0.5933,0.5775,0.5837,0.611,0.6414,0.6707,0.0,0.0,0.0,0.0,0.0,0.0,0.0,0.0,0.0,0.0,0.0,0.0,0.0,0.0,0.0,0.0,0.0,0.0,0.0,0.0,0.0,0.0,0.0,0.0,0.0,0.0,0.0,0.0,0.0,0.0,0.0,0.0,0.0,0.0,0.0,0.6354,0.6208,0.6873,0.7095,0.7007,0.6603,0.679,0.6997,0.6593,0.68,0.7095,0.7095,0.7095,0.6974,0.6509,0.0,0.0,0.0,0.0,0.4154,0.3765,0.0,0.0,0.0,0.0,0.0,0.0,0.0,0.0,0.0,0.0,0.0,0.0,0.0,0.0,0.0,0.0,0.0,0.123,0.0392,0.0,0.0,0.0,0.0,0.0,0.0,0.0,0.0,0.0,0.0,0.0,0.0,0.0,0.0,0.0,0.0,0.0,0.0,0.0,0.0,0.0,0.0896,0.218,0.218,0.3687,0.5524,0.0,0.0,0.0,0.0,0.0,0.0,0.6667,0.6787,0.6518,0.5325,0.5187,0.544,0.6079,0.6271,0.6578,0.0,0.0,0.0,0.0,0.0,0.0,0.0,0.0,0.0,0.0,0.0,0.0,0.0,0.0,0.0,0.0,0.0,0.0,0.0,0.0,0.0,0.0,0.0,0.0,0.0,0.0,0.0,0.0,0.0,0.0,0.0,0.0,0.0,0.0,0.0,0.645,0.6166,0.6628,0.6809,0.6802,0.6556,0.6722,0.6943,0.6685,0.6871,0.7095,0.7095,0.7095,0.6886,0.6129,0.5871,0.0,0.0,0.4556,0.4348,0.3869,0.0,0.0,0.0,0.0,0.0,0.0,0.0,0.0,0.0,0.0,0.0,0.0,0.0,0.0,0.0,0.0,0.0,0.0,0.1567,0.0952,0.0952,0.0952,0.0952,0.0952,0.0952,0.0952,0.0952,0.0952,0.0952,0.0952,0.0952,0.0952,0.0952,0.0,0.0,0.0,0.0939,0.0934,0.0855,0.094,0.1846,0.3183,0.3183,0.4856,0.698,0.0,0.0,0.0,0.0,0.0,0.0,0.7109,0.6709,0.6139,0.5232,0.5169,0.5476,0.6204,0.5869,0.6204,0.0,0.0,0.0,0.0,0.0,0.0,0.0,0.0,0.0,0.0,0.0,0.0,0.0,0.0,0.0,0.0,0.0,0.0,0.0,0.0,0.0,0.0,0.0,0.0,0.0,0.0,0.0,0.0,0.0,0.0,0.0,0.0,0.0,0.0,0.0,0.0,0.5674,0.573,0.5915,0.6138,0.6403,0.0,0.0,0.6937,0.7065,0.7095,0.7095,0.7095,0.6967,0.6522,0.0,0.0,0.0,0.4745,0.4585,0.49,0.5028,0.5292,0.0,0.0,0.0,0.0,0.0,0.0,0.0,0.0,0.0,0.0,0.0,0.0,0.0,0.0,0.0,0.0,0.4136,0.408,0.408,0.408,0.408,0.408,0.408,0.408,0.408,0.408,0.408,0.408,0.408,0.408,0.408,0.0,0.0,0.0,0.3967,0.3888,0.3673,0.397,0.4972,0.6308,0.6308,0.7315,0.866,0.0,0.0,0.0,0.0,0.0,0.0,0.6787,0.6768,0.6404,0.5244,0.5123,0.5443,0.6275,0.6132,0.6626,0.8234,0.8165,0.0,0.0,0.0,0.0,0.0,0.0,0.0,0.0,0.0,0.0,0.0,0.0,0.0,0.0,0.0,0.0,0.0,0.0,0.0,0.0,0.0,0.0,0.0,0.0,0.0,0.0,0.0,0.0,0.0,0.0,0.0,0.0,0.0,0.0,0.0,0.5558,0.5559,0.0,0.0,0.6047,0.6491,0.6359,0.6687,0.7095,0.7095,0.7095,0.691,0.623,0.0,0.0,0.4877,0.4689,0.4655,0.4711,0.4877,0.51,0.5518,0.0,0.0,0.0,0.0,0.0,0.0,0.0,0.0,0.0,0.0,0.0,0.0,0.0,0.0,0.0,0.5475,0.4526,0.4526,0.4526,0.4526,0.4526,0.4526,0.4526,0.4526,0.4526,0.4526,0.4526,0.4526,0.4526,0.4526,0.0,0.0,0.0,0.437,0.4329,0.4032,0.4377,0.5419,0.6702,0.6702,0.7651,0.8885,0.0,0.0,0.0,0.0,0.0,0.7442,0.6729,0.6768,0.6453,0.5253,0.5321,0.5711,0.6326,0.6817,0.76,0.8863,0.879,0.0,0.0,0.0,0.0,0.0,0.0,0.0,0.0,0.0,0.8012,0.8243,0.8624,0.0,0.0,0.0,0.0,0.0,0.0,0.0,0.0,0.0,0.0,0.0,0.0,0.0,0.0,0.0,0.0,0.0,0.0,0.0,0.0,0.0,0.0,0.0,0.0,0.0,0.0,0.0,0.5671,0.6234,0.6051,0.6556,0.7095,0.7095,0.6997,0.6742,0.0,0.0,0.5399,0.4709,0.4644,0.467,0.4638,0.4772,0.4951,0.5169,0.0,0.6071,0.0,0.0,0.0,0.0,0.0,0.0,0.0,0.0,0.0,0.0,0.0,0.0,0.0,0.0,0.5808,0.5808,0.5808,0.5808,0.5808,0.5808,0.5808,0.5808,0.5808,0.5777,0.5667,0.5782,0.5777,0.0,0.0,0.0,0.0,0.5669,0.5612,0.5344,0.5678,0.6422,0.7371,0.7371,0.7986,0.8885,0.0,0.0,0.0,0.0,0.0,0.7559,0.7158,0.6709,0.6092,0.5214,0.5858,0.6396,0.6394,0.7934,0.9143,0.9563,0.905,0.0,0.0,0.0,0.0,0.0,0.0,0.0,0.0,0.0,0.7905,0.7912,0.8498,0.8804,0.8804,0.8804,0.8804,0.0,0.0,0.0,0.0,0.0,0.8804,0.0,0.0,0.0,0.0,0.0,0.0,0.0,0.0,0.0,0.0,0.0,0.0,0.0,0.0,0.0,0.0,0.0,0.545,0.5905,0.6385,0.6797,0.7095,0.7095,0.6807,0.6399,0.0,0.0,0.5019,0.4752,0.4691,0.4735,0.4857,0.4887,0.5016,0.5344,0.5735,0.0,0.0,0.0,0.0,0.0,0.0,0.0,0.0,0.0,0.0,0.0,0.0,0.0,0.0,0.0,0.8826,0.8826,0.8826,0.8826,0.8826,0.8826,0.8826,0.8826,0.8826,0.8726,0.8443,0.8747,0.0,0.0,0.0,0.0,0.0,0.8757,0.8703,0.8453,0.8763,0.8881,0.8881,0.8881,0.8881,0.8885,0.0,0.0,0.0,0.0,0.0,0.0,0.7535,0.7374,0.7096,0.654,0.695,0.7184,0.6914,0.8154,0.9053,0.9172,0.9554,0.0,0.0,0.0,0.0,0.0,0.0,0.0,0.0,0.7999,0.7905,0.7905,0.8323,0.8536,0.8536,0.8536,0.8617,0.8804,0.8804,0.8804,0.0,0.8804,0.8804,0.0,0.0,0.0,0.0,0.0,0.0,0.0,0.0,0.0,0.0,0.0,0.0,0.0,0.0,0.0,0.0,0.5559,0.5355,0.0,0.5518,0.5884,0.6227,0.6227,0.6118,0.5898,0.5443,0.0,0.5015,0.4752,0.4772,0.486,0.4881,0.5084,0.5283,0.5378,0.5739,0.0,0.0,0.0,0.0,0.0,0.0,0.0,0.0,0.0,0.0,0.0,0.0,0.0,0.0,0.0,0.8885,0.8885,0.8885,0.8885,0.8885,0.8885,0.8885,0.8885,0.8885,0.8777,0.8492,0.8801,0.0,0.0,0.0,0.0,0.0,0.8811,0.8757,0.8513,0.8818,0.8885,0.8885,0.8885,0.8885,0.8885,0.0,0.0,0.0,0.0,0.0,0.0,0.7695,0.7695,0.7549,0.7158,0.7739,0.7973,0.7388,0.8623,0.9424,0.924,0.9883,0.0,0.0,0.0,0.0,0.0,0.0,0.0,0.8305,0.8024,0.7905,0.7905,0.823,0.8342,0.821,0.821,0.8363,0.8644,0.8644,0.8704,0.0,0.8804,0.8804,0.8804,0.0,0.0,0.8798,0.0,0.0,0.0,0.0,0.0,0.0,0.0,0.0,0.0,0.0,0.0,0.0,0.0,0.6019,0.5578,0.0,0.5457,0.58,0.58,0.5674,0.0,0.0,0.0,0.4843,0.4718,0.4901,0.5067,0.4978,0.5287,0.5487,0.5262,0.5806,0.0,0.0,0.0,0.0,0.0,0.0,0.0,0.0,0.0,0.0,0.0,0.0,0.0,0.0,0.0,0.8885,0.8885,0.8885,0.8885,0.8885,0.8885,0.8885,0.8885,0.8885,0.8777,0.8492,0.0,0.0,0.0,0.0,0.0,0.0,0.8804,0.8825,0.8672,0.8811,0.8885,0.8885,0.8885,0.8885,0.8885,0.0,0.0,0.0,0.0,0.0,0.0,0.0,0.7695,0.7583,0.7236,0.8252,0.8694,0.7919,0.9316,1.0117,0.9698,1.0049,0.0,0.0,0.0,0.0,0.0,0.0,0.0,0.8379,0.8108,0.7953,0.7905,0.819,0.817,0.7872,0.7872,0.8056,0.8368,0.8389,0.8537,0.8804,0.8804,0.8804,0.8804,0.8804,0.8798,0.0,0.0,0.0,0.0,0.0,0.0,0.0,0.0,0.0,0.0,0.0,0.0,0.0,0.0,0.0,0.0,0.0,0.5486,0.5775,0.5846,0.5489,0.5143,0.0,0.0,0.0,0.4784,0.5133,0.5358,0.517,0.5538,0.5644,0.5029,0.5942,0.0,0.0,0.0,0.0,0.0,0.0,0.0,0.0,0.0,0.0,0.0,0.0,0.0,0.0,0.0,0.0,0.8885,0.8885,0.8885,0.8885,0.8885,0.8871,0.8851,0.8871,0.8767,0.8462,0.0,0.0,0.0,0.0,0.0,0.0,0.8885,0.8885,0.8885,0.8885,0.8885,0.8885,0.8885,0.8885,0.8885,0.0,0.0,0.0,0.0,0.0,0.0,0.0,0.0,0.0,0.0,0.8623,0.9036,0.9135,0.9844,1.0263,0.0,0.0,0.0,0.0,0.0,0.0,0.0,0.0,0.0,0.9232,0.8867,0.8405,0.7905,0.7762,0.7665,0.7598,0.7598,0.7742,0.8019,0.8277,0.8537,0.8804,0.8804,0.8804,0.8804,0.8804,0.8671,0.0,0.0,0.0,0.0,0.7846,0.7729,0.0,0.0,0.0,0.0,0.0,0.0,0.0,0.0,0.7182,0.6542,0.63,0.0,0.5701,0.6265,0.59,0.5543,0.0,0.0,0.0,0.0,0.0,0.0,0.0,0.5922,0.603,0.5511,0.0,0.0,0.0,0.0,0.0,0.0,0.0,0.0,0.0,0.0,0.0,0.0,0.0,0.0,0.0,0.0,0.0,0.8885,0.8885,0.8885,0.8885,0.8885,0.8821,0.8591,0.8825,0.8605,0.811,0.0,0.0,0.0,0.0,0.0,0.8885,0.8885,0.8885,0.8885,0.8885,0.8885,0.8885,0.8885,0.8885,0.8885,0.0,0.0,0.0,0.0,0.0,0.0,0.0,0.0,0.0,0.0,0.874,0.9143,0.9554,1.002,1.0303,0.0,0.0,0.0,0.0,0.0,0.0,0.0,0.0,0.9856,0.9337,0.9272,0.9013,0.8459,0.8298,0.8048,0.768,0.768,0.7695,0.7736,0.8201,0.8537,0.8804,0.8804,0.8804,0.8804,0.8804,0.0,0.0,0.0,0.0,0.0,0.7479,0.7386,0.0,0.7444,0.7806,0.817,0.0,0.0,0.0,0.0,0.791,0.761,0.761,0.6826,0.6215,0.7045,0.6608,0.622,0.7055,0.0,0.0,0.0,0.0,0.0,0.0,0.0,0.0,0.0,0.0,0.0,0.0,0.0,0.0,0.0,0.0,0.0,0.0,0.0,0.0,0.0,0.0,0.0,0.0,0.0,0.0,0.0,0.8885,0.8885,0.8885,0.8885,0.8784,0.8486,0.8794,0.8639,0.8258,0.0,0.0,0.0,0.0,0.0,0.8871,0.8788,0.8811,0.8885,0.8885,0.8885,0.8885,0.8885,0.8885,0.8885,0.0,0.0,0.0,0.0,0.0,0.0,0.0,0.0,0.0,0.0,0.0,0.0,0.0,0.0,0.0,0.0,0.0,0.0,0.0,0.0,0.0,0.0,1.0029,0.9961,0.9434,0.9648,0.9534,0.9076,0.8963,0.8516,0.7767,0.7767,0.766,0.7511,0.808,0.847,0.8744,0.8791,0.8784,0.8744,0.8744,0.0,0.0,0.0,0.0,0.0,0.0,0.0,0.0,0.7404,0.7702,0.8019,0.8322,0.0,0.0,0.0,0.0,0.0,0.8804,0.7913,0.7206,0.8089,0.7544,0.7013,0.7937,0.0,0.0,0.0,0.0,0.0,0.0,0.0,0.0,0.0,0.0,0.0,0.0,0.0,0.0,0.0,0.0,0.0,0.0,0.0,0.0,0.0,0.0,0.0,0.0,0.0,0.0,0.0,0.8885,0.8885,0.8885,0.8885,0.8784,0.8486,0.8794,0.8777,0.8492,0.8801,0.0,0.0,0.0,0.0,0.8865,0.8659,0.8706,0.8885,0.8885,0.8885,0.8885,0.8885,0.8885,0.8885,0.0,0.0,0.0,0.0,0.0,0.0,0.0,0.0,0.0,0.0,0.0,0.0,0.0,0.0,0.0,0.0,0.0,0.0,0.0,0.0,0.0,1.0668,1.0746,1.0813,1.0876,1.033,0.9673,0.8944,0.8365,0.7769,0.7147,0.7147,0.7267,0.7504,0.7842,0.8163,0.8482,0.8704,0.8664,0.8462,0.8462,0.0,0.0,0.0,0.0,0.0,0.0,0.0,0.0,0.7471,0.7866,0.8342,0.8382,0.0,0.0,0.0,0.0,0.0,0.8804,0.8789,0.8948,0.9624,0.8643,0.7758,0.8638,0.0,0.0,0.0,0.0,0.0,0.0,0.0,0.0,0.0,0.0,0.0,0.0,0.0,0.0,0.0,0.0,0.0,0.0,0.0,0.0,0.0,0.0,0.0,0.0,0.0,0.0,0.0,0.0,0.8885,0.8885,0.8885,0.8784,0.8486,0.8794,0.8777,0.8492,0.8801,0.8885,0.0,0.0,0.8841,0.8878,0.8834,0.8841,0.8885,0.8885,0.8885,0.8885,0.8885,0.8885,0.8885,0.0,0.0,0.0,0.0,0.0,0.0,0.0,0.0,0.0,0.0,0.0,0.0,0.0,0.0,0.0,0.0,0.0,0.0,0.0,0.0,1.0469,1.0868,1.0908,1.0937,1.1038,1.0941,1.037,0.9226,0.8743,0.8146,0.7468,0.7147,0.7181,0.7497,0.7638,0.7943,0.8409,0.8543,0.8523,0.8402,0.0,0.0,0.0,0.0,0.0,0.0,0.0,0.0,0.0,0.0,0.8167,0.8429,0.8557,0.0,0.0,0.0,0.0,0.0,0.8804,0.8878,0.9271,1.049,0.9799,0.9172,1.0706,0.0,0.0,0.0,0.0,0.0,0.0,0.0,0.0,0.0,0.0,0.0,0.0,0.0,0.0,0.0,0.0,0.0,0.0,0.0,0.0,0.0,0.0,0.0,0.0,0.0,0.0,0.0,0.0,0.0,0.8885,0.8885,0.8784,0.8486,0.8794,0.8777,0.8492,0.8801,0.8885,0.0,0.0,0.8784,0.8871,0.876,0.8791,0.8885,0.8885,0.8885,0.8885,0.8885,0.8885,0.8885,0.0,0.0,0.0,0.0,0.0,0.0,0.0,0.0,0.0,0.0,0.0,0.0,0.0,0.0,0.0,0.0,0.0,0.0,0.0,1.0391,1.0625,1.1045,1.1064,1.1064,1.1064,1.131,1.0805,0.9498,0.9139,0.8541,0.773,0.737,0.7269,0.739,0.7457,0.7792,0.8301,0.8368,0.8362,0.827,0.0,0.0,0.0,0.0,0.0,0.0,0.0,0.0,0.0,0.0,0.0,0.0,0.0,0.0,0.0,0.8804,0.8804,0.8804,0.8804,0.8858,0.9237,1.0716,1.0294,1.0023,1.2091,1.0455,0.0,0.0,0.0,0.0,0.0,0.0,0.0,0.0,0.0,0.0,0.0,0.0,0.0,0.0,0.0,0.0,0.0,0.0,0.0,0.0,0.0,0.0,0.0,0.0,0.0,0.0,0.0,0.0,0.8885,0.8885,0.8821,0.8591,0.8825,0.8815,0.8598,0.8832,0.8885,0.8871,0.8693,0.8723,0.8865,0.8686,0.8726,0.8885,0.8885,0.8885,0.8885,0.8885,0.8885,0.8885,0.0,0.0,0.0,0.0,0.0,0.0,0.0,0.0,0.0,0.0,0.0,0.0,0.0,0.0,0.0,0.0,0.0,0.0,0.0,1.0645,1.1055,1.1538,1.1557,1.1557,1.1557,1.1164,1.0458,0.9498,0.9044,0.8282,0.7256,0.766,0.7545,0.7046,0.7363,0.7649,0.7959,0.8257,0.8216,0.7939,0.7939,0.0,0.0,0.0,0.0,0.0,0.0,0.0,0.0,0.0,0.0,0.0,0.0,0.0,0.8804,0.8804,0.8804,0.8804,0.8804,0.8978,0.9344,1.001,0.9532,0.9374,1.1328,0.994,0.0,0.9627,0.0,0.0,0.0,0.0,0.0,0.0,0.0,0.0,0.0,0.0,0.0,0.0,0.0,0.0,0.0,0.0,0.0,0.0,0.0,0.0,0.0,0.0,0.0,0.0,0.0,0.0,0.8885,0.8885,0.8871,0.8851,0.8871,0.8871,0.8851,0.8871,0.8885,0.8881,0.8861,0.8861,0.8881,0.8858,0.8865,0.8885,0.8885,0.8885,0.8885,0.8885,0.8885,0.8885,0.0,0.0,0.0,0.0,0.0,0.0,0.0,0.0,0.0,0.0,0.0,1.0303,1.0303,0.0,0.0,0.0,0.0,0.0,0.0,1.082,1.1103,1.1587,1.1848,1.1719,1.1172,1.0753,1.0049,0.907,0.8218,0.755,0.7079,0.7259,0.7334,0.7323,0.7437,0.7765,0.8223,0.8517,0.8577,0.8452,0.8452,0.8165,0.0,0.0,0.0,0.0,0.0,0.0,0.0,0.0,0.8717,0.8804,0.8804,0.8804,0.8804,0.8804,0.8804,0.8804,0.8804,0.8991,0.9484,1.0616,1.0134,0.0,0.0,1.1104,1.0288,1.1462,1.0903,0.0,0.0,0.0,0.0,0.0,0.0,0.0,0.0,0.0,0.0,0.0,0.0,0.0,0.0,0.0,0.0,0.0,0.0,0.0,0.0,0.0,0.0,0.0,0.0,0.0,0.0,0.8885,0.8885,0.8885,0.8885,0.8885,0.8885,0.8885,0.8885,0.8885,0.8885,0.8885,0.8885,0.8885,0.9427,1.0347,1.1269,1.1055,1.0406,1.1324,1.0457,0.9047,0.0,0.0,0.0,0.0,0.0,0.0,0.0,0.0,1.0303,0.0,0.0,0.0,0.0,1.0303,0.0,0.0,0.0,0.0,1.0868,1.1151,1.1455,1.178,1.2047,1.1921,1.1316,1.0645,0.9811,0.8809,0.7998,0.7432,0.7073,0.75,0.7627,0.752,0.7785,0.8147,0.8549,0.8724,0.8804,0.8798,0.8704,0.843,0.0,0.0,0.0,0.0,0.0,0.0,0.0,0.0,0.8804,0.8804,0.8804,0.8804,0.8804,0.8804,0.8871,0.8918,0.8918,0.9058,0.9517,1.0828,0.0,0.0,1.2295,1.1946,1.1499,1.2779,0.0,0.0,0.0,0.0,0.0,0.0,0.0,0.0,0.0,0.0,0.0,0.0,0.0,0.0,0.0,0.0,0.0,0.0,0.0,0.0,0.0,0.0,0.0,0.0,0.0,0.0,0.0,0.9372,0.9588,0.9588,1.0076,0.9805,0.8885,0.8885,0.8885,0.8885,0.8885,0.8885,0.8937,0.9427,1.0457,1.1914,1.2891,1.2674,1.1919,1.294,1.2023,1.0457,0.0,0.0,0.0,0.0,0.0,0.0,0.0,0.0,1.0303,1.0303,1.0303,0.0,0.0,0.0,0.0,0.0,0.0,0.0,1.0918,1.1716,1.2203,1.2213,1.2213,1.2213,1.2203,1.0957,0.9801,0.8809,0.8593,0.8046,0.7236,0.8577,0.8587,0.7538,0.8417,0.8818,0.8818,0.8824,0.8824,0.8791,0.8529,0.8409,0.8402,0.0,0.0,0.0,0.0,0.0,0.0,0.0,0.8804,0.8804,0.8804,0.8804,0.8804,0.8818,0.8991,0.9211,0.9217,0.9217,0.9431,0.0,0.0,0.0,1.2241,1.2058,1.1822,1.3307,0.0,0.0,0.0,0.0,0.0,0.0,0.0,0.0,0.0,0.0,0.0,0.0,0.0,0.0,0.0,0.0,0.0,0.0,0.0,0.0,0.0,0.0,0.0,0.0,0.0,0.0,0.0,1.0402,1.1105,1.116,1.262,1.1755,0.8937,0.8937,0.8937,0.8937,0.8937,0.8937,0.9047,1.0511,1.2023,1.3318,1.3318,1.3318,1.3318,1.3318,1.3318,1.3318,0.0,0.0,0.0,0.0,0.0,0.0,0.0,0.0,1.0303,1.0303,1.0303,0.0,0.0,0.0,0.0,0.0,0.0,0.0,1.1775,1.2067,1.234,1.2676,1.2686,1.2549,1.2213,1.0868,0.972,0.8809,0.8353,0.8187,0.8253,0.8283,0.833,0.845,0.9332,0.9613,0.9452,0.9896,0.9829,0.9399,0.9098,0.8864,0.8677,0.0,0.0,0.0,0.0,0.0,0.0,0.0,0.0,0.0,0.8804,0.8804,0.8925,0.9546,0.9324,0.9044,0.9664,0.9706,0.0,0.0,0.0,0.0,0.0,1.2084,0.0,0.0,0.0,0.0,0.0,0.0,0.0,0.0,0.0,0.0,0.0,0.0,0.0,0.0,0.0,0.0,0.0,0.0,0.0,0.0,0.0,0.0,0.0,0.0,0.0,0.0,0.0,0.0,0.0,0.0,1.2674,1.2674,1.3102,1.2832,1.1973,1.1973,1.1973,1.1973,1.1973,1.1973,1.2132,1.3534,1.4395,1.4877,1.5908,1.5689,1.4877,1.5962,1.5043,1.3426,0.0,0.0,0.0,0.0,0.0,0.0,1.0303,1.0303,1.0303,1.0303,1.0303,1.0303,0.0,0.0,0.0,1.0889,1.1209,0.0,1.2174,1.2369,1.2607,1.2895,1.2905,1.2676,1.2213,1.1217,1.0442,0.9907,0.8815,0.8324,0.8388,0.8407,0.8551,0.8838,0.9606,0.9846,0.9729,0.9933,0.9967,0.9806,0.9251,0.9004,0.8938,0.0,0.0,0.0,0.0,0.0,0.0,0.0,0.0,0.0,0.8804,0.9045,0.9385,0.965,0.9726,0.9793,1.0321,1.0334,0.0,0.0,0.0,0.0,0.0,0.0,0.0,0.0,0.0,0.0,0.0,0.0,0.0,0.0,0.0,0.0,0.0,0.0,0.0,0.0,0.0,0.0,0.0,0.0,0.0,0.0,0.0,0.0,0.0,0.0,0.0,0.0,0.0,0.0,0.0,0.0,0.0,1.4126,1.4722,1.499,1.499,1.3804,1.3318,1.3318,1.3318,1.3642,1.418,1.5037,1.5743,1.6333,1.7252,1.7041,1.6387,1.7259,1.6499,1.5133,0.0,0.0,1.0303,1.0303,0.0,0.0,1.0303,1.0303,1.0303,1.0303,1.0332,1.0361,0.0,0.0,0.0,1.1025,1.1745,1.2223,1.2262,1.2656,1.2905,1.2905,1.2905,1.2695,1.2272,1.1839,1.1594,1.1567,0.9732,0.8593,0.8167,0.8931,0.9152,0.8951,0.9573,0.98,0.9706,0.9437,0.9597,0.9937,0.9138,0.8938,0.9144,0.8884,0.0,0.0,0.0,0.0,0.0,0.0,0.0,0.0,0.8804,0.9359,0.9877,0.9424,1.0043,1.0929,1.1009,0.0,0.0,0.0,0.0,0.0,0.0,0.0,0.0,0.0,0.0,0.0,0.0,0.0,0.0,0.0,0.0,0.0,0.0,0.0,0.0,0.0,0.0,0.0,0.0,0.0,0.0,0.0,0.0,0.0,0.0,0.0,0.0,0.0,0.0,0.0,0.0,0.0,0.0,0.0,1.6982,1.7582,1.7523,1.4883,1.3696,1.3696,1.3696,1.4395,1.5583,1.5583,1.6387,1.7582,1.7582,1.7582,1.7582,1.7582,1.7562,1.7508,0.0,0.0,1.0303,1.0303,0.0,0.0,1.0303,1.0303,1.0303,1.0303,1.0566,1.0771,1.0771,1.1183,0.0,1.1892,1.2096,1.2359,1.2725,1.2856,1.2905,1.2905,1.2905,1.2842,1.2744,1.1985,1.1541,1.1435,1.0334,0.987,1.0033,1.0064,0.9974,0.9866,1.0656,1.0636,1.0033,1.0238,0.9947,0.9364,0.8944,0.8844,0.8865,0.8831,0.8804,0.0,0.0,0.0,0.0,0.0,0.0,0.0,0.8804,0.8938,0.9198,0.973,1.0077,1.0454,1.1149,1.1169,0.0,0.0,0.0,0.0,0.0,0.0,0.0,0.0,0.0,0.0,0.0,0.0,0.0,0.0,0.0,0.0,0.0,0.0,0.0,0.0,0.0,0.0,0.0,0.0,0.0,0.0,0.0,0.0,0.0,0.0,0.0,0.0,0.0,0.0,1.6664,1.6988,1.7147,0.0,1.747,1.7582,1.7582,1.6988,1.6664,1.6664,1.6664,1.6823,1.7147,1.7147,1.7312,1.7582,1.7582,1.7582,1.7582,1.7582,1.7494,1.7286,0.0,0.0,0.0,0.0,0.0,0.0,0.0,0.0,1.0841,1.0625,1.0978,1.1242,1.1242,1.1633,0.0,0.0,1.2422,1.2637,1.2886,1.2905,1.2905,1.2905,1.2905,1.2905,1.2905,1.2445,1.2179,1.213,1.132,1.0761,1.0441,1.015,1.0027,1.0127,1.027,1.017,0.99,0.9773,0.9619,0.9412,0.8985,0.8891,0.8971,0.8858,0.8804,0.8804,0.8804,0.0,0.0,0.0,0.0,0.0,0.0,0.0,0.9466,0.9617,1.0,1.0461,0.0,0.0,0.0,0.0,0.0,0.0,0.0,0.0,0.0,0.0,0.0,0.0,0.0,0.0,0.0,0.0,0.0,0.0,0.0,0.0,0.0,0.0,0.0,0.0,0.0,0.0,0.0,0.0,0.0,0.0,0.0,0.0,0.0,0.0,0.0,0.0,1.7582,1.7582,1.7582,1.7582,1.7582,1.7582,1.7582,1.7582,1.7582,1.7582,1.7582,1.7582,1.7582,1.7582,1.7582,1.7582,1.7582,1.7495,1.7427,1.7427,1.7239,1.6914,0.0,0.0,0.0,0.0,0.0,0.0,0.0,0.0,0.0,1.1064,1.1428,1.1702,1.1702,1.207,1.232,0.0,0.0,0.0,1.2905,1.2905,1.2905,1.2905,1.2905,1.2935,1.2988,1.2944,1.2974,1.3096,1.2302,1.161,1.109,1.0567,1.0425,1.0592,1.0036,0.9765,0.9675,0.9112,0.9138,0.9492,0.9005,0.8924,0.9111,0.8898,0.8804,0.8804,0.8804,0.8804,0.8804,0.8804,0.0,0.0,0.0,0.0,1.013,0.9625,1.013,1.0867,0.0,0.0,0.0,0.0,0.0,0.0,0.0,0.0,0.0,0.0,0.0,0.0,0.0,0.0,0.0,0.0,0.0,0.0,0.0,0.0,0.0,0.0,0.0,0.0,0.0,0.0,0.0,0.0,0.0,0.0,0.0,0.0,0.0,0.0,0.0,1.7582,1.7582,1.7582,1.7582,1.7582,1.7528,1.7482,1.7428,1.7428,1.7488,1.7582,1.7582,1.7555,1.7508,1.7508,1.7475,1.7428,1.7428,1.7281,1.7125,1.7125,1.6938,1.66,0.0,0.0,0.0,0.0,0.0,0.0,0.0,0.0,0.0,0.0,1.1865,1.2116,1.2116,1.2529,1.2817,1.2817,1.2866,1.2905,1.2905,0.0,0.0,1.2905,1.2905,1.3047,1.3418,1.3066,1.3242,1.3938,1.2798,1.293,1.4271,1.3226,1.2734,1.2689,1.2311,1.1241,0.9659,0.9297,0.9058,0.8918,0.8838,0.8831,0.8864,0.8824,0.8804,0.8804,0.8804,0.8804,0.8804,0.8804,0.9185,0.0,0.0,0.0,1.0675,1.0613,1.1217,1.1785,0.0,0.0,0.0,0.0,0.0,0.0,0.0,0.0,0.0,0.0,0.0,0.0,0.0,0.0,0.0,0.0,0.0,0.0,0.0,0.0,0.0,0.0,0.0,0.0,0.0,0.0,0.0,0.0,0.0,0.0,0.0,0.0,1.7582,1.7582,1.7582,0.0,1.7582,1.7582,1.7582,1.7582,1.738,1.7125,1.682,1.682,1.7101,1.7582,1.7582,1.7494,1.7259,1.7259,1.7054,1.682,1.682,1.68,1.6767,1.6767,1.658,1.6375,0.0,0.0,0.0,0.0,0.0,0.0,0.0,0.0,0.0,0.0,0.0,1.2598,1.2598,1.2773,1.2905,1.2905,1.2905,1.2905,1.2905,1.2905,1.3013,1.3223,1.3457,1.3672,1.3831,1.3916,1.3896,1.3753,1.3081,1.3525,1.4997,1.41,1.3494,1.3076,1.248,1.1254,0.9686,0.9719,0.9344,0.8804,0.8804,0.8878,0.9004,0.8871,0.8884,0.8998,0.8864,0.8804,0.8804,0.8804,0.9008,0.9237,0.9237,0.0,0.0,0.0,1.0484,0.0,1.1802,0.0,0.0,0.0,0.0,0.0,0.0,0.0,0.0,0.0,0.0,0.0,0.0,0.0,0.0,0.0,0.0,0.0,0.0,0.0,0.0,0.0,0.0,0.0,0.0,0.0,0.0,0.0,0.0,0.0,0.0,1.7582,1.7582,1.7582,1.7474,0.0,1.7393,1.7174,1.7094,1.7088,1.6961,1.6834,1.6707,1.6707,1.6847,1.7094,1.7094,1.7014,1.6901,1.6901,1.682,1.6707,1.6707,1.6607,1.6466,1.6466,1.6279,1.6025,0.0,0.0,0.0,0.0,0.0,0.0,0.0,0.0,0.0,0.0,0.0,1.2905,1.2905,0.0,0.0,0.0,1.2905,1.2905,1.2905,1.3013,1.3184,1.3496,1.389,1.4104,1.4104,1.4453,1.4307,1.3636,1.3357,1.3873,1.5151,1.4618,1.4032,1.3408,1.2668,1.1525,1.0271,1.0234,0.9806,0.9145,0.9225,0.9245,0.9198,0.9085,0.9165,0.9284,0.8991,0.9018,0.9164,0.9088,0.929,0.9562,0.9562,1.002,0.0,0.0,0.0,0.0,0.0,0.0,0.0,0.0,0.0,0.0,0.0,0.0,0.0,0.0,0.0,0.0,0.0,0.0,0.0,0.0,0.0,0.0,0.0,0.0,0.0,0.0,0.0,0.0,0.0,0.0,0.0,0.0,0.0,0.0,1.7361,1.7361,1.7361,1.7361,1.7199,1.7092,1.7092,1.6814,1.6667,1.66,1.66,1.6553,1.648,1.648,1.648,1.6493,1.664,1.666,1.66,1.66,1.6547,1.648,1.648,1.6353,1.6159,1.6159,1.6019,1.5784,0.0,0.0,0.0,0.0,0.0,0.0,0.0,0.0,0.0,0.0,0.0,1.2905,1.2905,1.2905,1.2905,1.2905,1.2905,1.2905,1.2905,1.3252,1.3486,1.3506,1.389,0.0,1.4104,1.4133,1.4114,1.4075,1.3669,1.4119,1.5381,1.516,1.4828,1.4388,1.3731,1.2796,1.1739,1.0914,1.0347,1.0074,1.0385,0.9973,0.9244,0.9539,0.9675,0.9619,0.9297,0.9618,1.0159,0.984,1.0585,1.1641,1.1641,1.2138,1.2725,0.0,0.0,0.0,0.0,0.0,0.0,0.0,0.0,0.0,0.0,0.0,0.0,0.0,0.0,0.0,0.0,0.0,0.0,0.0,0.0,0.0,0.0,0.0,0.0,0.0,0.0,0.0,0.0,0.0,0.0,0.0,0.0,0.0,1.6767,1.6747,1.6747,1.6747,1.6734,1.6727,1.6727,1.6714,1.6567,1.6342,1.6342,1.6146,1.5872,1.5872,1.5872,1.5858,1.6466,1.6553,1.6342,1.6342,1.6126,1.5872,1.5872,1.5818,1.5852,1.5852,1.5798,1.5784,0.0,0.0,0.0,0.0,0.0,0.0,0.0,0.0,0.0,0.0,0.0,0.0,0.0,1.3281,1.3389,1.3662,1.3193,1.2905,1.2905,1.3271,1.3633,1.387,1.4316,1.4551,1.4551,1.425,1.3977,1.3704,1.3584,1.3801,1.4362,1.3768,1.3631,1.3882,1.46,1.3491,1.1102,1.1732,1.0955,0.9385,1.0621,1.0474,0.9579,1.009,1.0392,0.0,0.0,0.0,0.0,0.9591,0.9907,1.0517,1.0517,1.13,1.2295,1.2774,1.2073,1.1473,0.0,0.0,0.0,0.0,0.0,0.0,0.0,0.0,0.0,0.0,0.0,0.0,0.0,0.0,0.0,0.0,0.0,0.0,0.0,0.0,0.0,0.0,0.0,0.0,0.0,0.0,0.0,0.0,0.0,0.0,1.6693,1.6346,1.6313,1.6693,1.6526,1.6333,1.6146,1.6146,1.6086,1.5985,1.5985,1.5932,1.5784,1.5784,1.5784,1.5791,1.6052,1.6086,1.5985,1.5985,1.5925,1.5784,1.5784,1.5784,1.5784,1.5784,1.5784,1.5784,0.0,0.0,0.0,1.2905,0.0,1.2905,1.2905,1.2905,1.2954,1.3076,0.0,0.0,0.0,0.0,1.3743,1.389,1.3545,1.3242,1.3105,1.3623,1.3994,1.4104,1.4687,1.4795,1.4365,1.4328,1.3977,1.3301,1.3437,1.3489,1.3494,1.3389,1.3237,1.3097,1.4506,1.3778,1.1551,1.2522,1.1866,1.0221,1.1289,1.1196,1.0492,1.0881,0.0,0.0,0.0,0.0,0.0,0.0,1.0502,1.0759,1.0914,1.1516,1.227,1.2774,1.223,1.1735,1.2824,0.0,0.0,0.0,0.0,0.0,0.0,0.0,0.0,0.0,0.0,0.0,0.0,0.0,0.0,0.0,0.0,0.0,0.0,0.0,0.0,0.0,0.0,0.0,0.0,0.0,0.0,0.0,0.0,0.0,1.6393,1.6039,1.5957,1.64,1.6226,1.6032,1.5784,1.5784,1.5784,1.5784,1.5784,1.5784,1.5784,1.5784,1.5784,1.5784,1.5784,1.5784,1.5784,1.5784,1.5784,1.5784,1.5784,1.5784,1.5784,1.5784,1.5784,1.5784,1.2905,1.2905,1.2905,1.2905,1.2915,1.2925,1.2925,1.2935,1.3091,1.3477,0.0,0.0,0.0,0.0,0.0,1.3584,1.388,1.3929,1.3535,1.4287,1.4561,1.4124,1.4903,1.4795,1.3555,1.4346,1.4167,1.2905,1.3301,1.3301,1.2954,1.417,1.3781,1.2134,1.3435,1.3694,1.3133,1.318,1.2979,1.2663,0.0,1.2151,1.1873,0.0,0.0,0.0,1.2225,1.2408,0.0,0.0,0.0,0.0,0.0,1.3074,1.2905,1.2925,1.2915,0.0,0.0,0.0,0.0,0.0,0.0,0.0,0.0,0.0,0.0,0.0,0.0,0.0,0.0,0.0,0.0,0.0,0.0,0.0,0.0,0.0,0.0,0.0,0.0,0.0,0.0,0.0,0.0,0.0,0.0,1.6112,1.5798,1.5784,1.5784,1.5784,1.5784,1.5784,1.5784,1.5784,1.5784,1.5784,1.5784,1.5784,1.5784,1.5784,1.5784,1.5784,1.5784,1.5784,1.5784,1.5784,1.5784,1.5784,1.5784,1.5784,1.5784,1.5784,1.5784,1.5784,1.2905,1.2905,1.2905,1.2905,1.3135,1.334,1.334,1.3594,1.3802,0.0,0.0,0.0,1.4561,1.4873,1.4883,1.4473,1.4221,1.3929,1.3535,1.373,1.3919,1.4104,1.4328,1.4289,1.3938,1.4172,1.3848,1.2905,1.3301,1.3447,1.3315,1.3109,1.2616,1.1963,1.2188,1.1934,1.1397,1.2462,0.0,1.0396,1.2906,1.2705,0.0,0.0,0.0,0.0,0.0,1.2858,1.2705,0.0,1.2866,1.3075,0.0,0.0,1.2964,1.3242,1.3125,0.0,1.3252,0.0,0.0,0.0,0.0,0.0,0.0,0.0,0.0,0.0,0.0,0.0,0.0,0.0,0.0,0.0,0.0,0.0,0.0,0.0,0.0,0.0,0.0,0.0,0.0,0.0,0.0,0.0,0.0,1.5478,1.5764,1.5784,1.5784,1.5784,1.5784,1.5784,1.5784,1.5784,1.5784,1.5784,1.5784,1.5784,1.5784,1.5784,1.5784,1.5784,1.5784,1.5784,1.5784,1.5784,1.5784,1.5784,1.5784,1.5784,1.5784,1.5784,1.5784,1.5784,1.2905,1.3052,1.3145,1.3145,1.3486,1.3743,1.3743,1.3948,1.4172,0.0,0.0,0.0,1.5,1.5264,1.5166,1.4561,1.4453,1.4202,1.3773,1.3936,1.415,1.4367,1.4543,1.4475,1.4114,1.428,1.3994,1.3145,1.3389,1.3418,1.3252,1.278,1.2284,1.1831,1.1439,1.0974,1.0532,1.1479,0.0,0.0,1.2999,0.0,0.0,1.3794,1.3834,0.0,0.0,0.0,1.3548,1.3668,1.3845,0.0,0.0,0.0,0.0,0.0,0.0,0.0,0.0,0.0,0.0,0.0,0.0,0.0,1.3636,1.4411,0.0,0.0,0.0,0.0,0.0,0.0,0.0,0.0,0.0,0.0,0.0,0.0,0.0,0.0,0.0,0.0,0.0,0.0,0.0,0.0,1.5518,1.5471,1.5764,1.5784,1.5784,1.5784,1.5784,1.5784,1.5784,1.5784,1.5784,1.5784,1.5784,1.5784,1.5784,1.5784,1.5784,1.5784,1.5784,1.5784,1.5784,1.5784,1.5784,1.5784,1.5784,1.5784,1.5784,1.5784,1.5784,1.5784,0.0,1.332,1.3574,1.3574,1.3899,1.4182,1.4182,1.4221,1.4387,0.0,1.4882,1.5,1.5371,1.5371,1.5011,1.425,1.4473,1.4482,1.4065,1.4385,1.4627,1.4639,1.5,1.4816,1.4055,1.4492,1.4297,1.3437,1.3486,1.3291,1.2905,1.2905,1.2501,1.1765,1.1133,1.0653,1.032,1.0474,0.0,1.3053,1.2978,1.3708,0.0,0.0,1.4583,0.0,1.5211,1.507,1.4603,1.4963,1.5231,0.0,0.0,0.0,0.0,0.0,1.4777,0.0,0.0,0.0,0.0,0.0,0.0,0.0,1.4046,1.5811,1.7607,0.0,0.0,0.0,0.0,0.0,0.0,0.0,0.0,0.0,0.0,0.0,0.0,0.0,0.0,0.0,0.0,0.0,0.0,1.5784,1.5784,1.5784,1.5784,1.5784,1.5784,1.5784,1.5784,1.5784,1.5784,1.5784,1.5784,1.5784,1.5784,1.5784,1.5784,1.5784,1.5784,1.5784,1.5784,1.5784,1.5784,1.5784,1.5872,1.6015,1.6015,1.6103,1.6197,1.6197,1.6197,1.6197,1.386,1.3929,1.3987,1.3987,1.4375,1.4658,1.4658,1.4941,1.5195,1.5283,1.5293,1.5322,1.54,1.5107,1.4844,1.4678,1.4102,1.3721,1.3633,1.3389,1.3433,1.374,1.3838,1.3799,1.3633,1.4016,1.3848,1.3023,1.334,1.3291,1.2905,1.2905,1.2501,1.1774,1.1378,1.0883,1.0305,0.0,0.0,1.2268,1.3407,0.0,1.3979,1.5098,1.499,1.4309,1.5364,1.5371,1.4976,0.0,1.6016,1.6449,0.0,0.0,0.0,0.0,0.0,0.0,0.0,0.0,0.0,0.0,0.0,0.0,1.3685,1.376,1.4422,0.0,0.0,0.0,0.0,0.0,0.0,0.0,0.0,0.0,0.0,0.0,0.0,0.0,0.0,0.0,0.0,0.0,1.5784,1.5784,1.5784,1.5784,1.5784,1.5784,1.5784,1.5784,1.5784,1.5784,1.5784,1.5784,1.5784,1.5784,1.5784,1.5784,1.5784,1.5784,1.5784,1.5784,1.5784,1.5784,1.5784,1.5784,1.6386,1.7318,1.7318,1.7902,1.8764,1.8764,1.8764,1.8764,1.4104,1.428,1.4463,1.4463,1.4814,1.5098,1.5098,1.5273,1.541,1.541,1.541,1.541,1.541,1.5039,1.4813,1.4813,1.4004,1.3603,1.3782,1.3428,1.3379,1.3773,1.3792,1.3792,1.3792,1.3792,1.3588,1.3193,1.3193,1.3111,1.2905,1.2905,1.2663,1.2219,1.171,1.128,1.0916,0.0,1.0961,1.2013,1.3173,0.0,1.4416,1.5438,1.5464,1.5037,1.5571,1.5645,1.5599,1.6731,1.7342,0.0,0.0,1.8033,1.7516,0.0,1.6073,1.5352,0.0,0.0,0.0,1.4007,0.0,0.0,0.0,1.3828,0.0,0.0,0.0,0.0,0.0,0.0,0.0,0.0,0.0,0.0,0.0,0.0,0.0,0.0,0.0,0.0,0.0,0.0,1.6031,1.5645,1.5611,1.5678,1.5771,1.5784,1.5784,1.5784,1.5784,1.6109,1.6756,1.6109,1.6426,1.7623,1.703,1.7077,1.7662,1.7662,1.7662,1.7662,1.7662,1.7662,1.7662,1.7662,1.8395,1.936,1.8187,1.8457,1.9497,1.9497,1.9497,1.9497,1.4348,1.4668,1.4902,1.4902,1.5186,1.541,1.541,1.541,1.541,1.541,1.5138,1.5117,1.5585,1.4917,1.4535,1.4869,1.4034,1.363,1.3941,1.3762,1.3758,1.4077,1.4026,1.3987,1.3987,1.3578,1.3389,1.3389,1.3071,1.2905,1.2905,1.2993,1.2905,1.2684,1.2136,1.1883,1.1816,0.0,0.0,1.2291,0.0,1.4015,1.4803,1.5665,1.5892,1.5718,1.5891,1.5959,1.6157,1.7825,0.0,1.8395,2.0285,1.9802,0.0,0.0,0.0,0.0,0.0,0.0,0.0,0.0,0.0,1.4104,0.0,0.0,0.0,0.0,0.0,0.0,0.0,0.0,0.0,0.0,0.0,0.0,0.0,0.0,0.0,0.0,0.0,0.0,0.0,0.0,1.6477,1.5994,1.5937,1.6042,1.6239,1.6348,1.6383,1.6383,1.6485,1.703,1.8048,1.703,1.7529,1.9497,1.8503,1.8549,1.9497,1.9497,1.9497,1.9497,1.9497,1.9497,1.9497,1.9497,2.0215,2.1114,1.9131,1.9131,2.0178,2.0178,2.0178,2.0178,1.5235,1.5312,1.5342,1.5342,1.5381,1.541,1.541,1.541,1.541,1.541,1.4154,1.4118,1.6307,1.4448,1.3629,1.5124,0.0,0.0,1.3484,0.0,1.4107,1.4099,1.3753,1.3574,1.3574,1.3164,1.2974,1.2974,1.2925,1.2905,1.2915,1.3262,1.3178,1.2702,1.2684,0.0,0.0,0.0,1.2619,0.0,1.4409,1.4376,0.0,1.5885,1.6126,1.5551,1.6326,1.644,1.6359,0.0,1.7635,1.7895,0.0,1.9154,0.0,0.0,0.0,0.0,0.0,0.0,0.0,0.0,1.4424,0.0,0.0,0.0,0.0,0.0,0.0,0.0,0.0,0.0,0.0,0.0,0.0,0.0,0.0,0.0,0.0,0.0,0.0,0.0,0.0,0.0,0.0,1.7818,1.7874,1.789,1.793,1.8261,1.8474,1.8474,1.887,1.9177,1.9314,1.9177,1.9222,1.9497,1.936,1.936,1.9497,1.9497,1.9497,1.9497,1.9497,1.9497,1.9497,1.9497,2.0215,2.1293,2.098,2.1623,2.2677,2.2677,2.2677,2.2677,1.541,1.541,1.541,1.541,1.541,1.5235,1.4776,1.4922,1.5292,1.5761,1.5418,1.5741,0.0,0.0,0.0,0.0,0.0,1.5459,0.0,0.0,1.4612,1.5565,1.4475,1.3994,1.4248,1.3828,1.3613,1.3613,1.3613,1.3613,1.3613,1.3763,1.3705,1.3447,1.3144,0.0,1.3222,0.0,0.0,0.0,0.0,0.0,0.0,1.6052,1.6473,1.6256,1.709,1.7529,1.7829,0.0,1.9785,0.0,0.0,0.0,0.0,0.0,0.0,0.0,0.0,0.0,0.0,0.0,0.0,0.0,0.0,0.0,1.4016,0.0,0.0,0.0,0.0,0.0,0.0,0.0,0.0,0.0,0.0,0.0,0.0,0.0,0.0,0.0,0.0,0.0,0.0,0.0,0.0,1.7001,1.7422,1.8067,1.8562,1.8863,1.9011,1.9544,2.0522,1.9852,2.0223,2.1587,2.0899,2.089,2.1587,2.1587,2.1587,2.1587,2.1587,2.1587,2.1587,2.1587,2.1898,2.235,2.235,2.2633,2.3091,2.3091,2.3091,2.3091,1.5079,1.5079,1.5079,1.5079,1.5079,1.4911,1.4418,1.4551,1.5106,1.6122,0.0,0.0,1.7837,1.6968,0.0,0.0,1.6639,1.6193,0.0,0.0,1.5265,0.0,0.0,0.0,1.5303,1.4513,1.4104,1.4104,1.4104,1.4104,1.4104,1.4231,1.4185,1.3992,0.0,1.3725,1.3689,0.0,0.0,1.4747,1.5753,1.5841,1.5451,1.6273,1.7227,1.8117,1.829,1.8794,1.9538,2.0605,2.1463,0.0,2.1953,0.0,0.0,0.0,0.0,0.0,1.8929,0.0,0.0,0.0,0.0,0.0,0.0,0.0,0.0,0.0,0.0,0.0,0.0,0.0,0.0,0.0,0.0,0.0,0.0,0.0,0.0,0.0,0.0,0.0,0.0,0.0,0.0,0.0,1.6647,0.0,1.7533,1.8477,1.917,1.9531,1.973,2.0413,2.1634,2.0891,2.1364,2.3091,2.2208,2.2262,2.3091,2.3091,2.3091,2.3091,2.3091,2.3091,2.3091,2.3091,2.3091,2.3091,2.3091,2.3091,2.3091,2.3091,2.3091,2.3091,1.4243,1.4243,1.4243,1.4243,1.4243,1.4339,1.4635,1.4494,0.0,0.0,0.0,0.0,0.0,0.0,0.0,0.0,0.0,1.4393,1.4977,0.0,1.6124,0.0,0.0,1.5361,0.0,1.4981,1.4104,1.4104,1.4104,1.4104,1.4114,1.4561,1.4497,1.4031,1.4858,1.4771,1.4162,1.6742,1.7642,1.7372,1.8592,1.8447,1.7395,0.0,1.8471,2.1357,2.003,0.0,0.0,2.2043,2.1644,0.0,0.0,0.0,0.0,0.0,0.0,0.0,0.0,0.0,0.0,1.832,0.0,0.0,0.0,0.0,1.5498,0.0,0.0,0.0,0.0,0.0,0.0,1.4793,0.0,0.0,0.0,0.0,0.0,0.0,0.0,0.0,0.0,0.0,0.0,0.0,1.81,0.0,1.9187,2.043,2.1099,2.1149,2.1945,2.2434,2.2444,2.28,2.3003,2.3091,2.3047,2.3047,2.3091,2.3091,2.3091,2.3091,2.3091,2.3091,2.3091,2.3091,2.3091,2.3091,2.3091,2.3091,2.3091,2.3091,2.3091,2.3091,1.3466,1.297,1.3105,1.4717,1.4731,1.4674,1.5038,1.5334,0.0,0.0,0.0,0.0,0.0,0.0,1.7374,0.0,0.0,1.8646,1.9238,1.9091,0.0,0.0,0.0,1.8418,0.0,0.0,0.0,1.4952,1.4952,1.4952,1.4952,1.5127,1.51,1.4922,0.0,1.5244,0.0,0.0,0.0,0.0,0.0,1.9029,1.9518,0.0,0.0,1.9161,2.0487,2.1215,0.0,2.3249,2.3841,2.3963,2.3829,2.3398,2.3037,2.3603,2.2526,0.0,0.0,0.0,2.1113,2.0684,0.0,0.0,0.0,0.0,0.0,0.0,0.0,0.0,0.0,0.0,0.0,1.5205,0.0,0.0,0.0,0.0,0.0,0.0,0.0,0.0,0.0,0.0,0.0,1.6457,1.6504,1.6794,0.0,1.9092,2.0068,2.0313,2.1494,2.2236,2.251,2.2886,2.3091,2.3091,2.3091,2.3091,2.3091,2.3091,2.3091,2.3091,2.3091,2.3091,2.3091,2.3091,2.3091,2.3091,2.3091,2.3091,2.3091,2.3091,2.3091,2.3091,1.4033,1.3692,1.3681,0.0,0.0,0.0,0.0,0.0,0.0,0.0,1.7392,0.0,1.853,0.0,1.8131,0.0,1.8442,1.9231,2.0674,1.9414,0.0,2.3064,2.0847,0.0,0.0,0.0,0.0,0.0,0.0,1.6005,1.6318,1.5703,1.5498,1.5634,0.0,1.592,0.0,0.0,1.9167,0.0,0.0,2.0297,0.0,0.0,1.9367,2.0641,0.0,2.2717,2.3304,2.4479,2.5216,2.5538,2.4746,2.4482,2.4502,2.4619,2.3672,2.2685,2.3086,2.2881,0.0,2.2187,2.1357,0.0,2.0215,0.0,0.0,0.0,0.0,0.0,0.0,0.0,0.0,1.5488,1.4923,0.0,0.0,1.3408,0.0,0.0,0.0,0.0,0.0,0.0,1.4355,1.5332,1.54,1.5771,0.0,0.0,1.9414,1.9678,2.1113,2.2012,2.2285,2.2808,2.3091,2.3091,2.3091,2.3091,2.3091,2.3091,2.3091,2.3091,2.3091,2.3091,2.3091,2.3091,2.3091,2.3091,2.3091,2.3091,2.3091,2.3091,2.3091,2.3091,1.5483,1.5923,1.5597,0.0,1.3328,0.0,0.0,0.0,1.6339,0.0,1.6996,1.6795,1.7598,1.6948,1.6333,1.5872,1.549,0.0,1.9315,1.6883,0.0,0.0,2.0029,1.9492,2.2457,0.0,0.0,0.0,0.0,0.0,1.8008,1.6279,1.5703,1.6144,1.6543,0.0,1.6932,2.0388,2.1606,2.1255,2.2005,2.2087,2.167,2.0882,0.0,2.5528,2.4196,2.451,2.5586,2.5684,2.5693,2.5693,2.5693,2.5693,2.5606,2.5225,2.5135,2.498,2.456,2.4141,2.3623,2.2812,0.0,0.0,0.0,0.0,1.9922,0.0,0.0,0.0,0.0,0.0,0.0,0.0,0.0,0.0,0.0,0.0,0.0,0.0,0.0,0.0,0.0,1.4001,1.4531,1.4104,1.4825,0.0,0.0,0.0,0.0,1.9287,2.0869,2.1777,2.1885,2.2656,2.3033,2.3091,2.3091,2.3091,2.3091,2.3091,2.3091,2.3091,2.3091,2.3091,2.3091,2.3091,2.3091,2.3091,2.3091,2.3091,2.3091,2.3091,2.3091,2.3091,1.2572,1.2974,1.3344,0.0,1.4308,1.5674,0.0,0.0,0.0,0.0,1.7864,1.7342,1.7334,1.7469,1.7289,1.6526,1.7669,0.0,0.0,0.0,0.0,2.5475,2.4353,2.3461,2.3018,2.2494,0.0,2.0605,0.0,0.0,1.8412,1.7019,1.6424,1.6562,0.0,0.0,1.8232,2.045,2.1632,2.2023,2.1589,2.1762,0.0,0.0,2.4326,2.5528,2.4196,2.3939,2.4353,2.5382,2.5693,2.5693,2.5693,2.5693,2.5664,2.5596,2.5332,2.5086,2.4932,2.459,2.4199,2.3984,2.3135,2.2295,0.0,0.0,0.0,0.0,0.0,0.0,0.0,0.0,0.0,0.0,0.0,0.0,0.0,0.0,0.0,0.0,0.0,0.0,0.0,0.0,1.3457,1.3627,1.3867,0.0,0.0,0.0,0.0,1.9238,1.9404,2.0254,2.1865,2.1777,2.2155,2.3091,2.3091,2.3091,2.3091,2.3091,2.3091,2.3091,2.3091,2.3091,2.3091,2.3091,2.3091,2.3091,2.3091,2.3091,2.3091,2.3091,2.3091,2.3091,1.3952,0.0,0.0,1.4494,0.0,0.0,1.6676,0.0,0.0,1.9351,1.8425,0.0,1.8636,1.9024,1.8963,1.848,1.9466,0.0,0.0,0.0,0.0,2.6814,2.5697,2.4775,2.4307,2.4137,0.0,2.2582,0.0,0.0,1.9689,1.7652,1.6804,1.7021,0.0,1.7584,0.0,2.0859,2.2361,2.3233,2.2758,0.0,0.0,2.4272,2.4923,2.5586,2.4864,2.4559,2.4707,2.543,2.5693,2.5693,2.5693,2.5693,2.5693,2.5693,2.5557,2.5361,2.5361,2.5039,2.4697,2.4697,2.4014,2.3301,2.3115,2.2314,2.1621,0.0,0.0,0.0,0.0,0.0,0.0,0.0,0.0,0.0,0.0,0.0,0.0,0.0,0.0,0.0,0.0,0.0,0.0,1.3477,0.0,0.0,0.0,0.0,0.0,1.8135,1.8802,1.9697,2.0742,2.0693,2.1309,2.2598,2.2598,2.274,2.3091,2.3091,2.3091,2.3091,2.3091,2.3091,2.3091,2.3091,2.3091,2.3091,2.3091,2.3091,2.3091,2.3091,2.3091,2.3091,1.6534,0.0,0.0,0.0,0.0,0.0,0.0,1.724,0.0,1.9979,0.0,1.8656,2.0433,2.0885,2.1024,2.0986,0.0,2.2371,2.5367,2.2372,2.2682,2.7487,2.5629,2.4926,2.5859,2.5469,0.0,0.0,0.0,2.0566,2.122,1.8256,1.71,1.7461,0.0,0.0,0.0,2.1475,2.3203,0.0,2.4482,2.4961,2.5538,2.499,2.5234,2.5859,2.5859,2.5781,2.5693,2.5693,2.5693,2.5693,2.5693,2.5693,2.5693,2.5693,2.5693,2.5693,2.5693,2.5449,2.5156,2.5156,2.4824,2.4404,2.4043,2.3867,2.3682,2.3257,2.314,2.276,0.0,0.0,0.0,0.0,0.0,0.0,0.0,0.0,0.0,0.0,0.0,0.0,0.0,0.0,0.0,0.0,0.0,0.0,0.0,0.0,0.0,0.0,1.8559,0.0,1.9453,0.0,2.0576,2.2051,2.1934,2.2324,2.3091,2.3091,2.3091,2.3091,2.3091,2.3091,2.3091,2.3091,2.3091,2.3091,2.3091,2.3091,2.3091,2.3091,2.3091,2.3091,0.0,0.0,0.0,0.0,0.0,1.6614,2.0166,1.9066,1.8328,1.9561,1.9976,0.0,2.0324,2.1927,2.28,2.2552,2.2509,0.0,0.0,0.0,0.0,2.7607,2.6936,2.6575,2.6797,2.6377,2.6162,0.0,2.3057,2.1621,2.1719,1.9043,1.7822,1.79,0.0,0.0,2.1348,2.1807,0.0,2.4443,2.4805,2.5049,2.5283,2.6211,2.666,2.6787,2.6787,2.6288,2.5693,2.5693,2.5693,2.5693,2.5693,2.5693,2.5693,2.5693,2.5693,2.5693,2.5693,2.5635,2.5567,2.5567,2.5283,2.4979,2.491,2.4343,2.3769,2.3691,2.3389,2.3023,2.2799,0.0,0.0,0.0,0.0,0.0,0.0,0.0,0.0,0.0,0.0,0.0,0.0,0.0,0.0,0.0,0.0,0.0,0.0,0.0,0.0,0.0,0.0,0.0,0.0,0.0,0.0,2.2867,2.2217,2.2324,2.3091,2.3091,2.3091,2.3091,2.3091,2.3091,2.3091,2.3091,2.3091,2.3091,2.3091,2.3091,2.3091,2.3091,2.3091,2.3091,0.0,0.0,0.0,0.0,0.0,0.0,0.0,2.0661,0.0,2.2518,2.1829,2.1435,2.204,2.2316,2.2727,2.3318,2.3659,2.472,2.6654,2.6149,2.6435,2.7949,2.7793,0.0,2.7021,2.7041,2.6836,2.6387,2.3584,2.2207,2.2148,1.9326,1.8008,1.8037,0.0,2.0078,0.0,0.0,0.0,2.5109,2.581,2.6074,2.6143,2.6777,2.7012,2.7012,2.7012,2.6748,2.6317,2.6152,2.6074,2.6035,2.5762,2.5693,2.5693,2.5693,2.5693,2.5693,2.5693,2.5693,2.5693,2.5693,2.5528,2.5352,2.5174,2.4793,2.4372,2.3887,2.3623,2.3271,2.2607,2.1414,0.0,0.0,0.0,0.0,0.0,0.0,0.0,0.0,0.0,0.0,0.0,0.0,0.0,0.0,0.0,0.0,0.0,0.0,0.0,0.0,0.0,0.0,0.0,0.0,0.0,2.248,2.208,2.2324,2.3091,2.3091,2.3091,2.3091,2.3091,2.3091,2.3091,2.3091,2.3091,2.3091,2.3091,2.3091,2.3091,2.3091,2.3091,2.3091,0.0,1.7274,0.0,0.0,1.9382,0.0,0.0,2.2534,2.4039,2.4672,2.3466,2.287,2.371,2.3319,2.3422,2.4377,2.5112,2.6166,2.7672,2.7461,2.751,2.7998,2.8193,2.7978,2.7295,2.7529,2.7334,0.0,2.4238,2.2871,0.0,1.9893,0.0,0.0,0.0,0.0,0.0,0.0,2.5157,2.6025,2.6846,2.7148,2.7168,2.7256,2.7285,2.7285,2.7285,2.7285,2.7217,2.6807,2.6602,2.6445,2.6016,2.583,2.581,2.5713,2.5693,2.5693,2.5693,2.5693,2.5693,2.5693,2.5693,2.5644,2.5293,2.5184,2.492,2.4199,2.3916,2.3457,2.2353,2.1728,0.0,0.0,0.0,0.0,0.0,0.0,0.0,0.0,0.0,0.0,0.0,0.0,0.0,0.0,0.0,0.0,0.0,0.0,0.0,0.0,0.0,0.0,1.915,0.0,2.0664,0.0,2.1973,2.2324,2.3091,2.3091,2.3091,2.3091,2.3091,2.3091,2.3091,2.3091,2.3091,2.3091,2.3091,2.3091,2.3091,2.3091,2.3091,2.3091,0.0,0.0,0.0,0.0,0.0,0.0,0.0,2.5226,2.4314,2.2232,2.4122,2.5206,2.3933,2.6109,2.7429,2.6766,2.7501,2.7383,2.6025,2.7353,2.7861,2.7168,2.7881,2.8252,2.8174,2.7842,2.7679,0.0,0.0,2.4033,0.0,0.0,0.0,0.0,0.0,0.0,0.0,2.5371,2.6064,2.6934,2.7412,2.7607,2.7646,2.8027,2.8174,2.8174,2.8174,2.8174,2.8105,2.7685,2.7285,2.6885,2.6465,2.6328,2.625,2.5801,2.5693,2.5693,2.5693,2.5693,2.5693,2.5693,2.5693,2.5674,2.5635,2.5361,2.5096,2.5008,2.4326,2.3633,2.3071,2.2363,2.1406,0.0,0.0,0.0,0.0,0.0,0.0,0.0,0.0,0.0,0.0,0.0,0.0,0.0,0.0,0.0,0.0,0.0,0.0,0.0,0.0,1.7881,1.8656,1.9512,0.0,2.2974,2.2246,2.2324,2.3091,2.3091,2.3091,2.3091,2.3091,2.3091,2.3091,2.3091,2.3091,2.3091,2.3091,2.3091,2.3091,2.3091,2.3091,2.3091,0.0,0.0,0.0,0.0,0.0,0.0,0.0,2.5094,2.5406,2.4446,2.5371,2.5873,2.527,2.5434,2.5811,2.6423,2.6775,2.7075,2.7263,2.791,2.8144,2.7803,2.8115,2.8291,2.8291,2.8125,2.8047,0.0,0.0,0.0,0.0,0.0,0.0,0.0,0.0,2.493,2.5908,2.6602,2.7236,2.7803,2.7969,2.8047,2.8057,2.8232,2.8291,2.8291,2.8291,2.8291,2.8262,2.8096,2.7754,2.7334,2.6894,2.6768,2.668,2.626,2.6133,2.6074,2.5762,2.5693,2.5693,2.5693,2.5693,2.5693,2.5693,2.5596,2.5391,2.5174,2.4385,2.374,2.3555,2.3047,2.2295,0.0,0.0,0.0,0.0,0.0,0.0,0.0,0.0,0.0,0.0,0.0,0.0,0.0,0.0,0.0,0.0,0.0,0.0,1.7187,0.0,1.9189,2.0576,2.0928,2.1787,2.3091,2.275,2.2769,2.3091,2.3091,2.3091,2.3091,2.3091,2.3091,2.3091,2.3091,2.3091,2.3091,2.3091,2.3091,2.3091,2.3091,2.3091,2.3091,1.9718,0.0,2.0188,0.0,2.1602,2.2549,2.3358,2.5317,2.6516,2.5838,2.6344,2.6599,2.6155,2.5489,2.5456,2.6267,2.6596,2.698,2.7516,2.8018,2.8184,2.793,2.8154,0.0,2.8291,2.8291,2.8291,2.8291,2.6455,0.0,0.0,0.0,0.0,0.0,2.5497,2.625,2.6992,2.7598,2.8018,2.8291,2.8291,2.8291,2.8291,2.8291,2.8291,2.8291,2.8291,2.8291,2.8291,2.8291,2.8096,2.7826,2.7344,2.7207,2.7119,2.6699,2.6484,2.6328,2.6016,2.5791,2.5693,2.5693,2.5693,2.5693,2.5693,2.5693,2.5605,2.5166,2.4482,2.3935,2.3809,2.3437,2.2818,2.2021,0.0,0.0,0.0,0.0,0.0,0.0,0.0,1.7988,1.8373,0.0,0.0,0.0,0.0,0.0,0.0,0.0,0.0,0.0,0.0,0.0,0.0,0.0,2.2051,2.3091,2.3091,2.3091,2.3091,2.3091,2.3091,2.3091,2.3091,2.3091,2.3091,2.3091,2.3091,2.3091,2.3091,2.3091,2.3091,2.3091,2.3091,2.3091,1.941,2.0565,2.2058,2.3518,2.5023,2.5766,2.4929,2.6748,2.7429,2.5147,2.6829,2.7726,2.6264,2.7394,2.7896,2.7048,2.7803,2.7568,2.583,2.7353,2.792,0.0,0.0,2.8291,2.8291,2.8291,2.8291,2.8291,0.0,0.0,2.5664,0.0,2.5556,2.6396,2.7307,2.7924,2.8271,2.8281,2.8291,2.8291,2.8291,2.8291,2.8291,2.8291,2.8291,2.8291,2.8291,2.8291,2.8291,2.8291,2.8291,2.8213,2.7845,2.7708,2.762,2.7139,2.6709,2.6387,2.6387,2.6064,2.5693,2.5693,2.5693,2.5693,2.5693,2.5693,2.5605,2.5166,2.4717,2.4277,2.3867,2.3437,2.2818,2.2021,0.0,0.0,0.0,0.0,0.0,0.0,1.791,1.7559,1.7978,0.0,0.0,0.0,0.0,0.0,0.0,0.0,0.0,1.6687,1.7178,0.0,1.9307,2.0194,2.1435,2.3091,2.3091,2.3091,2.3091,2.3091,2.3091,2.3091,2.3091,2.3091,2.3091,2.3091,2.3091,2.3091,2.3091,2.3091,2.3091,2.3091,2.3091,2.3091,1.9506,2.1414,2.3054,2.2961,2.3829,2.4798,2.5541,2.6325,2.6903,2.714,2.7839,2.8121,2.7672,2.8014,2.8184,0.0,2.7598,2.7441,0.0,2.7441,2.7559,2.7871,2.7588,2.7422,2.7422,2.7422,2.7422,2.7422,0.0,0.0,0.0,2.6465,2.6855,2.7695,2.7969,2.8164,2.8291,2.8291,2.8291,2.8291,2.8291,2.8291,2.8291,2.8291,2.8291,2.8291,2.8291,2.8291,2.8291,2.8291,2.8291,2.8271,2.8135,2.8096,2.8018,2.7588,2.7415,2.718,2.6543,2.6289,2.6113,2.5762,2.5693,2.5693,2.5693,2.5693,2.5645,2.5557,2.5176,2.4727,2.4297,2.3867,2.3213,2.207,0.0,0.0,0.0,0.0,0.0,0.0,1.9385,1.8965,0.0,1.8883,0.0,0.0,0.0,0.0,0.0,0.0,0.0,0.0,1.9775,0.0,2.1475,2.1465,2.2031,2.3091,2.3091,2.3091,2.3091,2.3091,2.3091,2.3091,2.3091,2.3091,2.3091,2.3091,2.3091,2.3178,2.3963,2.4253,2.4339,2.5136,2.4925,2.4382,2.0342,2.2166,2.3792,2.3823,2.4292,2.5055,2.6256,2.6747,2.7109,2.7746,2.8096,2.8291,2.8291,2.8291,0.0,2.8291,2.7803,2.7725,2.8252,2.7793,2.7734,2.8271,2.7783,2.75,2.75,0.0,0.0,2.75,2.75,2.75,2.75,2.75,2.7783,2.8291,2.8291,2.8291,2.8291,2.8291,2.8291,2.8291,2.8291,2.8291,2.8291,2.8291,2.8291,2.8291,2.8291,2.8291,2.8291,2.8291,2.8291,2.8291,2.8291,2.8291,2.8242,2.7978,2.7845,2.7601,2.7012,2.6631,2.6328,2.6055,2.581,2.5693,2.5693,2.5693,2.5693,2.5693,2.5381,2.5028,2.4717,2.418,2.3525,2.2725,2.29,2.2916,0.0,0.0,0.0,0.0,0.0,0.0,0.0,2.0126,0.0,0.0,0.0,0.0,0.0,0.0,0.0,2.0283,2.0752,0.0,2.2266,2.2021,2.2305,2.3091,2.3091,2.3091,2.3091,2.3091,2.3091,2.3091,2.3091,2.3091,2.3091,2.3091,2.3343,2.38,2.45,2.5041,2.5504,2.6224,2.6058,2.5546,2.1459,2.2695,0.0,0.0,2.6118,0.0,2.7011,2.7783,2.8008,2.7207,2.7803,2.8291,2.8291,2.8291,2.8291,2.8291,0.0,0.0,0.0,2.8232,2.8232,2.8291,2.8232,2.8203,2.8203,2.8203,2.8232,2.8291,2.8291,2.8291,2.8291,2.8291,2.8291,2.8291,2.8291,2.8291,2.8291,2.8291,2.8291,2.8291,2.8291,2.8291,2.8291,2.8291,2.8291,2.8291,2.8291,2.8291,2.8291,2.8291,2.8291,2.8291,2.8291,2.8291,2.8291,2.8291,2.8018,2.7757,2.7728,2.709,2.6465,2.6435,2.6103,2.5723,2.5693,2.5693,2.5693,2.5693,2.54,2.5155,2.5125,2.4414,2.3857,2.3799,2.3447,2.311,2.3023,0.0,0.0,0.0,0.0,0.0,0.0,2.0781,2.0762,0.0,0.0,0.0,0.0,0.0,1.8945,2.0211,2.0682,2.1292,2.2087,2.2014,2.2363,2.3091,2.3091,2.3091,2.3091,2.3091,2.3091,2.3091,2.3091,2.3091,2.3101,2.3178,2.3844,2.483,2.5031,2.5715,2.6693,2.682,2.6791,2.6749,0.0,0.0,2.409,2.4925,2.6586,2.7829,2.7965,2.8164,2.8223,2.8018,2.8164,2.8291,2.8291,2.8291,2.8291,2.8291,2.7695,2.7598,2.8252,2.7685,2.7607,2.8262,2.7666,2.7314,2.7314,2.7314,2.7637,2.8291,2.8291,2.8291,2.8291,2.8291,2.8291,2.8291,2.8291,2.8291,2.8291,2.8291,2.8291,2.8291,2.8291,2.8291,2.8291,2.8291,2.8291,2.8291,2.8291,2.8291,2.8291,2.8291,2.8291,2.8291,2.8291,2.8291,2.8291,2.8291,2.8223,2.8076,2.7806,2.7571,2.7337,2.6953,2.6553,2.6143,2.5762,2.5693,2.5693,2.5693,2.5606,2.5478,2.5174,2.4949,2.4551,2.3896,2.3701,2.3291,2.2324,2.2012,0.0,0.0,2.163,2.1799,2.273,2.2619,2.2266,0.0,0.0,0.0,0.0,0.0,2.2644,2.3619,2.3764,2.3919,2.4104,2.3252,2.2896,2.3091,2.3091,2.3091,2.3091,2.3091,2.3091,2.3091,2.3091,2.3091,2.3178,2.4049,2.4542,2.5031,2.7103,2.8093,2.8492,2.9784,2.9723,2.9142,2.1233,2.3277,2.5193,2.6197,2.7429,2.8291,2.8291,2.8291,2.8291,2.8291,2.8291,2.8291,2.8291,2.8291,2.8291,2.8291,2.7871,2.7803,2.8262,2.7861,2.7803,2.8271,2.7851,2.7598,2.7598,2.7598,2.7832,2.8291,2.8291,2.8291,2.8291,2.8291,2.8291,2.8291,2.8291,2.8291,2.8291,2.8291,2.8291,2.8291,2.8291,2.8291,2.8291,2.8291,2.8291,2.8291,2.8291,2.8291,2.8291,2.8291,2.8291,2.8291,2.8291,2.8291,2.8291,2.8291,2.8291,2.8242,2.8018,2.7812,2.7611,2.7119,2.6699,2.6328,2.6084,2.583,2.5693,2.5693,2.5693,2.5615,2.542,2.5205,2.4969,2.4453,2.3721,2.2959,2.2266,2.166,0.0,2.2015,2.1988,2.2468,2.3969,2.3966,2.3898,2.4002,0.0,0.0,2.3939,2.4178,2.4209,2.4018,2.4542,2.4542,2.4049,2.343,2.3091,2.3101,2.3637,2.3877,2.3877,2.4435,2.4392,2.3877,2.3877,2.4041,2.431,2.4897,2.5904,2.724,2.8744,2.9622,3.0163,3.1057,3.1046,3.0621,2.3207,2.4875,2.649,2.7726,2.8121,2.8291,2.8291,2.8291,2.8291,2.8291,2.8291,2.8291,2.8291,2.8291,2.8291,2.8291,2.8291,2.8291,2.8291,2.8291,2.8291,2.8291,2.8291,2.8291,2.8291,2.8291,2.8291,2.8291,2.8291,2.8291,2.8291,2.8291,2.8291,2.8291,2.8291,2.8291,2.8291,2.8291,2.8291,2.8291,2.8291,2.8291,2.8291,2.8291,2.8291,2.8291,2.8291,2.8291,2.8291,2.8291,2.8291,2.8291,2.8291,2.8291,2.8291,2.8291,2.8291,2.8291,2.8291,2.8027,2.7656,2.7217,2.6846,2.6543,2.6416,2.6103,2.5771,2.5703,2.5693,2.5693,2.5693,2.5564,2.5334,2.4949,2.3955,2.3086,2.2728,0.0,2.1699,2.2635,2.2509,2.3111,2.5125,2.4999,2.5252,2.6389,2.4922,0.0,0.0,2.5967,2.5007,2.3661,2.4713,2.466,2.3387,2.3343,2.3256,2.3091,2.4253,2.4787,2.483,2.5975,2.6008,2.519,2.519,2.5498,2.5967,2.6173,2.7633,2.9815,3.0068,3.0702,3.1524,3.1612,3.165,3.165,2.1919,2.4203,2.6155,2.6381,2.7447,2.8291,2.8291,2.8291,2.8291,2.8291,2.8291,2.8291,2.8291,2.8291,2.8291,2.8291,2.8291,2.8291,2.8291,2.8291,2.8291,2.8291,2.8291,2.8291,2.8291,2.8291,2.8291,2.8291,2.8291,2.8291,2.8291,2.8291,2.8291,2.8291,2.8291,2.8291,2.8291,2.8291,2.8291,2.8291,2.8291,2.8291,2.8291,2.8291,2.8291,2.8291,2.8291,2.8291,2.8291,2.8291,2.8291,2.8291,2.8291,2.8291,2.8291,2.8291,2.8291,2.8291,2.8291,2.8242,2.8096,2.7666,2.7562,2.7327,2.6553,2.6338,2.6182,2.5762,2.5693,2.5693,2.5693,2.6512,2.65,2.4342,2.5338,2.5706,2.3787,0.0,2.5311,2.6574,2.5317,2.5206,2.7377,2.59,2.5252,2.6389,2.6203,2.6151,2.6472,2.7221,2.7117,2.6016,2.7035,2.6603,2.4542,2.4542,2.4049,2.3091,2.4253,2.4787,2.483,2.5975,2.6665,2.6919,2.6919,2.7197,2.7784,2.873,2.9383,2.9947,3.1304,3.1909,3.2139,3.2629,3.286,3.286,2.3702,2.5151,2.6327,2.7159,2.7843,2.8291,2.8291,2.8486,2.8633,2.8633,2.8838,2.8975,2.8975,2.8975,2.8975,2.8975,2.8975,2.8975,2.8975,2.8545,2.8291,2.8291,2.8291,2.8291,2.8291,2.8291,2.8291,2.8291,2.8291,2.8291,2.8291,2.8291,2.8291,2.8291,2.8291,2.8291,2.8291,2.8291,2.8291,2.8291,2.8291,2.8291,2.8291,2.8291,2.8291,2.8291,2.8291,2.8291,2.8291,2.8291,2.8291,2.8291,2.8291,2.8291,2.8291,2.8291,2.8291,2.8291,2.8291,2.8291,2.8252,2.8057,2.7885,2.7611,2.7168,2.6719,2.6328,2.6133,2.5908,2.5693,2.5693,2.6754,2.7202,2.6059,2.668,0.0,0.0,2.6054,2.6467,2.7121,2.6827,2.7214,2.8869,2.8099,2.7973,2.9075,2.8621,2.8538,2.9116,2.9075,2.9034,2.9157,2.7894,2.6748,2.5714,2.6017,2.5893,2.5391,2.6825,2.7499,2.7541,2.8651,2.8958,2.8637,2.8637,2.897,2.9479,3.0008,3.0755,3.1656,3.2397,3.2679,3.2717,3.298,3.3124,3.3124,2.5654,2.6381,2.6943,2.8121,2.8291,2.833,2.8428,2.8711,2.8955,2.9053,2.9365,2.9626,2.9626,2.9626,2.9626,2.9626,2.9626,2.9626,2.9626,2.8955,2.8584,2.8584,2.8496,2.8398,2.8291,2.8291,2.8291,2.8291,2.8291,2.8291,2.8291,2.8291,2.8291,2.8291,2.8291,2.8291,2.8291,2.8291,2.8291,2.8291,2.8291,2.8291,2.8291,2.8291,2.8291,2.8291,2.8291,2.8291,2.8291,2.8291,2.8291,2.8291,2.8291,2.8291,2.8291,2.8291,2.8291,2.8291,2.8291,2.8291,2.8291,2.8291,2.8047,2.7783,2.7738,2.7158,2.6631,2.6426,2.636,2.6268,2.6169,2.74,2.829,2.7797,0.0,0.0,0.0,2.7846,2.779,2.8011,2.8314,2.8943,3.0067,2.9942,3.0235,3.1304,3.0621,3.0538,3.1345,3.0621,3.0538,3.1386,2.8974,2.7525,2.7277,2.7664,2.7762,2.7518,2.9066,2.9815,2.9857,3.0923,3.1026,3.0374,3.0374,3.0677,3.1184,3.1184,3.1915,3.3124,3.3124,3.3124,3.3124,3.3124,3.3124,3.3124,2.6045,2.7222,2.8184,2.8291,2.8291,2.8428,2.8809,2.8896,2.9062,2.9473,2.9551,2.9626,2.9626,2.9626,2.9626,2.9626,2.9626,2.9626,2.9626,2.9567,2.9473,2.9473,2.9092,2.8691,2.8301,2.8291,2.8291,2.8291,2.8291,2.8291,2.8291,2.8291,2.8291,2.8291,2.8291,2.8291,2.8291,2.8291,2.8291,2.8291,2.8291,2.8291,2.8291,2.8291,2.8291,2.8291,2.8291,2.8291,2.8291,2.8291,2.8291,2.8291,2.8291,2.8291,2.8291,2.8291,2.8291,2.8291,2.8291,2.8291,2.8291,2.8291,2.8271,2.8144,2.7754,2.7669,2.7395,2.6553,2.7247,2.79,2.7531,2.9361,3.0316,2.8372,0.0,0.0,2.987,3.0078,3.0708,3.1693,3.0531,3.0109,3.1182,3.036,3.0235,3.1304,3.1345,3.1304,3.1386,3.1345,3.1304,3.1386,3.1188,3.054,2.957,2.9606,2.911,2.8068,2.923,2.9815,2.9857,3.0923,3.1621,3.2014,3.2014,3.2351,3.292,3.292,3.2988,3.3124,3.3124,3.3124,3.3124,3.3124,3.3124,3.3124,2.7276,2.7897,2.8291,2.8291,2.8506,2.874,2.8896,2.9375,2.9766,2.9941,3.0215,3.0391,3.0391,3.0391,3.0391,3.0391,3.0391,3.0391,3.0391,3.0391,3.0146,2.959,2.9414,2.9248,2.9092,2.9082,2.9082,2.9082,2.9082,2.8945,2.8682,2.8682,2.8545,2.8291,2.8291,2.8291,2.8291,2.8291,2.8291,2.8291,2.8291,2.8291,2.8291,2.8291,2.8291,2.8291,2.8291,2.8291,2.8291,2.8291,2.8291,2.8291,2.8291,2.8291,2.8291,2.8291,2.8291,2.8291,2.8291,2.8291,2.8291,2.8291,2.8291,2.8252,2.8096,2.7851,2.763,2.7246,2.7141,2.7276,2.7848,2.9157,3.0054,3.0029,0.0,3.2301,3.195,3.2042,3.229,3.2704,3.2214,3.1992,3.2386,3.209,3.2035,3.2428,3.2428,3.2428,3.2428,3.2428,3.2428,3.2428,3.2428,3.1922,3.0799,3.1119,3.1069,3.0634,3.1467,3.1864,3.1864,3.2259,3.2554,3.2754,3.2754,3.2867,3.3124,3.3124,3.3124,3.3124,3.3124,3.3124,3.3124,3.3124,3.3124,3.3124,2.8121,2.8291,2.833,2.8467,2.873,2.9014,2.9277,2.9824,3.0244,3.0391,3.0693,3.0889,3.0889,3.0889,3.0889,3.0889,3.0889,3.0889,3.0889,3.0889,3.0557,2.9795,2.9766,2.9707,2.957,2.9626,2.9626,2.9626,2.9626,2.9414,2.9121,2.9121,2.8975,2.8691,2.8555,2.8496,2.8476,2.835,2.8291,2.8291,2.8291,2.8291,2.8291,2.8291,2.8291,2.8291,2.8291,2.8291,2.8291,2.8291,2.8291,2.8291,2.8291,2.8291,2.8291,2.8291,2.8291,2.8291,2.8291,2.8291,2.8291,2.8291,2.8291,2.8388,2.8857,2.8723,2.8577,2.889,2.8802,2.8845,2.9556,3.0293,3.1057,3.193,3.2636,3.3124,3.3124,3.3124,3.3124,3.3124,3.3124,3.3124,3.3124,3.3124,3.3124,3.3124,3.3124,3.3124,3.3124,3.3124,3.3124,3.3124,3.3124,3.2704,3.1926,3.229,3.2478,3.2491,3.288,3.3124,3.3124,3.3124,3.3124,3.3124,3.3124,3.3124,3.3124,3.3124,3.3124,3.3124,3.3124,3.3124,3.3124,3.3124,3.3124,3.3124,2.8291,2.8291,2.8428,2.8848,2.8926,2.9219,3.0068,3.0205,3.0371,3.083,3.0889,3.0889,3.0889,3.0889,3.0889,3.0889,3.0889,3.0889,3.0889,3.0889,3.0684,3.0225,3.0205,3.001,2.9646,2.9636,2.9636,2.9636,2.9636,2.9636,2.957,2.957,2.957,2.9551,2.9121,2.8926,2.8896,2.8476,2.8301,2.8301,2.8301,2.8301,2.8291,2.8291,2.8291,2.8291,2.8291,2.8291,2.8291,2.8291,2.8291,2.8291,2.8291,2.8291,2.8291,2.8291,2.8291,2.8291,2.8291,2.8291,2.8291,2.8291,2.8291,2.8644,3.0016,3.0317,3.0542,3.1528,3.2651,3.3363,3.2958,3.3428,3.3909,3.3909,3.3445,3.3124,3.3124,3.3124,3.3124,3.3124,3.3124,3.3124,3.3124,3.3124,3.3124,3.3124,3.3124,3.3124,3.3124,3.3124,3.3124,3.3124,3.3124,3.3124,3.3124,3.3124,3.3124,3.3124,3.3124,3.3124,3.3124,3.3124,3.3124,3.3124,3.3124,3.3124,3.3124,3.3124,3.3124,3.3124,3.3124,3.3124,3.3124,3.3124,3.3124,3.3124,2.8291,2.8535,2.8769,2.8896,2.9414,2.9902,3.0156,3.0478,3.0732,3.0869,3.0889,3.0889,3.0889,3.0889,3.0889,3.0889,3.0889,3.0889,3.0889,3.0889,3.083,3.0693,3.0684,3.0625,3.0498,3.0498,3.0498,3.0498,3.0498,3.0322,3.001,3.001,2.9853,2.956,2.9434,2.9375,2.9365,2.9238,2.9014,2.873,2.873,2.8555,2.8291,2.8291,2.8291,2.8291,2.8291,2.8291,2.8291,2.8291,2.8291,2.8291,2.8291,2.8291,2.8291,2.8291,2.8291,2.8291,2.8291,2.8291,2.8291,2.8291,2.8291,2.8644,3.0016,3.0317,3.0627,3.185,3.2195,3.2448,3.3185,3.3262,3.3475,3.4327,3.401,3.3658,3.3658,3.3319,3.3124,3.3124,3.3124,3.3124,3.3124,3.3124,3.3124,3.3124,3.3124,3.3124,3.3124,3.3124,3.3124,3.3124,3.3124,3.3124,3.3124,3.3124,3.3124,3.3124,3.3124,3.3124,3.3124,3.3124,3.3124,3.3124,3.3124,3.3124,3.3124,3.3124,3.3124,3.3124,3.3124,3.3124,3.3124,3.3124,3.3124,3.3124,2.8545,2.8887,2.9228,2.9394,2.9853,3.0264,3.0449,3.0713,3.0889,3.0889,3.0889,3.0889,3.0889,3.0889,3.0889,3.0889,3.0889,3.0889,3.0889,3.0889,3.0889,3.0889,3.0889,3.0889,3.0889,3.0889,3.0889,3.0889,3.0889,3.0742,3.0469,3.0469,3.0342,3.0088,2.9902,2.9824,2.9814,2.9695,2.9414,2.918,2.918,2.9023,2.8779,2.8603,2.8545,2.8525,2.835,2.8291,2.8291,2.8291,2.8291,2.8291,2.8291,2.8644,2.9102,2.9102,2.946,2.9859,2.9859,2.9859,2.9859,2.9859,2.946,2.946,3.0773,3.1531,3.2292,3.3639,3.3748,3.3778,3.4521,3.4238,3.4176,3.4903,3.4587,3.4223,3.4223,3.3935,3.3646,3.3432,3.3407,3.3319,3.3106,3.3124,3.3124,3.3124,3.3124,3.3124,3.3124,3.3124,3.3124,3.3124,3.3124,3.3124,3.3124,3.3124,3.3124,3.3124,3.3124,3.3124,3.3124,3.3124,3.3124,3.3124,3.3124,3.3124,3.3124,3.3124,3.3124,3.3124,3.3124,3.3124,3.3124,3.3124,3.3124,3.3124,2.8975,2.9326,2.9746,3.0127,3.0234,3.04,3.083,3.0889,3.0889,3.0889,3.0889,3.0889,3.0889,3.0889,3.0889,3.0889,3.0889,3.0889,3.0889,3.0889,3.0889,3.0889,3.0889,3.0889,3.0889,3.0889,3.0889,3.0889,3.0889,3.0889,3.0889,3.0889,3.0889,3.0869,3.0449,3.0264,3.0234,2.9853,2.9658,2.9629,2.9629,2.96,2.9531,2.9131,2.8975,2.8926,2.8545,2.8379,2.834,2.8301,2.8291,2.8291,2.8291,2.9207,3.0317,3.0317,3.1224,3.228,3.228,3.228,3.228,3.228,3.148,3.0979,3.2191,3.3464,3.4775,3.6108,3.6405,3.6405,3.6405,3.5956,3.5571,3.5571,3.5107,3.4756,3.4756,3.4705,3.4537,3.4035,3.3972,3.3771,3.3269,3.3224,3.3156,3.3156,3.3149,3.3124,3.3124,3.3124,3.3124,3.3124,3.3124,3.3124,3.3124,3.3124,3.3124,3.3124,3.3124,3.3124,3.3124,3.3124,3.3124,3.3124,3.3124,3.3124,3.3124,3.3124,3.3124,3.3124,3.3124,3.3124,3.3124,3.3124,3.3124,3.3124,2.9365,2.9775,3.0088,3.0176,3.0498,3.0771,3.0869,3.0889,3.0889,3.0889,3.0889,3.0889,3.0889,3.0889,3.0889,3.0889,3.0889,3.0889,3.0889,3.0889,3.0889,3.0889,3.0889,3.0889,3.0889,3.0889,3.0889,3.0889,3.0889,3.0889,3.0889,3.0889,3.0889,3.0889,3.0781,3.0742,3.0732,3.0644,3.04,3.0059,3.0059,2.9863,2.9616,2.9463,2.9434,2.9414,2.9326,2.9072,2.873,2.8398,2.8291,2.8291,2.8291,2.9207,3.0317,3.0317,3.1224,3.228,3.228,3.228,3.228,3.228,3.2905,3.3563,3.3871,3.4178,3.4775,3.6108,3.6405,3.6405,3.6405,3.6304,3.6182,3.6182,3.573,3.532,3.532,3.4944,3.4675,3.4562,3.455,3.45,3.4374,3.3972,3.3721,3.3721,3.3319,3.3124,3.3124,3.3124,3.3124,3.3124,3.3124,3.3124,3.3124,3.3124,3.3124,3.3124,3.3124,3.3124,3.3124,3.3124,3.3124,3.3124,3.3124,3.3124,3.3124,3.3124,3.3124,3.3124,3.3124,3.3124,3.3124,3.3124,3.3124,3.3124,2.9824,3.0225,3.0527,3.0527,3.0732,3.0889,3.0889,3.0889,3.0889,3.0889,3.0889,3.0889,3.0889,3.0889,3.0889,3.0889,3.0889,3.0889,3.0889,3.0889,3.0889,3.0889,3.0889,3.0889,3.0889,3.0889,3.0889,3.0889,3.0889,3.0889,3.0889,3.0889,3.0889,3.0889,3.0889,3.0889,3.0889,3.0889,3.0752,3.0527,3.0527,3.04,3.0176,2.9951,2.9863,2.9844,2.9648,2.9903,3.0323,3.0557,3.0664,3.0569,3.0287,3.1133,3.2252,3.2252,3.3193,3.424,3.424,3.424,3.424,3.424,3.4812,3.5174,3.4532,3.4872,3.5571,3.6263,3.6405,3.6405,3.6405,3.6405,3.6405,3.6405,3.6119,3.5931,3.5931,3.5692,3.5403,3.5107,3.5069,3.4969,3.4705,3.4462,3.4299,3.4299,3.4022,3.3859,3.3859,3.3859,3.3746,3.3483,3.347,3.3345,3.3124,3.3124,3.3124,3.3124,3.3124,3.3124,3.3124,3.3124,3.3124,3.3124,3.3124,3.3124,3.3124,3.3124,3.3124,3.3124,3.3124,3.3124,3.3124,3.3124,3.3124,3.3124,3.0303,3.0625,3.0889,3.0889,3.0889,3.0889,3.0889,3.0889,3.0889,3.0889,3.0889,3.0889,3.0889,3.0889,3.0889,3.0889,3.0889,3.0889,3.0889,3.0889,3.0889,3.0889,3.0889,3.0889,3.0889,3.0889,3.0889,3.0889,3.0889,3.0889,3.0889,3.0889,3.0889,3.0889,3.0889,3.0889,3.0889,3.0889,3.0889,3.0889,3.0889,3.0889,3.085,3.0459,3.0322,3.0264,2.9922,3.0711,3.207,3.3019,3.3319,3.3229,3.2622,3.3431,3.4541,3.4409,3.5367,3.6405,3.6405,3.6405,3.6405,3.6405,3.6405,3.6108,3.4981,3.5619,3.6405,3.6405,3.6405,3.6405,3.6405,3.6405,3.6405,3.6405,3.6405,3.6405,3.6405,3.6405,3.6194,3.5683,3.5633,3.5458,3.5052,3.4914,3.4818,3.4818,3.4731,3.468,3.468,3.468,3.4512,3.406,3.4035,3.3822,3.337,3.3357,3.3307,3.3262,3.3262,3.3212,3.3124,3.3124,3.3124,3.3124,3.3124,3.3124,3.3124,3.3124,3.3124,3.3124,3.3124,3.3124,3.3124,3.3124,3.3124,3.3124,3.0723,3.085,3.0889,3.0889,3.0889,3.0889,3.0889,3.0889,3.0889,3.0889,3.0889,3.0889,3.0889,3.0889,3.0889,3.0889,3.0889,3.0889,3.0889,3.0889,3.0889,3.0889,3.0889,3.0889,3.0889,3.0889,3.0889,3.0889,3.0889,3.0889,3.0889,3.0889,3.0889,3.0889,3.0889,3.0889,3.0889,3.0889,3.0889,3.0889,3.0889,3.0889,3.0889,3.082,3.0801,3.0791,3.0732,3.1392,3.2482,3.3548,3.3907,3.3817,3.3252,3.4,3.4982,3.4553,3.5367,3.6405,3.6405,3.6405,3.6405,3.6405,3.6405,3.6358,3.6156,3.6263,3.6405,3.6405,3.6405,3.6405,3.6405,3.6405,3.6405,3.6405,3.6405,3.6405,3.6405,3.6405,3.638,3.6304,3.6304,3.6267,3.6191,3.5717,3.5382,3.5382,3.4944,3.468,3.468,3.468,3.4688,3.4568,3.4613,3.4575,3.45,3.45,3.4261,3.3784,3.3784,3.3533,3.3124,3.3124,3.3124,3.3124,3.3124,3.3124,3.3124,3.3124,3.3124,3.3124,3.3124,3.3124,3.3124,3.3124,3.3124,3.3124,3.085,3.0889,3.0889,3.0889,3.0889,3.0889,3.0889,3.0889,3.0889,3.0889,3.0889,3.0889,3.0889,3.0889,3.0889,3.0889,3.0889,3.0889,3.0889,3.0889,3.0889,3.0889,3.0889,3.0889,3.0889,3.0889,3.0889,3.0889,3.0889,3.0889,3.0889,3.0889,3.0889,3.0889,3.0889,3.0889,3.0889,3.0889,3.0889,3.0889,3.0889,3.0889,3.0889,3.0889,3.0889,3.1112,3.2768,3.3615,3.4285,3.6097,3.672,3.6624,3.6045,3.629,3.6653,3.6125,3.6365,3.6807,3.6493,3.6405,3.6405,3.6405,3.6405,3.6405,3.6405,3.6405,3.6405,3.6405,3.6405,3.6405,3.6405,3.6405,3.6405,3.6405,3.6405,3.6405,3.6405,3.6405,3.6405,3.6405,3.6405,3.6405,3.6405,3.6144,3.5994,3.5994,3.578,3.5642,3.5642,3.5642,3.5504,3.5144,3.5144,3.4994,3.468,3.468,3.46,3.4361,3.4361,3.3909,3.3124,3.3124,3.3124,3.3124,3.3124,3.3124,3.3124,3.3124,3.3124,3.3124,3.3124,3.3124,3.3124,3.3124,3.3124,3.3124]}]]